GFSGL_850_rhum_000.txt.gz
RH
40 41 43 46 50 54 55 55 56 58 56 50 37 20 10 10 20 22 19 19 21 21 24 36 44 51 50 42 51 73 78 78 79 73 74 70 76 72 70 88 91 87 90
42 44 46 50 54 56 56 57 61 60 53 40 21 11 13 23 23 20 22 23 23 26 38 52 59 60 53 52 70 83 83 81 86 94 76 78 74 80 98 91 73 69 75
45 46 49 52 55 56 58 63 63 57 42 22 13 17 25 24 22 24 25 25 26 36 55 61 62 61 60 64 81 83 96 98 96 94 85 80 74 100 94 69 74 71 61
48 48 50 53 56 57 64 66 60 46 26 15 20 28 28 25 27 27 25 24 34 50 58 59 61 67 68 86 85 95 88 74 78 85 97 90 98 90 85 82 74 75 76
51 49 51 55 57 65 66 61 49 28 17 22 30 31 29 30 31 27 30 47 52 53 56 60 68 75 79 88 88 91 93 96 97 99 89 98 97 83 88 87 94 88 96
55 51 53 56 65 66 61 52 33 20 20 30 34 34 34 34 30 27 41 53 54 59 64 72 75 76 79 88 88 87 91 97 93 99 96 86 93 95 90 99 98 97 89
55 53 56 65 66 59 53 38 21 19 28 36 38 37 37 33 28 30 50 61 66 70 74 77 82 81 87 81 81 95 94 95 96 93 85 89 100 94 98 100 98 100 99
56 56 67 67 59 55 42 23 19 23 36 39 40 39 35 30 29 30 45 65 68 70 76 81 85 82 67 90 93 96 96 84 64 77 94 96 98 96 96 99 97 98 98
58 70 69 64 58 48 26 19 20 33 37 41 41 37 31 29 32 39 87 81 81 75 73 76 79 63 91 91 97 96 91 78 69 98 100 95 91 95 99 96 95 100 98
73 72 68 62 55 31 21 17 30 37 41 43 40 31 29 28 35 50 93 92 86 80 82 83 74 91 97 96 97 93 81 78 98 97 76 67 70 78 100 100 97 99 100
76 71 65 57 32 24 16 24 34 41 45 42 32 25 22 34 51 66 94 94 93 93 92 90 78 97 97 89 88 89 94 95 92 79 75 82 88 89 91 95 97 98 97
75 68 58 35 27 17 18 29 40 46 43 33 24 21 31 45 62 66 96 93 95 96 97 85 94 99 94 92 94 96 98 98 83 88 96 95 91 90 93 94 96 95 96
70 64 42 30 19 17 29 40 46 44 34 25 30 45 51 59 66 78 94 95 86 90 89 97 97 96 92 77 88 100 100 93 94 95 96 92 95 94 93 94 91 93 93
65 46 33 21 16 28 41 47 44 35 27 31 49 63 71 76 82 92 98 81 92 97 97 97 86 74 80 86 79 80 90 100 98 98 99 92 93 96 96 97 96 93 95
47 35 23 19 27 39 47 45 37 28 32 62 70 83 88 92 95 93 90 96 95 94 94 86 74 80 77 81 82 87 90 98 98 95 95 96 94 96 94 95 95 95 97
35 25 23 30 43 49 44 35 27 27 28 35 40 73 82 95 94 94 93 95 96 97 94 86 93 93 97 94 95 94 91 95 95 94 94 96 96 98 96 95 95 96 96
27 27 34 46 50 43 37 32 30 23 28 31 37 47 87 94 97 95 96 97 90 99 91 98 100 99 96 95 97 98 97 93 96 93 95 96 97 94 97 96 96 96 94
30 37 48 52 43 37 33 32 34 40 41 37 43 54 63 93 98 97 100 91 74 82 98 100 98 94 95 98 96 97 94 92 92 93 96 97 96 98 96 97 97 96 97
39 49 54 44 37 32 32 30 34 38 40 46 52 53 62 88 100 85 88 84 97 98 96 94 88 94 97 98 96 96 97 96 98 97 95 96 96 97 96 97 97 96 98
49 56 46 36 27 28 30 32 35 39 46 53 54 63 83 98 87 74 78 88 98 96 94 88 87 96 98 98 96 96 95 94 95 95 96 97 97 97 97 97 97 96 96
57 47 37 25 29 32 33 34 41 48 55 57 58 66 100 100 83 82 86 92 94 93 89 85 95 96 97 96 97 98 96 94 97 97 96 97 98 97 96 96 96 96 95
47 37 24 25 27 29 32 39 46 53 56 61 63 68 98 84 80 84 88 89 88 87 84 96 96 97 97 97 97 96 93 94 97 97 98 99 98 97 97 97 96 95 97
36 24 23 25 29 33 37 42 50 57 62 67 74 80 82 79 81 85 87 86 84 78 82 96 96 96 97 97 97 98 97 97 97 98 98 94 94 96 97 96 96 96 94
25 24 26 29 32 37 42 48 56 61 68 75 82 83 81 82 82 85 84 83 80 71 93 95 97 98 96 96 96 98 98 98 96 95 98 98 98 96 96 96 98 98 94
25 26 29 32 34 39 45 52 61 67 74 80 83 81 80 80 83 82 82 81 75 73 94 95 96 97 96 96 97 97 97 96 98 97 96 97 96 96 97 95 96 96 96
27 28 29 31 35 45 54 62 67 74 79 80 82 80 79 83 84 81 80 78 68 85 94 95 96 97 97 96 97 97 98 98 97 97 98 97 90 91 96 97 91 92 94

GFSGL_850_rhum_003.txt.gz
RH
58 48 45 46 45 48 51 53 52 55 57 56 49 32 18 13 19 22 20 22 23 22 22 27 33 43 44 46 50 50 67 83 93 74 78 76 70 73 84 85 98 97 90
48 47 46 45 48 51 54 54 55 59 58 52 37 22 16 22 25 23 25 27 25 25 28 35 40 47 54 61 57 62 74 85 99 95 78 71 69 83 66 68 98 67 75
46 45 45 48 51 54 54 56 60 60 54 39 24 19 25 28 27 28 30 29 29 31 37 42 47 58 66 71 77 82 84 98 97 94 88 73 90 78 90 98 65 65 74
44 45 46 50 53 54 56 62 63 57 46 28 22 28 31 31 32 34 33 33 33 35 38 48 57 69 75 86 88 89 98 93 90 85 94 96 86 92 87 81 72 83 85
47 47 48 51 53 55 62 64 59 50 34 23 29 33 34 36 36 34 34 37 35 35 46 51 61 70 81 88 88 92 80 89 98 98 100 98 90 80 79 78 98 95 96
50 48 49 52 55 62 64 60 54 38 23 28 34 36 36 38 36 30 34 35 36 40 40 43 54 60 60 81 84 87 90 95 96 98 96 96 66 91 95 100 100 100 96
53 51 51 55 62 65 61 56 41 24 24 29 33 36 38 37 30 28 41 64 46 43 50 55 59 66 64 69 73 89 97 97 98 95 86 88 99 95 98 95 99 99 99
56 52 54 63 67 64 58 41 27 23 25 28 32 38 40 31 26 25 59 53 55 61 65 68 75 77 74 94 97 92 84 77 68 78 97 95 98 97 98 99 98 98 96
55 56 65 70 68 58 42 31 23 20 23 27 38 42 32 25 23 26 56 65 74 77 73 81 90 96 88 98 97 97 88 78 70 91 100 98 93 96 100 97 94 99 100
58 70 74 70 59 51 35 25 18 19 25 40 44 34 24 23 25 30 78 90 91 82 95 90 83 97 96 96 93 97 92 76 98 97 79 70 71 77 99 98 97 97 100
74 75 71 64 56 37 29 18 14 23 39 44 35 24 21 26 28 35 84 93 86 100 87 90 88 97 92 92 91 94 93 96 92 83 77 79 85 87 87 94 96 98 97
77 73 67 55 41 32 19 12 28 43 45 33 24 19 20 23 32 50 96 94 92 85 95 89 93 100 97 95 94 100 99 99 85 88 94 96 88 86 85 89 93 95 96
76 69 60 46 35 19 14 28 42 44 32 26 25 26 27 32 44 64 84 94 90 94 93 95 90 99 82 66 81 100 100 89 99 100 99 88 92 91 90 93 92 91 90
70 66 49 35 20 20 34 46 43 33 27 24 28 36 41 46 57 83 95 88 94 98 95 96 85 68 64 75 78 81 89 99 100 100 97 91 92 91 92 96 96 92 95
66 51 35 22 25 40 49 43 34 28 27 37 44 59 65 73 91 95 92 97 92 95 95 88 67 69 73 80 83 87 89 92 95 93 93 94 93 95 94 94 96 94 96
49 33 26 32 47 51 41 31 27 23 22 27 31 42 54 85 97 96 96 96 96 100 97 77 78 80 86 94 94 92 90 92 94 94 91 96 97 98 96 94 95 98 96
31 29 38 51 52 41 32 26 19 14 18 23 30 38 46 94 99 97 97 100 85 96 81 83 86 84 94 96 98 99 97 94 96 94 95 96 97 95 96 95 96 97 93
32 40 51 54 42 32 26 24 23 26 29 28 33 42 47 60 100 99 100 89 69 72 85 90 84 90 97 99 99 99 94 92 93 92 96 97 97 99 95 96 98 98 97
41 50 55 45 33 24 22 22 24 29 34 39 44 46 54 68 100 83 76 80 85 86 87 82 84 96 99 100 98 95 96 96 96 97 96 96 97 98 96 98 100 96 99
50 57 49 34 22 20 22 25 29 33 40 46 50 58 68 94 88 74 75 83 86 88 88 80 90 97 100 98 95 95 93 93 94 96 96 97 97 97 97 98 99 98 97
58 52 36 22 20 23 26 28 34 41 46 51 55 60 99 100 82 77 80 83 87 88 83 83 97 99 99 97 96 94 96 95 98 97 96 96 97 96 96 97 98 97 97
55 36 23 22 24 26 28 33 38 43 48 54 58 61 71 75 76 78 80 82 83 84 80 97 98 98 98 97 96 96 96 97 98 97 96 97 98 96 97 94 97 97 98
36 23 23 24 26 28 30 33 39 46 54 59 65 72 74 76 78 80 80 80 80 74 82 99 98 95 96 97 97 98 97 97 97 97 97 93 94 94 97 97 98 96 93
24 24 24 25 27 30 34 38 45 53 60 65 72 77 78 78 80 78 78 78 74 68 95 97 96 97 96 96 97 97 97 97 94 93 97 98 97 96 96 95 97 97 94
24 25 26 27 31 36 42 46 52 60 66 73 79 79 78 79 76 75 76 75 71 73 95 96 96 96 97 97 97 96 98 96 98 98 96 98 96 96 94 96 97 97 93
26 26 28 32 38 44 50 56 64 70 76 79 79 80 79 77 77 76 74 72 67 88 96 95 96 97 97 96 96 97 97 98 98 97 96 98 95 92 92 96 95 96 92

GFSGL_850_rhum_006.txt.gz
RH
70 51 45 43 46 47 43 46 49 50 53 57 58 51 39 25 21 24 25 26 28 29 29 29 28 33 36 46 58 66 73 76 85 64 70 71 67 60 73 76 87 100 96
57 53 50 47 47 45 46 49 50 53 57 60 56 45 30 24 26 28 29 31 33 33 31 30 30 38 44 54 72 78 88 82 93 91 83 70 60 74 76 78 83 81 73
60 56 50 48 46 47 50 51 53 58 61 60 50 34 26 27 29 32 34 35 34 32 31 32 36 39 47 62 75 87 88 97 99 96 86 76 81 90 95 87 70 79 82
55 50 47 46 47 50 52 53 58 62 62 52 37 28 28 30 33 35 36 35 31 30 33 30 30 37 48 79 90 91 91 83 79 88 89 88 100 96 86 81 84 92 97
48 46 46 47 49 51 53 57 62 62 54 40 29 28 30 31 33 37 34 33 33 38 34 34 43 51 59 89 91 86 90 93 97 97 95 93 94 86 85 86 100 100 100
46 45 46 48 50 52 56 61 61 54 42 30 27 26 27 30 37 35 28 43 46 44 44 56 61 64 66 76 69 92 100 98 93 92 99 96 94 85 86 100 100 100 96
48 48 48 49 51 56 61 61 55 44 33 27 24 24 26 38 37 27 23 41 55 57 64 68 72 74 66 72 78 90 97 86 88 91 85 88 98 96 99 96 99 99 100
50 49 49 51 56 62 60 55 48 38 28 21 18 24 36 38 27 21 22 38 64 74 74 76 87 73 87 96 97 98 83 76 72 77 95 95 98 98 99 100 99 99 96
52 51 52 58 63 62 57 52 43 31 20 14 22 37 39 27 21 18 23 70 84 83 80 87 82 95 91 98 96 98 94 75 70 90 100 93 84 86 98 97 93 98 99
53 55 61 66 63 61 57 45 32 20 13 21 37 38 26 21 18 24 66 96 95 86 97 88 86 98 96 100 96 98 92 75 97 96 78 72 69 71 82 94 99 98 100
58 65 68 67 65 60 46 34 20 12 24 41 37 25 18 18 23 30 67 96 93 98 90 88 86 95 97 93 94 93 91 95 94 85 76 74 77 80 84 86 92 100 96
68 70 71 69 61 48 36 19 16 34 43 35 23 16 15 20 28 39 80 96 94 91 94 87 93 99 98 96 90 99 100 100 84 84 87 86 84 83 86 86 88 91 95
74 74 69 63 50 37 20 24 41 44 32 22 18 20 23 26 32 48 77 91 94 96 93 98 88 98 68 61 74 98 93 84 91 96 95 86 86 89 88 89 86 89 86
75 71 64 51 34 22 32 45 44 31 21 20 27 32 33 40 51 80 91 89 96 94 95 94 82 67 62 73 77 78 83 90 100 99 95 89 90 89 88 93 94 93 93
70 64 49 30 26 38 48 44 31 23 24 33 32 38 58 68 86 96 93 96 94 96 99 84 68 64 69 79 80 84 88 92 96 94 94 92 91 90 89 95 95 95 97
63 45 29 31 42 50 46 31 24 20 20 25 29 41 48 66 97 98 98 97 98 100 89 72 70 71 84 90 91 91 89 92 94 95 93 96 95 95 96 96 98 100 98
39 30 33 43 51 47 32 22 17 16 21 25 32 37 40 44 89 100 100 100 73 71 72 74 76 81 91 94 98 99 96 92 96 95 95 94 96 97 98 98 98 98 91
31 34 44 53 49 34 23 23 24 26 27 24 26 35 42 47 82 100 99 71 62 65 75 81 78 87 95 99 100 100 94 93 94 92 95 97 96 98 98 98 99 97 96
36 44 53 52 37 23 23 25 26 28 31 35 37 39 45 48 92 71 67 67 74 77 80 75 75 92 96 100 98 96 97 96 96 96 95 96 97 98 97 100 100 99 98
44 53 55 40 24 22 24 26 27 31 36 39 41 48 56 94 77 64 65 72 78 81 80 73 82 93 97 97 97 97 94 95 95 96 96 97 97 98 98 100 99 98 97
52 57 41 26 22 23 25 27 32 36 40 42 47 54 88 99 73 68 72 76 80 81 79 74 90 94 96 98 98 96 96 97 97 97 97 96 98 97 98 99 99 98 98
59 40 27 23 23 25 27 31 35 38 42 50 55 58 67 69 68 70 74 77 77 77 74 88 93 97 98 98 97 97 96 97 96 96 96 97 97 97 98 96 98 98 96
37 26 23 23 25 26 28 32 37 44 52 59 65 68 70 69 69 73 76 76 73 69 70 95 96 97 97 98 98 98 96 97 96 96 96 96 97 98 97 98 99 97 96
24 23 24 25 25 28 33 38 48 56 63 68 72 73 73 71 73 74 76 71 68 64 86 96 98 99 97 97 98 98 97 96 95 92 98 98 98 97 97 98 98 98 94
23 24 23 24 29 35 44 52 58 65 71 75 74 72 72 76 76 74 73 68 66 64 90 96 97 97 97 98 98 97 96 96 97 98 97 98 97 94 99 100 97 96 88
24 21 24 30 40 52 59 64 69 74 75 73 72 72 74 76 76 74 69 64 62 77 94 96 96 98 98 96 96 96 96 96 99 98 96 96 93 92 93 95 94 94 90

GFSGL_850_rhum_009.txt.gz
RH
98 100 94 71 44 41 44 43 42 46 48 51 55 57 55 48 36 28 27 29 32 34 35 34 31 29 26 25 33 46 60 74 90 65 86 79 89 89 84 92 98 99 98
98 84 67 44 44 47 46 43 45 48 50 54 58 57 51 40 30 28 31 33 34 35 34 30 25 22 19 24 33 44 63 77 90 92 86 88 82 91 96 100 100 93 87
77 62 47 47 48 47 44 45 48 50 54 58 58 52 44 34 28 31 32 32 35 34 31 26 25 25 30 36 45 63 86 96 99 99 87 81 98 100 99 90 85 77 82
64 53 52 50 47 45 46 48 50 54 58 59 55 48 38 29 28 28 32 36 34 28 25 30 33 42 47 56 86 98 97 92 94 95 98 97 94 84 85 83 85 87 94
59 55 51 47 45 46 48 50 54 58 59 56 49 40 30 25 23 29 37 33 27 23 29 36 46 54 64 90 95 95 96 95 98 97 99 96 91 85 86 90 99 99 98
56 50 47 46 47 48 50 53 57 59 57 50 43 31 22 19 28 37 31 24 23 34 41 42 58 68 81 91 92 98 100 98 95 98 100 91 83 92 95 100 100 100 100
48 46 46 46 48 50 53 57 59 57 53 45 31 21 16 29 38 30 21 19 26 36 47 65 79 87 75 84 83 99 98 94 88 88 90 91 97 100 98 93 95 98 100
46 46 46 47 50 53 57 59 60 57 45 31 20 16 30 38 28 19 17 19 27 51 71 76 87 82 93 98 98 100 92 82 92 91 99 95 98 98 100 100 96 95 93
47 47 48 50 54 59 62 64 58 44 34 18 17 35 38 26 17 16 18 27 57 76 74 86 91 100 100 93 96 93 97 94 72 92 100 100 81 82 91 100 99 100 98
49 50 52 56 61 67 67 58 47 36 16 22 39 36 22 16 16 17 26 74 93 92 100 100 94 100 95 99 94 96 100 76 98 100 82 73 71 69 74 92 97 98 100
53 55 60 66 70 68 59 49 32 17 31 41 34 20 15 16 17 21 27 94 97 97 98 100 98 98 98 94 95 95 91 97 100 82 75 73 76 79 82 86 92 98 97
58 64 71 73 68 60 48 26 22 39 42 30 18 13 15 16 19 26 58 98 96 96 100 97 95 99 97 96 85 94 100 100 83 86 94 94 88 80 84 84 88 89 92
69 75 74 68 60 43 24 30 45 42 28 17 16 16 16 17 23 40 72 96 96 98 94 98 100 95 63 58 71 82 82 83 95 100 100 89 88 89 85 87 86 86 85
76 73 67 58 39 25 36 47 41 27 18 16 18 20 22 29 40 78 94 88 94 96 97 95 72 61 56 70 75 79 84 90 100 100 99 89 90 89 89 92 94 92 90
72 66 55 34 28 40 49 42 28 20 19 21 24 30 41 52 74 98 95 96 95 96 100 75 63 58 64 78 79 82 88 91 94 94 94 91 92 93 88 91 96 94 96
64 50 32 32 44 51 45 30 20 18 20 23 26 32 34 44 85 99 98 98 100 97 82 66 65 65 80 88 90 89 88 91 94 96 94 97 96 95 95 93 96 96 94
44 31 35 45 52 47 33 18 16 18 21 24 26 26 33 38 62 100 100 100 62 62 66 67 69 72 87 91 94 95 93 94 97 96 96 93 95 96 97 95 95 95 92
32 36 44 52 50 35 20 20 23 25 24 19 18 26 32 38 55 100 90 58 56 60 68 71 69 79 90 94 97 98 94 94 96 94 95 97 97 98 96 96 95 97 95
36 43 51 52 36 22 21 24 26 26 25 24 26 30 41 46 58 63 62 64 68 67 71 68 70 88 93 98 98 97 97 97 98 97 96 97 97 97 94 96 96 98 99
42 49 54 36 23 22 24 25 25 24 25 28 35 46 52 74 72 59 61 67 70 72 72 68 75 92 96 98 97 96 93 95 95 96 96 97 97 97 96 96 97 97 96
50 56 36 23 22 24 25 25 25 27 32 38 46 53 67 99 72 67 67 70 73 73 72 69 88 94 96 97 97 95 95 95 97 96 97 97 98 96 97 97 97 98 97
54 33 23 22 24 25 24 25 29 35 44 51 55 57 64 68 67 69 71 72 73 72 72 77 95 96 97 97 97 96 95 97 97 98 96 97 97 96 97 97 99 98 97
31 22 23 25 24 21 23 30 40 49 55 61 64 66 68 70 71 74 74 73 70 67 66 93 96 94 96 98 99 99 98 97 98 98 96 94 98 97 96 96 97 96 89
22 24 25 21 19 23 35 45 52 59 65 67 68 71 73 72 73 74 73 70 65 63 78 95 96 97 97 98 99 99 100 98 97 94 98 98 97 96 97 97 97 94 88
24 23 19 18 27 41 48 54 59 64 67 71 70 63 62 69 73 72 70 65 64 61 88 95 97 97 98 99 100 98 97 96 98 98 99 97 97 96 97 97 96 88 86
21 17 19 30 42 50 56 62 64 68 72 68 55 57 69 76 74 72 67 66 60 74 93 96 96 98 98 98 96 96 96 96 96 96 99 97 97 98 98 95 94 85 85

GFSGL_850_rhum_015.txt.gz
RH
95 98 97 98 99 92 77 66 65 51 43 46 46 47 50 54 56 55 48 40 33 32 33 35 34 37 38 41 41 48 55 60 64 64 67 69 70 72 71 76 81 70 76
88 98 100 95 97 85 70 64 54 43 44 43 45 48 52 56 56 51 42 34 30 28 32 41 42 53 46 46 51 56 59 63 70 74 76 77 76 71 81 88 85 75 72
91 99 100 97 87 76 61 59 44 42 42 43 47 51 55 58 55 46 34 25 24 35 44 51 52 54 55 57 62 68 73 77 77 77 79 78 78 87 94 87 74 71 66
97 98 99 95 78 61 54 46 41 41 42 46 51 55 58 57 51 36 24 20 34 46 50 62 61 61 64 70 71 86 86 85 87 87 83 80 95 97 84 74 69 72 80
100 100 97 90 70 53 44 42 42 43 46 51 55 58 60 54 38 24 18 31 35 46 51 57 61 65 69 87 95 93 92 88 87 84 93 100 97 85 80 74 80 89 74
99 92 67 58 48 44 43 43 44 46 51 55 58 59 53 37 26 19 33 29 20 34 51 50 61 70 78 84 90 91 91 91 96 95 99 98 94 83 79 90 83 98 100
90 70 62 48 46 45 47 47 47 52 55 58 59 51 36 20 24 34 24 14 15 38 50 67 79 77 83 87 88 90 85 96 100 94 95 88 86 82 78 88 99 98 98
80 69 48 48 51 58 51 48 52 56 60 60 48 35 20 33 33 19 13 14 22 49 70 77 78 79 84 90 84 93 86 83 82 82 84 89 85 91 98 98 98 88 84
66 52 62 64 47 46 50 53 58 63 60 45 27 25 36 29 18 14 15 15 36 67 72 72 76 82 86 87 95 91 91 87 82 85 92 98 98 95 95 94 84 97 95
82 57 45 46 48 51 56 62 64 53 41 22 34 36 26 16 16 16 16 23 67 77 77 78 79 85 87 90 96 95 90 86 86 89 90 90 91 90 95 94 97 96 97
45 45 47 50 55 60 66 60 50 32 27 39 34 25 20 22 23 25 24 35 91 92 89 87 81 87 92 93 94 94 93 98 95 96 92 91 91 94 97 92 89 99 96
47 50 53 58 65 66 56 45 27 35 41 34 24 21 35 46 47 48 53 95 95 94 90 85 89 93 94 95 96 97 100 100 96 95 93 94 98 94 88 87 87 90 99
54 58 64 68 62 54 37 30 40 41 33 23 20 29 39 44 49 66 82 91 92 91 89 94 94 96 95 88 89 100 100 95 96 94 94 97 96 93 90 89 92 100 95
63 69 67 61 50 29 34 42 42 35 22 20 30 32 30 41 56 68 56 81 91 93 92 90 87 92 81 85 88 90 94 97 97 95 94 95 96 91 89 92 96 91 100
70 66 58 42 29 37 43 43 35 22 18 18 20 20 23 28 36 34 86 94 96 95 98 77 80 78 83 86 92 94 97 100 100 100 99 96 93 95 88 90 94 100 100
64 55 37 31 39 45 45 36 23 20 19 21 21 17 16 20 30 47 96 99 99 100 84 82 82 87 92 95 98 90 90 94 98 99 96 97 99 96 94 91 96 99 100
52 32 33 41 46 46 35 22 21 26 26 25 17 13 19 27 34 47 97 98 65 89 81 86 88 94 98 100 100 98 95 95 96 97 97 96 96 95 97 94 98 98 96
32 35 41 47 47 34 22 20 20 22 19 19 27 27 35 38 44 96 100 84 69 70 78 89 88 92 92 98 96 99 98 94 94 96 95 97 96 97 97 96 97 100 96
36 41 48 48 31 22 20 21 20 18 23 26 35 47 59 49 73 97 96 84 84 85 88 88 87 85 88 97 99 99 98 95 96 97 95 96 96 97 95 96 97 96 99
41 49 47 29 22 20 22 18 18 22 26 40 55 64 66 59 64 71 75 81 85 85 87 79 70 75 95 99 99 98 97 94 96 97 96 96 96 97 96 96 96 97 97
51 45 28 21 21 22 14 15 20 29 40 50 60 70 95 97 79 80 78 80 82 78 73 65 66 90 98 98 99 98 96 95 97 97 95 95 96 96 96 97 97 97 98
43 28 21 22 21 13 13 21 32 42 53 64 64 65 80 71 68 71 74 75 74 69 67 66 87 97 97 97 97 96 96 97 95 95 97 97 97 96 98 97 96 97 97
27 21 23 20 13 13 24 34 43 53 56 60 68 69 58 55 63 73 74 71 66 65 65 86 97 97 98 98 98 98 97 94 96 98 98 94 94 95 97 97 97 96 93
22 23 20 13 13 22 32 41 46 55 62 65 67 61 55 56 68 72 69 69 67 65 78 96 98 98 97 97 97 97 96 97 98 93 97 98 99 98 97 97 96 93 86
24 20 14 15 23 32 40 46 53 60 62 63 65 60 59 59 68 69 73 77 74 77 94 98 98 97 97 97 97 95 97 97 99 100 100 100 100 100 96 92 90 83 88
19 14 17 24 33 40 46 52 57 60 62 63 64 62 61 60 69 75 87 91 98 100 99 97 98 97 98 98 94 97 97 96 98 94 88 81 87 86 84 83 85 88 92

GFSGL_850_rhum_021.txt.gz
RH
53 61 68 73 77 94 95 97 96 100 88 72 73 69 60 50 50 51 53 56 58 58 47 32 26 25 31 39 40 36 34 38 50 48 48 49 60 59 52 57 60 67 68
62 68 72 74 82 95 91 94 99 97 73 76 73 54 51 50 50 52 55 58 59 49 32 24 25 39 41 43 40 35 40 47 55 62 65 70 70 66 66 74 74 72 64
66 71 77 80 88 93 91 94 95 84 84 85 55 50 50 48 50 54 58 59 49 33 23 26 37 42 38 37 40 46 50 60 69 80 89 87 81 70 89 90 73 73 71
74 83 90 96 93 92 90 86 87 80 77 54 60 52 47 50 54 58 61 53 32 22 30 32 30 28 33 44 52 58 73 86 92 96 97 89 81 88 93 83 79 82 73
99 98 96 95 90 75 79 72 63 68 67 63 49 46 50 54 60 70 48 31 24 30 25 16 16 27 42 49 62 86 90 89 93 97 90 88 100 93 83 88 88 79 76
100 96 89 83 79 72 58 64 82 58 52 55 48 50 56 64 66 43 27 28 29 20 15 16 19 28 37 52 77 86 89 91 97 91 94 99 88 82 89 94 88 89 100
90 84 79 73 65 72 73 72 70 65 53 50 56 60 63 63 42 27 32 28 18 16 16 17 22 39 64 70 77 88 91 95 96 97 90 86 96 92 91 91 96 100 99
77 77 79 76 85 82 84 87 88 83 77 78 66 64 55 34 28 32 26 16 17 17 15 15 31 57 69 83 90 96 98 90 85 84 87 92 96 94 98 99 97 99 90
67 65 76 82 88 95 97 94 86 88 83 64 62 37 30 34 31 23 17 18 19 14 12 25 48 63 66 93 95 94 88 89 85 77 77 97 100 97 93 100 92 97 89
90 98 96 99 99 92 85 86 62 56 66 48 30 36 34 27 21 19 20 19 16 19 35 49 61 86 95 94 95 97 96 90 82 90 88 77 73 72 78 87 95 99 97
99 99 98 99 94 82 63 56 65 66 34 35 36 32 25 20 22 24 25 34 56 70 62 53 63 79 96 96 96 98 97 93 97 90 81 73 71 73 79 82 86 95 97
98 97 84 63 55 56 61 56 38 33 37 35 30 22 21 23 26 30 48 76 90 62 41 58 80 96 97 97 96 94 96 99 84 77 78 76 78 78 79 81 84 85 87
66 53 53 57 60 56 41 32 36 37 34 28 20 20 21 23 22 19 23 34 30 36 54 91 100 100 69 57 65 92 75 76 80 82 85 84 86 85 82 82 81 82 83
53 58 62 57 45 33 33 36 37 34 24 19 19 20 21 17 12 15 22 27 37 62 87 100 95 64 55 57 55 64 76 82 89 94 92 88 86 86 84 86 89 92 93
65 64 54 42 31 34 38 38 33 23 21 21 21 16 9 11 19 28 44 66 90 96 100 79 59 50 50 54 61 75 80 85 89 93 94 91 89 91 87 86 89 94 100
58 49 34 34 38 40 39 29 22 21 22 20 12 9 23 36 55 61 65 98 100 100 78 63 57 58 58 60 74 82 82 86 90 92 92 93 95 93 91 89 96 96 97
40 31 35 39 42 40 27 22 21 23 18 13 17 26 36 66 83 80 98 99 92 75 57 60 61 62 60 69 84 86 85 86 91 94 94 94 95 94 97 93 94 96 93
32 36 40 44 38 25 21 21 20 13 10 15 25 31 39 45 58 70 64 53 52 56 61 62 62 60 65 83 86 89 88 88 92 93 96 98 97 97 95 96 95 97 95
35 39 44 36 25 21 21 19 12 12 18 26 31 36 40 47 62 57 51 56 61 63 62 60 59 65 84 90 91 92 92 91 95 99 97 97 96 98 95 97 97 96 97
38 42 35 24 21 22 18 12 12 19 27 33 40 45 47 57 54 46 50 60 64 63 63 61 65 85 90 93 93 93 91 89 95 97 98 98 98 100 99 98 98 99 96
42 34 25 22 23 19 13 12 20 27 33 38 45 51 66 75 53 52 57 61 62 63 66 65 84 90 93 94 95 93 92 93 99 99 100 100 99 97 98 99 100 99 96
35 26 22 23 20 14 12 20 27 33 40 45 50 52 57 59 57 54 59 62 66 73 77 90 92 95 96 96 96 95 92 97 99 100 100 99 92 95 96 96 100 100 100
27 23 24 21 15 13 20 28 34 40 46 52 55 55 58 59 57 55 61 67 77 90 95 97 95 93 96 98 99 100 98 100 100 100 100 91 91 96 97 97 98 96 97
23 24 22 16 14 20 28 35 41 48 54 56 56 57 61 60 57 56 64 74 86 94 96 96 97 99 97 96 96 92 99 100 100 97 98 97 98 98 98 99 100 98 97
25 22 16 15 22 28 35 43 50 55 56 57 57 58 62 60 57 56 63 74 85 92 93 95 98 97 96 97 94 93 100 99 100 100 98 98 100 100 100 100 99 99 97
22 16 17 23 30 38 46 50 54 57 58 59 61 62 63 60 56 54 58 66 80 89 93 96 96 97 98 97 91 93 95 96 99 100 100 100 100 100 99 99 99 99 95

GFSGL_850_rhum_024.txt.gz
RH
30 38 41 48 68 62 67 69 75 89 100 95 92 92 71 66 72 60 56 53 53 56 58 56 41 28 23 31 39 40 38 38 44 47 44 46 50 44 41 40 41 53 50
34 44 50 52 60 66 72 74 89 94 99 94 94 87 71 66 70 77 68 54 55 58 58 44 29 23 31 38 36 32 34 38 48 57 67 63 64 57 64 60 54 40 48
47 58 70 65 69 70 78 85 97 94 98 91 89 75 66 77 66 63 53 55 58 57 45 31 31 32 34 30 28 33 42 49 58 77 83 87 80 69 68 62 58 56 58
62 60 67 70 83 79 93 98 96 94 96 89 76 75 85 83 55 51 55 57 59 52 33 28 29 25 20 23 32 41 54 71 79 82 88 91 84 73 78 82 72 65 67
89 97 79 94 99 95 97 98 94 93 82 75 86 97 82 67 68 54 60 60 43 31 30 25 18 17 22 32 45 61 80 80 82 92 96 90 85 86 82 74 84 79 77
100 100 99 97 94 96 94 84 81 82 85 95 76 75 74 59 58 68 55 34 30 28 20 16 17 19 25 34 55 72 86 93 95 96 95 94 88 83 76 89 92 97 96
97 93 89 91 92 82 76 82 84 88 86 85 93 90 67 60 63 71 41 32 26 18 17 17 16 18 26 39 53 64 82 92 95 93 95 87 87 79 94 93 96 99 92
100 99 99 96 80 76 84 90 92 88 91 95 94 94 99 99 73 33 31 22 18 19 18 15 14 22 29 46 67 84 92 95 95 88 85 91 98 94 98 99 96 90 86
98 92 84 79 83 88 97 99 97 98 97 98 100 100 76 35 35 29 21 20 21 19 15 18 30 28 41 79 90 97 95 91 84 82 83 92 90 87 82 90 80 95 90
89 92 95 97 96 99 100 99 98 99 100 85 52 36 35 33 26 22 21 22 21 17 17 19 19 33 74 95 96 100 96 86 88 92 76 70 67 69 74 83 90 99 100
100 100 100 100 100 100 99 100 88 69 58 46 36 35 31 27 29 32 35 35 34 21 17 16 24 50 100 98 97 98 92 96 98 82 68 65 67 70 74 79 85 92 96
100 100 100 98 94 83 64 57 64 54 36 38 35 29 26 27 28 26 23 21 26 24 25 38 67 98 100 94 73 59 97 94 65 70 72 74 77 75 76 79 82 85 88
96 81 64 57 59 65 58 42 33 36 37 32 25 25 24 21 20 17 11 14 23 35 55 86 99 95 74 49 47 48 54 69 76 79 80 81 83 82 80 80 79 79 82
52 54 60 66 58 41 35 38 39 35 28 21 20 20 20 16 9 13 21 30 44 64 87 96 96 80 60 49 48 56 73 80 83 87 88 87 84 84 83 86 86 87 89
61 63 59 46 36 37 40 38 34 26 21 21 21 16 11 17 25 31 53 70 89 98 99 89 57 46 44 46 53 71 78 80 83 90 91 90 90 91 89 88 88 90 96
61 49 38 36 39 40 39 32 24 21 20 18 12 11 20 29 57 65 54 99 98 100 82 59 52 51 52 54 69 78 81 83 89 90 91 94 95 94 91 87 94 96 96
48 35 35 39 39 38 28 22 22 23 19 14 15 22 34 49 48 45 56 88 59 56 54 56 56 55 54 65 82 86 84 87 89 91 94 95 96 96 97 92 94 96 95
32 33 36 40 37 26 22 22 21 15 12 15 24 30 37 42 56 66 50 44 48 53 57 56 55 56 64 83 88 89 88 89 90 93 96 99 97 98 95 96 98 100 98
35 38 42 34 25 22 22 20 14 12 16 25 31 35 40 48 64 63 47 49 54 56 56 55 58 68 86 91 92 92 93 91 95 99 97 99 100 98 96 98 98 100 100
40 44 33 25 22 23 20 15 12 18 26 31 34 38 44 50 56 47 48 54 58 58 59 60 72 89 93 93 93 94 91 89 95 96 99 100 100 97 96 96 97 100 93
45 34 25 22 23 21 16 12 18 25 30 36 40 46 56 63 54 51 49 55 59 63 67 78 92 94 95 93 94 93 93 90 97 100 100 100 100 96 100 98 95 94 97
37 26 23 24 22 17 13 18 25 29 33 38 44 52 55 55 56 53 51 57 63 75 89 94 94 97 98 96 96 96 93 94 98 100 100 100 97 96 98 96 98 97 96
28 23 24 22 18 14 19 25 30 35 41 47 52 55 56 57 58 56 54 58 66 81 94 95 95 95 96 97 98 100 95 98 100 100 99 94 98 96 96 96 96 93 93
24 24 23 18 15 20 25 31 38 45 50 56 58 59 58 59 59 57 54 58 64 80 91 94 97 98 97 98 97 95 92 97 100 100 96 97 98 97 96 96 93 92 98
24 24 17 15 20 28 36 43 49 54 57 60 60 59 58 59 59 57 55 55 59 71 85 90 96 95 96 98 96 93 91 94 100 100 100 97 98 98 98 96 94 98 93
24 17 16 22 31 39 44 48 52 55 58 60 59 58 56 55 55 54 51 49 52 65 80 86 92 95 96 97 93 92 88 89 100 100 100 99 99 99 98 97 93 92 91

GFSGL_850_rhum_027.txt.gz
RH
26 24 26 27 34 37 39 42 69 70 66 64 74 94 99 98 88 67 69 56 59 76 58 56 57 56 42 28 26 32 36 37 40 36 38 39 43 39 32 34 33 35 30
33 28 29 42 45 49 56 58 72 84 88 76 89 100 97 79 71 77 68 80 71 68 73 75 53 44 30 31 35 34 31 29 38 42 50 54 59 52 57 56 46 34 32
40 33 36 39 53 56 64 77 100 98 100 100 100 96 76 74 82 72 89 88 91 77 64 53 42 36 33 34 30 24 25 34 40 55 70 72 74 65 63 56 48 40 43
44 44 45 60 69 69 80 100 100 100 100 100 94 93 83 85 83 92 94 86 80 60 54 50 32 33 29 21 21 25 32 39 53 68 75 87 89 70 71 69 60 46 61
55 64 88 94 100 100 100 100 100 100 99 96 91 80 81 89 88 90 84 76 69 69 39 34 30 21 18 20 25 32 48 68 67 81 96 95 87 85 81 70 67 78 74
72 99 100 100 100 99 100 98 99 97 89 89 84 84 86 94 97 95 99 93 60 42 68 25 19 19 20 22 31 44 62 78 94 99 98 99 92 88 76 75 88 94 98
93 98 99 100 99 98 97 95 89 90 92 90 95 99 95 96 95 99 96 90 96 42 21 18 19 19 18 22 28 38 47 57 94 99 95 90 88 69 84 94 98 100 98
95 95 95 94 92 92 88 88 86 90 94 95 93 96 100 99 100 99 99 58 24 22 22 20 19 20 22 29 40 70 85 86 85 79 80 74 82 94 96 100 100 94 81
100 99 98 98 98 98 100 100 96 95 95 99 98 98 98 100 98 92 31 26 25 23 22 22 24 25 19 24 92 100 95 74 68 70 67 75 90 87 81 85 77 87 82
99 99 99 100 100 100 100 100 100 99 100 100 100 100 95 47 35 29 25 25 25 26 30 28 21 23 49 98 100 98 88 68 71 65 56 63 66 67 73 80 85 93 96
99 100 100 100 100 100 100 100 100 99 100 94 71 42 36 33 30 31 36 33 38 28 19 19 26 39 77 100 99 87 71 93 95 74 62 65 66 69 72 76 82 88 95
100 100 100 100 100 100 99 93 85 69 48 38 38 36 31 27 27 28 28 30 34 32 28 33 38 66 98 98 67 46 69 89 57 67 72 71 72 73 75 77 80 83 89
100 100 99 81 65 62 67 58 39 37 38 37 31 25 23 24 24 24 19 18 25 36 31 44 91 87 75 47 41 40 45 55 73 76 75 75 81 83 81 81 78 79 77
68 59 60 63 54 40 36 39 39 37 32 25 22 22 23 20 15 20 27 27 26 40 78 95 97 83 53 45 45 48 62 76 81 83 83 83 85 87 85 87 82 82 82
62 62 55 43 36 38 40 38 33 27 23 22 22 20 14 13 15 18 23 48 90 99 100 78 66 50 46 45 46 62 77 81 84 86 86 88 91 90 86 86 88 89 95
62 50 37 34 37 38 37 32 25 22 21 19 14 9 10 17 24 39 53 83 78 54 56 49 48 50 51 51 60 76 81 85 89 89 90 97 95 92 89 88 94 95 94
45 33 34 36 37 37 29 23 21 21 19 15 12 18 28 34 38 40 42 44 40 42 46 51 53 54 53 62 82 86 85 89 92 91 96 96 94 94 97 95 94 95 92
32 34 36 38 37 28 23 22 22 18 14 15 20 25 28 33 43 46 47 41 40 47 52 54 55 58 67 84 87 90 91 91 92 94 95 98 99 100 98 98 96 96 92
33 35 38 38 27 22 22 22 17 14 13 19 25 31 35 41 48 53 50 45 46 52 55 57 63 74 88 90 92 93 94 95 95 99 100 100 100 100 100 96 96 97 98
34 39 37 27 23 23 22 19 14 15 21 26 29 33 41 44 52 51 51 49 51 57 61 65 81 93 93 94 93 95 94 94 94 96 98 100 100 100 100 96 97 97 94
40 40 28 23 23 23 20 15 16 22 26 31 36 42 50 59 51 52 51 50 53 59 68 79 91 93 94 94 96 96 95 95 96 98 100 100 100 100 100 96 96 95 92
42 30 24 24 24 21 16 16 22 27 32 37 43 48 52 51 51 53 52 50 53 61 75 88 90 93 95 96 98 98 96 93 94 100 100 94 94 95 93 96 95 96 97
34 26 24 24 22 16 16 22 28 34 40 45 50 53 53 53 53 53 52 49 50 57 74 88 90 91 93 95 99 100 100 100 98 100 100 94 94 92 95 98 97 96 96
29 24 25 23 15 16 22 31 38 44 48 52 54 55 53 53 51 51 50 45 45 52 64 81 87 90 92 93 96 97 100 99 99 100 98 96 96 97 97 94 96 97 96
25 25 23 15 16 24 33 40 44 47 50 52 52 52 52 52 51 51 50 44 42 46 54 72 82 86 90 92 95 96 95 95 93 100 100 98 97 96 94 96 96 97 95
25 24 16 16 24 33 38 43 48 51 54 54 53 53 51 50 50 50 48 43 40 44 51 69 78 86 91 92 96 94 92 95 93 98 100 100 98 95 96 98 98 98 98

GFSGL_850_rhum_030.txt.gz
RH
38 37 34 28 26 27 31 37 44 54 68 75 65 68 80 98 100 99 92 86 73 71 63 75 70 67 67 66 41 32 33 35 41 35 31 29 31 28 24 23 27 28 25
50 44 38 32 29 29 41 45 52 69 85 96 97 98 100 100 98 91 83 77 79 74 71 90 86 66 73 70 62 42 37 37 37 33 34 34 35 31 36 45 40 37 32
56 45 45 39 33 35 48 61 65 94 100 100 100 100 100 99 97 84 79 82 71 81 91 90 93 63 46 40 36 36 32 29 32 38 41 45 49 49 57 53 54 33 29
60 52 49 51 59 57 74 72 86 99 100 100 100 100 100 98 84 77 75 80 92 97 96 92 92 74 75 73 34 22 22 27 32 41 53 60 77 68 72 65 60 49 54
70 63 61 56 80 99 100 100 100 99 98 100 100 100 99 86 74 76 94 100 100 100 99 99 76 69 94 45 20 21 28 31 44 56 66 93 89 74 74 77 73 71 65
94 87 86 93 99 99 99 100 100 100 100 100 100 96 89 87 93 96 99 99 92 95 95 97 98 64 20 20 24 32 39 42 51 82 93 94 83 82 85 77 90 92 94
95 92 97 94 100 100 100 100 100 100 100 99 98 96 94 94 97 99 97 99 99 99 99 88 25 21 22 20 21 26 29 35 65 93 96 84 93 80 89 97 96 88 83
97 97 98 99 99 100 100 99 98 96 96 93 92 94 93 99 100 100 100 100 99 82 30 23 22 21 20 18 18 35 62 70 75 76 79 79 89 97 100 99 89 85 84
99 97 96 96 96 96 94 96 100 99 100 100 100 100 100 100 99 100 98 63 32 29 26 24 23 20 18 18 71 97 94 84 78 72 69 77 73 65 67 74 75 85 82
99 100 100 100 100 100 100 100 99 100 100 100 100 100 99 99 85 33 27 29 27 29 30 24 23 21 29 68 100 98 98 74 58 52 48 48 58 65 72 79 85 91 96
100 99 100 100 100 100 100 100 100 100 100 99 98 86 40 33 31 29 24 26 28 24 18 19 27 38 76 100 100 94 65 85 83 55 47 60 64 69 72 76 83 90 96
100 100 100 100 100 100 100 99 98 82 51 38 36 35 34 32 32 33 37 36 28 17 21 37 62 98 100 79 61 46 61 72 45 54 68 70 70 72 75 78 83 84 88
100 100 99 89 77 70 62 43 38 39 38 36 33 30 29 30 29 26 19 16 25 42 54 72 78 80 74 56 41 41 42 47 66 76 76 74 78 81 81 81 79 82 79
74 63 64 59 46 38 38 39 38 35 31 26 23 22 22 20 14 15 23 32 41 57 62 68 61 50 44 42 43 45 52 72 79 82 83 82 83 84 83 88 88 90 84
66 58 46 37 38 39 38 35 31 25 22 22 21 18 14 14 21 50 67 65 66 51 48 43 44 43 42 41 42 53 73 78 80 84 87 87 88 88 86 90 94 94 96
54 42 36 38 38 37 34 27 24 22 21 18 14 11 16 25 35 32 30 34 37 43 41 40 41 42 43 45 56 75 81 84 88 90 89 92 92 91 90 90 99 95 90
42 34 37 39 39 34 26 23 23 23 20 16 14 17 24 28 31 35 40 40 40 37 37 41 42 44 48 62 82 86 84 88 92 92 91 94 94 94 97 98 90 89 87
34 36 38 39 35 26 23 22 22 18 15 13 17 23 28 31 34 36 41 42 39 40 45 47 49 54 68 86 90 91 90 91 93 93 91 95 100 100 98 100 98 95 93
33 35 38 37 27 23 22 22 19 16 13 16 22 27 30 33 40 45 46 46 44 44 49 51 57 71 89 92 94 94 94 94 95 96 97 100 100 100 100 100 98 91 97
33 35 38 30 24 22 23 20 17 14 17 21 25 29 35 40 46 47 48 49 48 48 51 53 68 90 93 95 95 95 94 95 95 94 96 100 100 100 100 100 91 93 96
34 38 34 26 23 23 22 18 14 18 23 28 33 39 47 54 49 50 51 52 48 46 50 57 76 88 92 93 95 95 95 95 96 94 96 94 97 97 96 92 87 95 100
37 38 28 23 24 23 18 15 20 25 31 37 42 45 50 51 52 51 51 50 46 48 51 54 74 85 90 92 95 97 96 96 100 100 98 98 97 95 92 93 92 100 100
40 32 25 24 24 19 16 20 26 34 40 44 47 49 50 51 51 50 49 48 45 46 49 54 68 79 85 89 95 98 99 100 100 100 100 98 96 92 93 96 100 99 96
39 29 24 24 20 15 20 28 35 39 43 46 49 50 51 51 50 50 49 48 44 44 45 49 58 71 79 84 91 97 98 99 100 100 100 96 95 94 97 100 98 96 99
36 26 25 22 15 19 29 34 37 42 47 51 53 52 52 51 49 47 46 44 40 38 40 45 53 68 76 84 93 97 98 98 99 100 100 98 96 95 96 97 96 96 97
30 25 24 15 18 28 32 37 41 44 49 54 56 55 53 48 45 43 43 40 36 36 39 45 56 67 78 92 96 97 99 99 99 99 100 99 96 95 96 97 95 100 98

GFSGL_850_rhum_033.txt.gz
RH
70 61 52 43 35 30 28 28 29 32 41 65 74 85 88 91 99 100 100 99 74 95 79 70 77 84 80 74 78 76 59 44 50 39 43 34 22 24 23 23 23 22 20
66 63 56 47 41 34 30 33 42 46 46 62 87 99 100 100 100 100 100 100 99 84 75 80 86 80 86 87 85 84 80 73 72 47 31 23 26 23 25 23 27 24 26
67 66 61 55 48 46 42 35 51 64 64 77 99 98 99 100 100 100 100 99 88 76 79 86 88 95 97 93 91 90 94 94 80 53 30 30 30 26 28 34 38 34 23
80 74 72 63 57 45 44 41 57 95 97 100 100 98 99 100 100 100 98 85 72 78 88 92 96 98 98 91 94 97 98 66 31 38 41 45 45 38 48 55 52 40 30
95 90 79 69 63 53 54 60 84 98 100 100 100 100 100 100 100 92 75 73 83 92 98 100 100 100 99 100 99 90 34 25 26 39 51 54 67 67 85 79 72 59 54
91 86 84 81 85 80 94 100 100 100 100 100 100 100 100 100 93 83 81 92 98 99 100 100 100 100 100 94 32 26 28 23 30 68 70 68 88 74 77 74 74 94 100
98 96 96 95 96 99 100 100 100 100 100 100 100 100 98 95 97 97 100 100 100 100 100 100 99 88 33 28 27 24 22 29 42 80 89 77 95 92 76 85 93 96 86
98 99 98 100 99 99 100 100 100 100 100 100 99 100 100 100 100 100 100 100 100 99 100 88 35 28 26 23 17 14 19 35 54 70 87 89 73 74 100 100 88 97 94
100 99 97 98 98 99 100 100 100 100 100 100 99 100 100 98 99 100 100 100 99 58 27 29 28 28 17 12 18 34 59 76 83 78 60 54 67 64 67 76 78 89 91
99 99 98 99 100 100 99 100 100 100 99 99 99 99 99 100 99 97 46 30 29 28 30 28 17 10 14 29 98 100 98 80 55 38 41 43 52 66 74 81 86 88 94
99 97 94 99 99 99 99 99 99 99 99 99 100 99 91 61 42 35 27 22 25 23 17 16 25 37 62 100 100 96 70 84 65 49 42 58 69 72 74 79 85 90 91
99 99 99 99 100 100 100 100 99 94 76 51 39 34 33 37 34 31 34 31 19 16 26 39 52 77 96 84 69 49 40 47 40 47 67 69 70 73 75 79 81 83 87
100 98 94 86 73 55 41 37 36 36 34 30 28 28 30 29 28 25 19 18 30 37 42 53 71 66 52 41 38 39 40 44 61 74 74 74 76 76 77 78 80 82 78
66 60 50 38 35 36 37 36 34 30 25 23 23 22 22 18 18 24 35 39 37 43 46 46 39 36 36 40 42 44 50 70 77 78 78 80 80 80 82 86 83 82 74
54 41 34 36 38 37 35 31 27 23 22 21 19 16 16 20 27 38 35 44 50 49 33 36 37 39 40 41 45 57 76 79 81 85 87 86 85 85 83 86 85 81 82
42 33 35 36 36 34 28 23 22 22 20 16 13 13 18 23 28 33 34 36 40 40 37 39 41 42 42 47 63 76 82 84 86 88 89 88 87 86 83 83 86 86 84
34 33 35 36 35 28 24 22 22 21 19 16 14 19 26 29 32 35 38 41 47 40 40 43 44 45 51 70 82 82 82 86 89 91 91 90 91 90 87 88 93 95 87
32 34 36 38 30 24 23 23 21 19 16 14 18 22 26 29 34 41 47 47 43 43 42 45 46 52 68 85 84 86 87 89 91 93 92 92 94 96 93 93 100 100 92
33 35 38 35 26 23 22 22 20 16 13 16 21 27 30 35 42 48 48 44 43 43 42 44 49 59 85 90 90 91 92 92 94 94 94 94 99 100 94 96 100 97 95
33 37 39 31 25 22 23 21 16 13 16 21 26 31 36 38 44 45 46 45 44 43 41 45 55 72 90 92 90 90 89 91 94 95 94 96 96 96 95 96 95 96 88
34 37 37 28 23 23 22 17 13 16 22 28 34 39 44 46 47 46 45 46 46 45 44 45 52 69 86 89 89 88 90 91 95 99 100 98 96 94 94 95 94 95 93
34 38 33 25 23 23 19 13 17 24 31 35 40 44 47 49 51 50 49 48 47 46 45 42 47 59 75 82 85 86 89 92 97 100 100 98 96 94 94 93 94 94 97
35 38 30 24 23 20 13 17 26 32 36 40 44 46 47 49 49 49 48 48 47 46 44 42 44 50 61 71 79 82 90 95 100 100 100 97 95 95 94 94 96 98 100
36 36 28 23 22 14 16 26 32 36 40 44 47 49 49 48 48 48 47 46 44 43 41 41 43 47 54 65 73 82 96 100 100 98 100 98 92 91 97 99 98 97 98
37 35 25 23 15 14 24 31 36 40 43 44 46 47 49 50 47 45 44 42 40 38 37 38 42 47 55 65 77 93 97 99 99 98 97 98 100 98 97 96 96 97 94
37 31 23 20 13 21 28 33 40 47 52 53 51 48 46 43 42 42 40 38 36 35 36 39 45 53 65 80 93 96 97 97 98 98 98 97 97 96 97 97 95 96 97

GFSGL_850_rhum_036.txt.gz
RH
68 66 62 57 51 45 39 35 35 38 39 44 54 68 79 77 89 99 100 99 100 100 100 100 99 95 84 66 70 82 80 69 74 85 74 62 80 94 78 26 26 28 20
69 68 65 59 54 47 42 38 39 41 45 47 55 93 99 100 100 100 100 100 100 100 100 100 100 94 74 80 82 83 91 98 93 92 97 97 96 94 70 26 25 18 18
75 69 67 67 61 57 51 54 60 65 76 75 88 99 98 99 100 100 100 100 100 100 100 100 86 75 89 89 94 96 99 98 99 100 99 97 72 30 27 23 29 35 26
89 88 83 78 72 68 64 61 60 61 60 89 93 94 99 98 100 100 100 100 100 100 100 94 94 95 94 96 100 100 99 99 99 99 94 56 38 35 29 43 66 81 77
96 92 87 85 85 86 84 76 75 66 62 68 96 99 99 98 100 100 100 100 100 100 94 91 94 97 99 99 100 100 99 99 98 59 44 42 64 90 84 86 90 85 80
93 93 90 91 90 99 100 98 98 97 78 65 81 98 100 99 99 100 100 94 88 88 88 95 99 100 100 100 99 100 95 56 35 54 70 92 83 85 89 89 92 94 94
95 95 94 94 93 90 94 99 99 98 98 98 100 100 99 99 96 93 92 87 92 100 100 100 100 100 100 99 87 33 27 28 27 87 97 90 90 92 99 86 98 100 100
95 95 95 95 94 99 99 99 98 98 99 99 100 100 100 100 99 100 100 100 100 100 100 100 100 96 64 28 27 22 19 15 30 55 86 98 98 97 96 98 98 100 100
99 99 97 97 95 95 95 96 98 99 100 100 99 100 100 99 99 100 99 99 100 98 86 40 29 27 24 20 19 20 30 73 95 76 66 54 49 54 63 93 86 100 100
100 100 100 100 98 95 98 99 99 99 98 100 98 98 99 98 99 100 97 80 36 29 28 25 19 14 18 32 63 97 96 80 80 52 94 73 39 43 61 71 80 90 98
97 98 97 99 100 99 100 100 100 98 98 98 98 98 93 69 36 27 29 32 29 25 17 14 25 28 28 40 67 81 71 57 58 48 38 45 64 68 72 78 80 86 88
89 90 93 99 98 98 99 100 99 92 70 49 38 34 32 43 40 31 23 19 16 18 23 24 25 30 31 35 52 60 48 40 52 42 52 72 80 75 77 79 83 86 87
87 84 77 58 44 39 37 37 36 34 30 26 25 26 29 29 26 22 19 20 24 24 28 35 36 41 45 40 35 35 36 37 44 63 73 74 77 77 78 79 78 80 80
51 40 33 33 34 35 34 32 27 23 22 22 21 21 20 16 16 19 28 33 32 40 42 39 37 36 34 36 36 36 40 54 72 77 78 76 78 78 77 81 82 83 80
38 31 32 33 33 32 28 23 22 20 19 18 16 14 15 18 23 23 27 59 90 74 40 39 38 39 42 42 42 50 67 76 79 82 82 82 82 82 80 84 84 85 85
34 31 33 33 32 28 23 22 21 20 18 16 13 14 19 24 27 34 40 41 41 43 41 38 40 39 39 42 57 76 82 85 86 87 89 90 89 89 86 86 87 93 96
33 32 33 34 31 24 22 21 22 20 19 16 14 18 22 27 29 33 37 40 42 40 38 40 41 43 46 59 80 83 84 88 90 91 92 92 93 91 92 88 88 92 90
31 32 33 34 28 23 22 22 21 20 17 15 17 21 25 29 33 36 41 45 45 45 44 43 46 48 55 76 86 85 86 88 91 94 94 93 94 94 92 91 92 95 95
31 32 34 33 25 22 22 21 20 16 14 17 21 25 29 33 38 43 47 46 45 46 45 44 46 51 60 79 84 84 83 85 90 94 95 95 96 98 96 95 95 95 96
31 33 35 31 25 22 21 21 17 13 16 21 27 32 35 38 46 49 48 47 46 46 47 46 47 52 60 77 83 83 82 84 87 93 95 97 97 98 96 96 95 95 93
32 33 36 30 24 21 21 19 13 15 22 28 33 37 41 45 44 46 47 48 47 47 48 45 42 46 53 67 77 79 80 80 84 90 95 96 97 97 95 96 97 95 94
32 34 36 28 23 22 21 13 14 22 28 32 36 38 40 42 44 46 47 46 44 44 43 40 37 40 46 54 62 68 72 76 80 93 95 96 98 97 98 99 98 96 95
33 36 36 28 23 22 14 13 21 27 30 34 37 40 42 43 43 44 43 42 41 40 40 38 36 38 42 47 52 59 67 73 86 98 99 99 99 99 99 98 97 95 93
34 37 36 27 23 20 12 18 25 29 33 35 36 39 41 42 44 43 42 40 39 38 36 35 35 37 41 46 52 60 68 86 97 99 100 99 99 96 94 93 94 96 94
34 38 36 26 23 14 14 23 27 32 38 42 45 44 42 41 41 40 40 38 36 34 34 35 37 40 44 51 62 77 93 97 100 99 96 96 95 96 97 98 94 95 100
35 38 34 24 21 13 19 25 30 40 50 55 59 58 57 54 50 45 41 38 37 36 37 40 45 54 64 77 89 95 96 98 99 98 98 98 97 97 98 99 98 99 97

GFSGL_850_rhum_039.txt.gz
RH
66 66 74 83 84 74 54 48 43 38 37 46 75 96 98 100 100 98 99 100 100 100 100 100 100 100 100 100 96 96 89 95 87 83 85 64 51 70 85 91 97 97 91
77 76 85 88 93 98 66 53 55 55 56 58 60 67 77 97 99 97 100 100 100 99 100 100 100 100 100 100 99 98 100 90 84 94 77 86 99 99 98 100 98 63 29
83 82 85 87 93 95 72 65 65 71 71 71 76 84 80 88 86 98 99 99 100 100 100 100 100 100 100 100 99 94 90 92 94 97 98 99 100 100 100 94 77 35 20
92 91 91 92 86 80 75 73 72 71 74 82 78 71 65 71 78 94 98 100 100 100 100 100 100 100 99 93 90 94 98 100 100 100 100 99 98 96 79 34 26 36 40
93 90 95 92 88 86 87 88 85 82 88 90 86 89 99 99 100 100 100 99 100 100 100 100 100 99 98 98 98 97 99 100 100 100 99 96 63 55 49 66 82 74 61
96 98 98 98 93 87 89 91 98 99 99 100 100 100 100 100 100 99 98 99 100 100 100 100 99 100 99 100 100 100 100 98 98 96 50 36 60 82 82 86 86 80 72
98 97 94 91 91 80 85 88 95 99 100 100 99 100 97 97 92 95 97 98 98 99 100 100 100 100 99 100 100 99 91 45 26 31 66 88 91 86 87 84 74 73 67
97 96 92 87 89 93 99 100 100 100 98 98 98 94 93 96 100 100 99 100 100 100 99 100 100 100 98 78 38 22 20 20 24 47 74 82 87 93 92 91 88 82 72
98 94 90 90 93 93 93 95 98 99 97 95 96 98 97 98 100 100 98 99 99 99 99 97 58 29 24 19 14 15 34 60 94 90 69 55 48 39 37 48 43 61 65
96 95 94 92 92 96 96 97 98 95 92 92 92 95 95 95 98 97 98 90 46 27 28 28 20 12 11 16 24 82 99 99 95 74 65 82 71 35 36 47 58 66 86
91 94 94 90 90 95 96 98 94 93 94 94 90 78 68 52 26 22 24 30 26 24 21 19 21 25 31 40 50 65 82 66 47 48 60 50 51 66 73 76 77 80 81
87 91 91 90 89 94 92 91 75 54 37 32 28 27 28 28 25 22 17 14 13 16 25 31 37 28 30 33 41 51 40 32 30 36 41 54 74 78 77 74 74 77 80
77 68 59 52 41 38 36 35 33 30 27 24 24 25 23 21 17 15 14 18 21 25 26 26 31 36 35 31 28 27 29 31 35 45 65 80 82 76 76 78 76 77 76
47 36 33 35 34 33 30 27 23 22 21 21 20 20 17 14 15 18 24 32 36 46 70 63 33 31 29 28 31 32 33 40 55 71 76 77 77 78 78 81 81 80 81
34 31 32 32 32 29 24 21 19 18 18 16 15 13 12 21 20 19 22 28 36 51 35 41 42 44 41 43 41 42 56 73 80 81 78 77 80 84 84 87 87 89 91
32 30 30 30 29 25 22 19 18 18 17 16 12 11 12 15 18 22 26 31 35 39 40 55 59 61 58 59 56 64 80 82 82 81 84 87 88 88 88 87 88 90 88
32 30 30 30 28 23 21 20 19 17 17 12 11 12 16 22 26 29 34 38 42 43 44 53 49 51 52 53 59 73 78 82 86 87 87 87 89 88 89 88 87 89 89
30 30 31 31 28 23 20 20 21 20 17 15 13 17 20 25 29 32 36 40 48 58 47 43 42 44 45 49 59 75 78 82 84 86 88 90 91 91 90 90 92 96 98
31 30 31 31 28 23 20 21 20 18 12 13 17 22 26 30 34 38 42 44 44 44 44 42 41 40 41 47 58 74 80 82 83 83 84 86 90 93 92 93 95 97 100
32 30 31 33 28 23 21 21 20 13 12 16 22 28 31 34 49 60 55 46 44 44 44 43 42 40 38 43 52 66 74 76 77 79 82 84 91 96 98 97 96 97 96
32 30 32 34 29 23 21 21 17 12 15 22 26 29 33 36 39 43 41 42 43 42 41 42 40 37 36 40 45 53 59 63 66 70 75 80 94 99 99 97 96 95 95
35 31 33 34 29 23 22 22 13 14 21 24 27 29 31 34 36 37 38 39 40 40 40 40 38 36 36 39 43 46 50 53 59 67 74 91 99 100 98 96 96 95 95
36 32 34 35 30 23 22 17 12 19 23 26 28 30 31 32 36 37 38 38 38 39 40 39 36 34 36 39 42 44 48 54 64 78 96 97 97 97 96 96 95 93 92
37 33 35 36 30 24 22 13 14 22 25 29 33 36 37 36 36 36 36 37 37 37 36 35 34 35 37 40 44 50 61 77 93 96 97 97 97 94 91 89 90 96 98
38 34 36 36 31 24 21 13 19 23 29 35 40 44 48 48 46 44 42 39 38 36 35 36 38 41 46 56 70 85 95 98 97 96 95 95 93 94 99 100 100 98 99
40 34 37 38 31 24 17 14 21 25 34 41 46 49 50 49 51 51 50 49 49 48 48 52 58 68 80 90 97 99 98 97 96 98 99 100 99 97 96 97 98 99 98

GFSGL_850_rhum_042.txt.gz
RH
71 71 75 87 90 97 81 61 53 50 47 44 44 55 75 97 98 99 99 100 100 100 99 99 99 99 100 99 100 100 100 98 89 89 100 98 97 96 78 84 67 75 98
81 80 83 90 97 99 99 72 58 56 57 55 55 58 72 97 100 100 99 97 99 98 99 100 100 100 100 100 100 100 100 100 99 100 99 99 95 95 84 83 99 100 99
86 87 90 87 87 95 87 76 69 66 64 66 64 58 60 74 84 84 79 71 96 96 98 99 99 100 100 100 100 100 100 99 99 98 99 100 99 98 99 100 100 100 95
88 87 89 87 88 87 86 84 81 78 74 74 77 81 79 84 85 94 99 98 98 100 98 99 100 99 99 100 100 100 98 97 100 100 100 100 100 100 99 99 80 39 30
95 89 95 93 91 90 84 86 88 87 92 88 94 92 91 94 100 99 97 99 99 99 99 100 100 97 98 99 99 100 100 100 100 100 99 99 98 94 66 40 38 44 51
96 95 97 95 91 88 86 87 89 89 94 100 99 99 99 98 98 92 93 97 100 99 99 98 100 100 100 100 100 100 100 100 100 100 99 96 53 50 63 76 77 74 52
93 92 93 90 96 94 95 93 84 82 91 94 93 94 93 92 92 91 92 92 95 99 100 99 98 99 100 100 100 98 98 98 70 42 32 54 71 85 81 79 75 68 44
96 96 95 96 97 100 100 95 92 91 91 90 92 91 89 92 98 99 99 99 98 98 99 98 98 98 98 99 95 62 33 22 36 50 52 48 53 54 64 67 56 44 40
99 97 95 96 96 96 94 95 92 89 90 88 89 89 90 91 97 95 97 96 99 100 99 97 80 53 33 23 21 22 40 63 83 86 76 60 45 37 40 39 33 41 37
98 97 94 92 91 88 88 87 88 87 86 88 87 88 89 92 94 87 64 32 25 24 28 25 22 21 18 28 39 46 74 86 80 77 64 43 45 36 36 54 52 61 67
86 85 84 87 89 90 91 92 90 78 61 42 28 27 27 23 21 19 17 18 18 21 25 28 25 26 27 28 28 37 51 55 51 44 33 33 36 47 67 72 73 75 74
82 81 81 79 76 65 59 46 32 28 24 22 21 21 20 21 18 14 12 14 17 22 26 30 33 29 30 29 29 31 33 34 31 31 34 39 57 66 70 76 75 76 77
57 43 38 35 32 33 31 30 27 23 21 20 18 17 17 15 14 15 18 19 21 22 26 26 28 32 31 28 28 27 28 29 30 34 46 64 71 72 71 74 77 74 72
37 30 29 30 30 30 27 23 20 19 19 18 16 15 13 13 15 19 21 24 26 33 37 39 33 34 32 34 35 36 35 37 46 60 68 69 70 74 77 80 81 82 83
30 28 28 28 27 25 22 19 18 18 17 16 15 12 12 13 15 15 18 20 23 27 28 31 33 36 35 35 39 40 44 58 68 71 70 70 74 77 79 83 85 88 96
30 27 28 27 26 23 20 18 17 17 17 16 12 11 11 14 17 21 24 26 30 33 34 37 36 36 38 37 38 40 51 65 70 72 75 79 80 82 82 84 88 91 92
33 26 27 28 27 24 21 18 17 17 16 13 11 12 15 19 22 25 27 30 32 36 40 38 38 37 35 37 40 45 57 73 76 78 79 79 82 86 92 92 92 94 91
37 28 28 28 28 25 21 19 19 18 16 12 11 16 20 24 27 29 31 32 35 40 41 40 38 39 37 38 41 48 59 73 76 78 80 81 83 85 89 95 96 98 95
41 30 28 28 29 27 22 20 19 18 14 11 14 22 25 25 28 32 36 39 37 38 39 39 40 39 38 38 40 46 53 64 73 76 77 78 78 81 82 93 99 98 99
45 34 28 28 30 29 23 20 19 18 11 12 19 24 26 27 29 32 40 41 39 38 38 37 36 37 38 38 39 42 46 50 56 60 61 64 69 75 82 98 97 97 96
52 40 29 29 30 30 24 21 20 16 11 16 22 25 26 27 29 30 32 35 38 38 38 37 36 37 38 37 38 40 42 45 48 50 54 60 68 80 97 98 97 98 98
67 46 32 30 30 31 26 22 20 13 12 20 22 25 27 28 28 29 32 35 37 37 37 36 34 35 36 38 39 40 42 43 47 54 63 77 94 96 96 96 96 98 99
74 50 34 31 31 32 27 22 21 12 15 21 24 27 30 31 32 32 32 32 32 33 34 34 34 32 36 38 40 42 46 54 68 85 95 98 100 100 100 99 99 98 96
97 54 37 32 32 34 29 22 20 12 18 22 27 32 34 36 38 37 35 34 33 32 33 35 36 40 44 48 54 66 81 94 98 98 100 99 98 98 98 95 93 91 92
91 54 39 33 34 35 30 23 17 13 18 22 30 36 39 40 41 43 45 46 47 45 48 52 56 63 70 79 89 96 98 98 98 97 96 96 93 91 92 96 94 94 95
77 54 41 35 35 36 32 24 16 14 19 24 34 41 45 49 57 66 74 75 73 73 73 76 80 88 93 94 96 96 99 100 98 97 96 98 98 98 99 98 96 98 99

GFSGL_850_rhum_045.txt.gz
RH
68 69 70 76 89 91 94 81 63 53 49 48 47 46 47 58 81 79 74 88 95 93 96 91 94 97 100 99 100 88 100 100 100 100 100 100 98 98 99 99 100 100 94
73 79 79 81 90 97 96 88 74 61 55 53 53 50 47 50 62 96 98 100 100 93 92 91 99 99 97 98 100 99 99 100 100 100 100 99 100 100 100 99 99 93 97
80 83 82 81 84 87 84 86 82 75 72 68 65 65 62 58 55 68 76 74 82 96 100 100 100 100 100 95 99 100 100 99 99 99 100 100 100 100 100 99 100 98 100
82 84 86 86 85 87 89 89 87 84 79 79 81 77 76 73 72 78 78 88 85 99 99 98 98 98 99 98 99 100 99 99 100 100 100 100 100 99 99 100 99 100 99
92 90 86 86 93 91 88 87 87 87 83 87 85 80 80 81 78 81 87 92 98 100 97 99 99 99 98 98 100 100 100 100 100 100 99 100 100 100 100 99 92 59 42
92 93 96 95 92 88 86 87 88 91 96 96 93 91 90 85 83 84 84 87 95 96 96 98 99 100 99 99 100 99 100 100 100 100 100 100 100 98 76 54 50 48 52
99 96 91 91 91 87 84 85 88 95 96 89 86 82 80 82 86 85 90 88 91 95 95 98 98 99 100 99 99 99 99 98 98 96 85 64 54 55 56 63 68 68 70
94 93 94 93 89 87 98 96 96 96 90 86 83 84 82 85 86 86 89 88 90 95 98 97 97 100 100 99 98 86 63 46 36 36 46 53 53 60 65 64 60 58 50
91 88 88 88 89 93 96 96 92 86 83 82 82 85 86 87 92 91 83 86 84 89 80 59 44 28 21 18 16 18 27 43 54 73 75 69 67 69 86 66 52 48 40
83 79 81 89 91 88 88 85 83 82 80 74 64 55 45 28 21 19 19 20 20 19 16 15 16 14 18 22 22 29 38 60 84 93 91 85 56 43 54 51 50 62 76
78 74 82 88 85 85 84 80 59 33 24 22 21 21 22 19 17 15 12 11 11 13 16 20 26 27 26 28 31 36 48 66 45 44 38 31 38 40 52 70 73 73 72
79 81 82 78 67 56 41 29 25 21 19 18 20 19 18 16 13 13 13 14 14 17 22 28 33 33 32 32 32 32 30 32 32 30 30 34 43 58 66 71 74 75 78
64 50 45 39 32 28 26 23 20 18 17 18 18 17 16 14 14 16 17 17 19 22 27 30 36 39 37 32 31 32 33 33 32 34 41 57 68 68 69 70 72 74 75
37 32 29 29 27 26 24 21 19 18 17 16 15 13 11 11 12 15 18 20 23 25 25 27 29 34 37 36 35 37 38 40 46 57 68 70 71 72 74 77 76 76 72
32 28 28 28 28 26 22 20 18 17 17 16 14 11 10 11 14 16 20 22 25 28 28 30 31 33 33 34 38 41 42 52 65 72 74 74 75 77 78 79 79 77 78
32 27 27 27 27 25 21 20 18 18 18 16 13 10 10 14 17 20 24 27 29 32 33 36 35 35 36 37 38 39 43 48 63 74 75 79 79 78 78 79 82 84 83
37 28 26 27 27 26 23 20 19 18 17 16 11 10 13 18 22 24 26 28 30 32 34 36 36 37 37 37 38 39 42 49 67 74 75 77 78 78 80 79 80 86 87
44 35 28 27 28 28 25 21 19 18 18 16 11 11 17 20 22 25 28 31 34 36 36 36 36 37 38 37 36 37 40 45 56 67 72 74 74 74 74 75 77 83 92
52 42 31 28 28 28 28 22 20 19 18 14 10 15 19 21 24 28 29 32 31 32 35 36 38 37 37 37 36 36 38 41 46 51 57 60 61 63 65 69 73 87 98
65 52 40 30 29 29 29 24 21 19 19 12 12 17 19 21 23 25 26 28 30 31 32 33 34 35 36 36 36 36 36 38 41 45 48 50 53 57 62 74 92 95 92
68 86 55 34 30 30 31 27 22 20 19 11 14 18 20 22 23 23 24 27 29 30 32 32 32 32 33 34 34 34 35 37 41 44 47 52 60 74 92 96 96 96 96
73 98 94 42 31 31 32 30 24 20 18 11 16 20 23 25 26 27 26 27 28 30 31 30 29 30 32 32 33 34 37 40 47 58 71 87 97 97 96 97 97 98 98
90 100 97 52 35 32 32 32 26 21 17 12 18 22 27 29 29 30 31 31 30 30 32 32 32 33 37 39 42 46 52 65 86 98 97 96 95 95 98 97 96 94 94
100 100 98 90 40 33 33 33 28 22 16 13 19 25 31 34 35 37 41 44 46 49 51 52 55 56 58 61 68 80 93 98 98 96 99 98 93 91 91 93 95 97 97
99 99 99 97 43 34 35 35 30 24 16 14 20 28 36 41 45 52 63 70 74 75 77 79 81 80 82 84 90 94 96 98 98 97 95 93 90 89 91 96 96 95 95
98 99 99 86 45 36 35 36 31 25 15 15 21 31 41 48 55 64 72 77 79 80 82 84 87 90 92 94 96 96 98 100 100 100 98 98 99 100 100 100 97 98 98

GFSGL_850_rhum_048.txt.gz
RH
68 66 67 72 77 82 88 77 77 68 58 55 54 52 50 49 48 48 54 61 66 78 79 92 96 96 86 91 94 90 96 99 100 100 98 88 96 100 100 100 100 100 100
73 71 74 78 82 87 92 78 78 77 69 64 61 58 55 52 52 53 56 64 73 96 95 92 99 98 97 98 99 100 100 100 100 98 99 99 98 100 100 100 100 99 100
80 79 80 80 81 83 87 85 81 80 77 73 71 71 69 67 64 62 60 58 66 73 77 93 99 97 98 98 99 98 99 99 100 99 98 100 100 100 100 100 100 99 100
84 81 82 85 87 86 87 86 86 83 79 80 80 81 78 74 71 69 75 78 82 91 100 98 97 95 94 93 96 99 100 100 99 100 100 100 100 99 100 100 99 100 99
92 88 87 88 89 92 91 86 84 85 82 80 78 75 77 75 76 80 83 82 85 95 99 94 97 93 97 95 97 100 100 99 100 100 99 100 100 100 100 100 100 98 98
100 100 100 99 96 94 88 87 89 89 88 83 82 82 81 77 77 77 79 81 85 89 88 90 96 95 95 96 95 98 99 100 100 100 100 100 100 100 99 98 94 68 63
100 98 99 100 94 89 89 89 88 86 83 82 80 80 80 78 79 78 80 82 86 88 90 92 94 97 99 98 99 100 97 98 96 98 97 94 86 66 64 70 64 70 69
100 100 98 96 95 93 92 88 86 84 82 80 77 76 75 76 80 80 81 85 84 85 88 88 89 90 90 87 86 65 46 39 31 31 37 47 53 55 58 59 63 66 62
98 98 97 96 96 93 90 88 83 80 78 77 75 75 66 44 28 18 17 18 19 19 19 18 16 15 13 12 12 14 19 28 45 56 52 66 71 68 66 58 61 64 45
84 94 93 93 93 90 84 80 79 79 62 40 27 20 17 16 14 13 11 12 12 11 11 12 14 17 19 20 18 21 23 30 41 54 61 65 68 54 39 48 58 49 63
74 80 82 85 85 85 81 74 45 26 22 20 18 17 16 14 12 10 9 11 12 13 16 19 22 20 20 22 24 24 27 28 26 30 29 30 30 36 40 46 63 75 80
71 74 83 86 82 70 42 26 22 20 19 17 16 15 13 11 11 12 14 15 14 18 24 25 27 24 24 26 29 30 31 28 29 29 30 35 38 46 61 71 76 80 82
63 65 60 56 41 26 24 23 21 19 17 17 16 15 12 10 10 12 16 17 21 22 24 28 34 35 36 35 34 32 32 33 33 35 36 46 61 70 70 72 73 75 78
36 31 33 32 26 25 24 22 20 18 17 16 15 13 10 9 10 13 16 19 23 26 29 32 33 33 38 38 36 37 39 40 44 51 62 69 72 73 71 74 74 76 77
28 26 25 26 27 26 24 21 18 18 17 16 15 12 9 10 12 15 18 21 24 28 38 36 36 34 33 32 33 36 39 43 49 57 65 70 72 76 76 79 79 78 81
31 25 24 25 26 26 24 20 18 17 18 16 16 11 9 11 15 18 21 24 28 32 34 36 38 34 32 32 32 32 35 38 46 56 72 74 76 77 76 76 76 78 77
40 31 26 26 26 26 25 23 21 20 18 17 16 10 10 14 18 20 20 24 28 30 31 33 33 33 33 33 32 31 30 36 43 53 65 71 74 76 76 72 71 72 72
50 41 33 27 27 28 27 26 23 20 19 18 17 11 12 16 18 18 19 20 26 31 30 30 30 32 32 32 33 33 32 33 38 44 50 57 64 64 63 61 61 64 68
66 52 43 34 29 30 29 29 25 22 20 19 17 11 14 17 18 19 20 21 24 27 29 30 31 30 30 30 30 30 30 31 33 37 41 45 48 52 52 54 58 64 78
78 68 57 45 34 30 30 30 28 24 21 19 17 11 16 17 18 20 21 22 24 25 27 27 28 29 28 27 28 28 28 30 32 35 39 42 45 49 52 60 75 92 93
91 86 98 80 54 34 32 32 31 26 22 20 17 12 16 18 21 21 22 23 24 25 26 26 26 27 28 28 28 29 29 31 34 38 41 46 55 69 88 95 96 97 97
100 100 85 91 97 77 34 33 32 29 24 21 17 13 18 22 26 26 26 26 27 27 27 24 25 26 28 30 32 34 36 39 46 56 67 83 95 96 96 96 97 98 96
100 100 98 88 98 90 42 35 34 32 27 22 17 13 18 24 30 31 32 33 35 37 41 42 43 44 49 52 55 56 59 67 79 90 94 95 95 95 97 96 96 95 94
100 99 97 97 99 97 90 48 36 34 29 24 17 14 18 26 31 36 40 46 57 67 73 75 75 74 76 79 81 88 94 95 98 98 99 97 96 96 97 98 97 95 95
99 99 99 98 98 98 97 46 38 35 32 25 17 14 18 26 33 40 48 58 67 73 80 84 85 86 87 89 93 96 98 100 100 98 96 94 93 92 95 96 93 92 93
99 99 98 98 98 98 96 87 38 36 33 26 16 14 18 26 36 44 54 62 68 75 81 84 85 85 86 88 94 98 98 100 100 100 100 99 98 98 97 97 96 97 95

GFSGL_850_rhum_051.txt.gz
RH
68 68 65 67 71 76 83 84 80 75 76 65 61 59 57 55 54 54 55 59 66 73 76 79 86 90 99 98 99 98 97 98 99 98 98 98 98 99 100 99 100 100 100
74 72 71 73 78 83 87 88 82 78 78 74 69 64 60 58 56 55 55 54 55 65 83 96 95 99 99 98 99 96 97 95 100 99 98 100 100 100 99 99 100 100 100
80 80 78 79 81 83 83 85 83 80 79 76 74 72 70 69 66 63 63 64 64 64 68 72 77 88 97 98 97 95 95 91 92 100 99 99 99 100 99 100 100 100 99
84 88 84 83 85 87 86 86 86 85 85 82 80 78 76 73 71 70 71 76 81 83 89 92 94 96 93 90 88 88 88 95 98 99 99 100 100 100 99 99 99 100 99
98 94 90 89 87 91 94 91 88 88 85 83 84 81 79 77 74 75 77 80 84 87 90 96 98 98 94 93 93 92 94 94 99 99 98 99 99 99 98 99 99 98 98
99 100 100 100 99 94 94 93 90 90 88 90 89 83 77 72 70 70 73 74 75 77 80 85 88 91 93 95 98 99 96 98 100 100 99 99 99 97 97 97 98 97 85
99 100 100 100 100 100 95 94 92 92 88 85 80 76 72 69 70 69 71 73 73 76 81 87 90 91 94 96 95 93 91 90 91 92 91 92 90 77 69 60 58 59 58
100 100 100 100 100 100 98 99 91 86 83 79 73 72 72 65 49 29 21 16 14 16 17 17 20 21 17 14 14 15 16 19 23 23 25 32 40 46 51 52 51 51 50
99 100 100 100 100 100 100 90 85 80 75 74 64 39 19 14 14 12 10 9 8 8 8 10 11 13 15 12 15 15 18 20 31 41 51 65 67 67 72 58 47 37 40
92 90 98 100 100 99 89 81 77 76 57 26 17 16 14 12 10 8 7 7 8 8 10 12 15 16 17 18 16 20 22 24 30 40 52 58 58 52 50 42 43 49 55
74 85 91 92 92 84 80 77 52 25 19 17 15 14 12 10 9 8 8 9 11 12 14 16 19 20 19 20 22 22 27 29 28 25 24 24 26 29 35 39 44 61 72
72 78 77 74 76 79 67 32 22 18 18 17 15 12 11 9 8 9 10 12 13 15 18 20 22 21 21 23 24 26 27 26 26 25 26 29 32 35 44 57 66 68 71
70 72 71 70 65 43 24 24 19 18 17 14 15 13 11 9 10 10 12 15 17 17 20 22 25 26 26 27 29 29 26 29 30 31 33 37 46 57 63 65 67 68 69
62 57 49 43 32 24 22 21 19 18 15 15 15 14 11 9 10 12 14 17 19 22 24 26 29 29 28 29 30 30 30 32 35 39 49 59 66 68 67 68 69 73 72
48 39 33 29 27 26 24 22 20 17 16 15 15 15 11 9 10 13 16 18 20 22 23 26 28 30 29 29 29 29 30 33 35 39 43 51 64 69 72 76 77 76 76
42 33 28 26 26 26 26 23 19 17 16 17 16 16 11 9 12 15 17 20 21 26 25 24 26 28 29 28 28 28 29 30 33 36 43 56 65 67 68 71 74 75 73
44 34 29 26 26 26 25 24 21 20 19 18 17 17 11 10 14 16 16 17 19 22 24 26 27 28 28 28 29 28 27 29 29 32 38 45 52 58 64 67 65 63 61
56 46 38 30 27 28 27 26 27 24 22 20 19 18 13 11 15 17 17 17 20 24 24 25 25 26 26 26 27 27 27 27 28 30 32 36 40 45 49 51 52 53 55
78 65 51 42 35 30 30 30 29 29 25 22 20 19 15 12 15 17 18 17 18 20 22 22 23 22 23 23 24 26 27 26 28 29 30 33 37 41 42 45 48 52 61
92 85 75 61 49 40 32 31 31 30 29 24 21 20 17 12 15 18 20 18 18 19 20 20 21 22 24 25 25 25 26 28 29 31 33 36 39 44 46 52 65 84 96
97 98 93 98 64 61 49 36 33 33 31 28 24 22 19 12 16 19 22 22 22 22 22 21 21 22 24 25 26 27 29 31 35 38 42 46 53 65 83 96 98 97 97
98 99 100 100 100 100 98 77 46 35 34 31 27 23 20 13 16 20 25 27 28 29 29 30 32 36 39 40 42 44 49 53 59 67 72 80 91 98 100 99 99 98 96
99 100 100 100 100 100 98 97 83 40 36 34 30 24 22 14 16 21 27 32 35 39 48 57 63 67 74 76 79 82 82 82 86 91 94 95 97 98 100 100 97 95 95
94 100 100 100 100 99 98 98 98 95 56 36 32 26 23 15 16 20 28 35 41 49 57 65 70 72 75 80 84 89 94 95 97 98 100 100 98 98 99 98 95 93 93
97 100 100 99 99 98 98 97 98 98 80 42 40 29 24 15 16 21 31 39 45 51 57 66 72 77 80 80 77 79 82 91 97 100 98 95 92 92 95 94 90 90 92
91 98 99 99 99 98 97 98 98 98 96 90 39 30 24 15 16 20 30 40 47 53 58 66 74 81 82 76 76 79 82 89 95 100 100 100 100 99 100 98 96 96 94

GFSGL_850_rhum_054.txt.gz
RH
62 62 65 67 65 66 71 76 77 76 71 74 67 61 60 59 57 58 59 63 69 76 83 83 80 86 99 97 98 98 97 94 95 93 91 89 86 90 94 93 98 98 92
65 68 70 71 72 76 81 84 83 83 79 76 74 69 66 64 62 61 60 60 60 63 66 73 85 84 94 99 98 98 95 93 94 91 87 86 90 88 94 98 98 99 99
68 71 76 77 78 81 83 84 85 83 81 80 78 77 75 73 71 69 68 68 69 69 70 75 80 84 89 95 95 94 93 92 86 90 100 96 90 99 98 98 98 100 100
71 74 83 86 85 86 87 87 87 87 87 86 83 81 78 74 74 74 75 77 78 80 84 86 89 91 91 88 86 83 88 90 88 94 95 94 94 98 99 99 100 100 98
82 95 96 94 92 90 93 95 95 92 89 85 82 80 77 75 75 77 78 80 82 82 81 82 82 85 86 86 87 86 88 89 97 100 99 99 99 99 99 99 99 99 98
98 99 100 100 100 100 98 99 98 94 92 90 89 83 77 73 69 72 73 74 73 73 74 76 79 81 83 84 85 86 86 89 91 93 97 98 97 97 96 95 92 89 84
100 99 99 100 99 100 100 100 100 98 98 94 87 81 76 73 75 74 72 62 46 38 35 30 28 32 26 19 17 21 34 31 24 26 34 40 48 48 48 43 43 42 42
100 100 100 100 99 100 100 100 100 99 94 88 80 78 76 63 29 13 12 10 9 8 7 7 8 10 10 10 10 12 14 16 16 20 25 32 40 47 47 46 46 43 38
100 100 100 99 99 99 100 100 97 89 84 77 72 39 16 13 11 9 7 6 6 6 7 9 10 13 14 10 13 14 16 17 21 25 30 43 56 69 68 48 47 40 27
99 100 100 100 100 100 99 92 83 78 74 42 17 14 12 10 8 6 6 7 8 9 10 12 15 15 15 17 15 16 18 20 22 29 32 28 25 27 29 28 30 34 37
90 94 98 100 100 96 82 76 76 49 21 15 14 13 11 9 9 8 8 9 10 11 13 14 16 16 15 17 17 19 22 19 25 24 22 22 23 25 28 31 35 44 58
75 79 89 96 92 84 79 70 28 20 17 16 14 13 12 10 9 9 10 10 11 12 14 15 16 16 16 18 20 24 23 23 24 24 24 25 26 30 39 52 62 65 66
72 73 78 81 78 78 66 26 19 17 16 15 14 14 12 10 10 9 11 13 14 14 14 16 17 20 23 23 24 24 24 25 25 26 28 31 39 48 55 60 63 64 64
69 68 68 74 74 56 28 22 20 18 17 16 15 15 14 11 10 10 12 14 16 16 16 17 21 22 25 24 23 24 24 24 24 26 28 34 43 50 56 59 60 65 64
67 65 62 60 56 35 27 24 22 20 18 18 16 16 15 12 10 10 12 13 14 16 16 20 21 21 23 24 24 24 25 25 25 26 28 33 42 52 58 61 62 64 67
63 58 51 45 37 32 29 26 23 21 19 17 17 17 16 13 10 11 13 14 14 16 19 20 21 22 21 23 24 25 26 26 26 26 27 30 37 45 51 57 63 65 66
55 50 43 38 36 29 27 25 24 23 20 19 19 18 17 16 10 12 14 15 15 16 17 21 22 22 23 23 24 24 24 26 26 27 27 28 30 34 39 43 47 50 50
64 54 48 40 33 28 28 27 28 26 25 24 24 21 19 19 12 12 15 16 18 17 16 18 20 20 21 21 22 23 24 26 27 27 28 30 33 35 36 39 42 45 46
86 75 64 51 42 36 31 30 30 28 28 28 27 23 21 20 16 12 15 17 19 18 17 17 18 19 20 21 22 23 24 24 25 26 28 31 35 38 38 40 43 48 59
96 97 98 85 68 56 45 36 32 31 31 31 31 26 23 21 19 13 15 18 21 21 20 18 18 19 20 21 21 22 23 25 28 31 34 38 42 47 50 55 67 85 95
94 95 99 100 98 99 78 59 45 38 34 34 33 31 26 22 21 14 14 18 23 24 25 25 26 27 29 32 36 38 41 44 50 59 65 67 73 80 89 95 100 99 97
96 97 100 99 100 100 100 100 98 98 58 41 36 33 30 25 22 17 14 18 24 28 31 33 39 50 61 68 72 73 74 76 82 88 87 89 93 96 99 100 100 100 99
96 98 98 99 100 100 100 100 100 99 99 97 65 42 33 28 24 19 15 17 22 29 34 39 47 55 67 73 78 81 81 82 84 85 86 87 89 92 96 97 98 96 94
92 93 95 99 100 100 100 100 99 99 99 98 96 93 40 32 27 21 15 16 21 30 36 44 52 58 64 70 77 82 83 79 76 75 85 89 89 91 95 94 93 92 91
88 96 100 100 100 99 99 99 99 99 98 98 98 96 85 48 33 20 14 15 21 28 37 46 53 60 66 73 78 83 82 82 85 85 84 83 84 90 96 97 92 92 94
99 100 100 99 98 99 98 98 98 98 98 98 97 97 96 50 29 32 18 35 22 28 33 41 51 60 67 73 80 84 83 81 85 88 100 100 100 100 100 99 99 99 96

GFSGL_850_rhum_057.txt.gz
RH
58 58 58 58 59 62 64 66 69 70 69 67 65 67 63 60 59 61 62 65 68 71 77 79 82 93 98 98 98 98 98 96 97 91 92 86 88 86 81 87 90 87 87
62 62 65 67 69 69 72 76 78 78 77 74 73 73 71 69 68 65 65 65 66 67 73 74 65 68 84 92 97 100 96 93 95 91 92 89 92 86 81 86 88 89 96
65 67 69 70 74 77 79 80 80 81 82 79 79 78 77 75 75 74 73 72 73 74 73 73 77 81 84 87 88 89 94 94 91 88 91 92 87 86 92 88 85 88 88
68 69 69 74 80 86 87 87 85 83 84 85 85 84 82 79 77 77 77 78 79 81 81 82 82 84 86 86 86 87 86 87 88 90 89 89 90 92 92 91 93 92 90
68 70 76 88 91 92 92 92 91 92 91 88 83 79 79 79 79 79 79 79 82 81 80 78 76 76 79 81 82 83 82 83 89 94 99 99 98 95 93 91 90 90 90
68 78 99 100 100 98 96 96 100 100 96 91 89 84 80 75 72 72 72 72 71 71 71 68 67 67 67 66 63 55 52 61 73 79 81 82 82 85 83 78 69 61 55
74 91 100 99 100 100 100 100 100 100 100 97 91 83 77 72 70 69 66 50 29 23 17 13 13 12 9 10 9 9 10 9 9 12 15 18 20 22 23 26 28 29 32
78 98 100 99 99 99 100 99 100 100 100 96 86 79 75 66 32 13 10 9 8 7 7 8 8 8 9 9 10 11 12 13 16 15 17 21 23 26 32 33 34 33 29
81 99 99 99 99 99 100 100 99 100 99 89 81 60 19 12 10 8 6 7 8 9 10 11 11 11 11 11 12 14 15 16 18 18 18 19 22 25 24 29 30 26 23
85 100 99 99 100 99 100 100 100 99 87 76 38 15 12 10 7 6 7 9 10 10 12 13 15 14 14 13 14 16 16 18 20 22 20 19 18 19 20 21 24 28 30
90 99 99 100 99 99 100 100 96 86 63 23 14 13 11 10 9 7 8 10 10 11 13 14 15 17 17 18 15 18 16 17 18 18 18 18 19 21 23 24 30 43 53
83 96 100 100 99 100 100 89 85 53 22 16 15 15 12 11 9 9 9 10 10 12 15 15 15 15 17 19 21 21 19 20 20 20 20 21 23 25 34 44 52 56 59
77 86 95 99 100 99 87 82 35 24 21 18 16 15 14 12 10 10 10 11 12 13 15 15 15 17 19 22 22 21 22 22 21 20 22 25 32 41 49 54 57 58 59
73 77 85 91 90 82 80 45 25 20 17 17 16 15 15 14 11 10 11 12 14 15 15 17 19 19 20 20 22 22 23 22 20 21 22 24 30 39 48 56 58 58 58
69 72 73 74 73 72 51 27 22 22 19 18 17 16 15 15 12 10 10 13 14 13 12 17 20 20 19 19 20 21 22 22 21 21 21 23 27 35 42 48 53 54 55
67 63 64 66 62 56 36 26 24 23 20 19 18 16 17 16 15 10 10 13 13 13 14 19 21 20 18 18 20 20 22 22 21 22 23 23 25 28 31 35 40 43 45
74 62 57 53 49 40 31 26 25 25 24 21 19 19 19 18 17 13 10 13 15 17 16 19 18 17 18 18 20 20 21 21 21 23 24 26 26 28 29 31 34 36 38
93 72 61 48 39 34 31 29 28 28 28 25 23 23 23 21 19 18 12 12 16 18 18 18 17 16 17 17 18 19 20 21 22 23 24 27 28 29 31 33 35 38 41
98 92 75 61 51 44 39 33 30 31 30 28 30 29 27 24 21 20 17 13 15 18 21 20 19 18 17 18 19 20 21 22 24 26 28 30 34 37 38 41 45 49 58
98 100 99 92 83 85 68 53 40 33 33 33 31 32 34 30 24 21 20 15 14 18 22 24 24 24 24 25 27 31 36 40 43 46 49 55 62 68 71 75 80 88 93
96 98 100 100 100 100 98 99 99 92 83 51 37 37 39 36 28 24 22 18 15 18 22 27 29 31 35 42 53 63 68 72 75 78 81 84 89 92 95 96 97 99 98
98 99 100 99 100 100 100 100 100 100 100 99 98 97 77 45 59 28 24 21 16 17 22 27 32 38 47 58 66 71 74 75 79 83 81 81 83 87 92 93 95 94 92
100 100 100 100 100 100 100 100 100 100 100 100 99 98 96 94 84 35 28 24 17 16 21 26 34 38 51 59 65 70 72 77 82 82 76 74 72 79 86 86 88 86 86
93 95 97 97 97 100 100 100 100 100 100 99 99 98 98 97 91 81 74 26 17 18 19 27 34 41 47 53 62 68 75 82 86 85 88 85 83 86 89 87 89 92 90
87 86 88 91 98 99 99 99 98 99 98 99 98 98 98 98 97 96 52 34 39 43 20 26 33 37 40 49 56 66 77 88 92 93 91 85 80 80 86 93 90 92 93
94 97 99 99 99 99 98 98 98 98 98 98 98 98 98 97 97 97 68 57 86 42 56 30 34 32 38 45 56 68 78 89 94 93 89 93 95 87 93 96 96 96 94

GFSGL_850_rhum_060.txt.gz
RH
52 52 54 53 54 55 59 63 64 64 63 64 63 62 63 63 61 60 60 64 70 78 96 91 97 94 92 97 98 95 97 97 94 99 98 90 88 86 88 85 79 86 90
56 59 59 58 58 60 64 67 72 75 74 73 73 69 69 70 68 66 63 63 64 66 71 76 77 75 67 71 85 96 94 98 94 91 88 90 92 86 83 83 83 82 82
58 60 61 64 65 66 69 73 77 82 82 79 79 77 76 74 74 73 71 71 71 69 69 68 67 68 71 75 80 86 87 88 89 91 91 92 90 85 85 86 86 84 81
61 62 63 65 66 72 78 82 84 84 84 83 82 82 80 79 78 77 76 76 76 75 74 75 78 77 78 81 84 85 85 86 87 92 96 94 91 89 89 87 88 89 87
63 65 66 64 70 79 86 92 93 91 90 90 88 85 80 78 78 77 79 79 80 80 78 76 74 69 68 74 74 77 78 76 80 88 97 96 95 91 89 85 84 81 76
67 69 65 72 85 96 99 97 100 100 99 96 92 87 84 78 76 76 76 78 76 74 71 65 55 41 37 26 24 30 27 31 46 57 64 74 68 61 45 36 26 22 44
70 68 70 81 98 99 100 98 99 99 100 100 96 91 82 77 72 72 68 69 59 38 26 16 10 10 7 8 8 8 8 8 8 10 13 17 22 20 21 23 26 26 36
71 69 75 92 98 99 99 99 99 99 99 100 99 87 81 76 74 59 26 13 9 7 6 6 8 8 10 9 10 11 13 13 13 13 15 18 20 21 24 28 28 24 24
67 73 84 100 99 99 99 99 99 100 100 100 92 82 76 36 13 9 7 7 7 7 8 9 10 10 10 12 11 14 16 16 16 16 16 16 16 17 18 22 26 27 41
68 76 88 100 99 98 98 99 100 100 100 98 88 52 18 12 8 6 7 9 9 10 11 12 11 12 11 10 13 16 17 19 21 21 19 19 18 17 17 19 20 23 28
72 81 92 100 99 100 100 100 100 99 100 94 62 20 14 10 8 7 8 10 11 13 13 13 13 12 12 11 12 15 19 19 20 19 18 18 18 18 19 22 28 39 47
74 81 90 99 100 100 100 99 100 99 96 58 24 18 14 12 10 9 9 10 12 14 14 13 13 12 13 12 14 16 17 18 20 20 20 20 20 21 27 37 44 49 53
72 73 80 97 100 100 100 100 97 90 55 23 18 18 16 13 12 10 10 11 12 13 14 13 11 12 14 17 18 18 18 19 20 20 20 20 22 27 36 42 46 50 54
72 71 76 93 100 100 99 94 85 48 25 20 21 19 17 15 14 12 11 12 13 14 15 14 14 14 16 17 18 19 19 19 20 20 20 20 21 26 34 41 47 51 51
73 71 73 82 95 98 91 83 60 26 20 19 19 19 18 16 15 13 11 10 13 15 13 14 18 17 17 16 18 19 19 19 19 19 19 20 21 23 27 32 36 40 44
77 76 75 78 80 84 80 71 35 25 24 22 21 19 18 17 16 16 11 10 13 14 15 18 20 18 18 18 18 18 18 18 18 18 19 20 22 23 25 27 29 32 36
92 90 83 74 71 70 71 58 32 28 26 24 23 21 19 18 19 18 16 11 12 16 18 22 21 18 17 18 18 18 18 18 19 20 21 22 24 25 27 29 31 33 34
100 100 99 87 68 62 55 45 35 29 29 28 26 25 22 21 23 21 19 18 14 15 19 22 21 19 18 18 18 19 19 20 21 22 23 25 27 29 31 33 35 37 39
100 100 100 100 85 61 54 46 41 37 32 29 29 28 26 26 29 26 22 21 19 16 18 20 22 22 21 20 21 22 23 24 26 28 30 34 37 41 45 50 56 60 66
100 100 100 100 98 91 83 72 52 47 40 32 30 41 60 34 34 31 26 23 22 19 16 18 23 25 26 27 28 31 37 46 56 64 67 69 72 77 81 84 86 88 90
100 100 100 100 100 100 96 92 95 99 99 94 89 88 49 43 44 37 34 27 27 23 17 18 22 27 30 33 38 47 57 64 71 76 80 84 86 87 89 86 85 87 89
100 100 100 99 100 100 100 100 100 100 100 100 100 100 99 96 84 66 78 89 80 26 22 18 21 26 32 37 45 55 60 63 71 78 82 83 84 81 79 79 81 84 86
100 100 100 100 100 100 100 100 100 100 100 100 100 99 100 99 98 97 94 96 65 46 31 18 19 24 31 40 46 53 56 59 70 79 84 86 85 84 86 87 86 87 85
96 100 100 100 100 100 100 100 100 100 100 99 99 100 99 99 98 98 98 97 86 93 27 34 56 62 29 39 45 47 50 58 68 75 86 89 90 90 90 91 92 90 94
88 91 93 94 95 96 100 100 100 99 98 99 98 98 98 98 98 98 97 97 97 86 69 74 62 31 56 44 39 41 48 56 64 74 87 94 95 93 79 80 90 98 97
94 92 93 93 94 96 99 100 99 99 98 98 97 98 98 98 97 97 97 97 96 94 92 95 81 72 34 35 34 41 47 55 67 82 96 95 85 73 83 94 97 98 97

GFSGL_850_rhum_063.txt.gz
RH
50 49 46 45 48 51 52 53 55 57 60 63 63 63 63 62 64 64 60 62 69 93 100 98 98 99 98 98 98 99 99 96 94 92 94 94 93 92 89 86 83 81 80
50 48 48 49 50 52 54 55 56 62 64 70 70 70 69 69 71 72 70 70 71 74 83 84 85 90 84 79 78 82 90 90 90 99 96 89 90 88 86 83 79 80 80
50 51 53 55 55 57 59 58 59 65 70 75 79 78 74 73 75 76 77 76 75 73 76 75 76 75 70 71 77 80 80 82 83 87 87 89 89 85 84 80 81 83 84
56 57 58 60 62 64 62 61 66 72 80 84 82 80 80 80 80 79 81 80 79 77 77 76 74 74 76 78 79 82 83 83 83 86 93 97 91 86 83 81 84 83 84
57 60 62 64 65 64 65 69 77 83 88 87 85 85 86 84 81 80 78 81 82 80 80 80 80 76 73 78 74 76 78 80 79 85 98 98 91 80 73 75 74 67 67
61 64 65 65 64 64 71 80 88 95 98 95 95 93 89 82 77 78 80 79 79 81 78 72 63 43 33 28 22 30 32 26 32 48 63 93 92 68 57 34 26 18 34
62 66 67 69 68 74 84 95 100 99 99 99 99 99 92 84 77 76 76 74 75 72 58 32 16 11 6 7 6 6 6 6 7 9 19 27 32 27 24 25 28 26 34
63 68 70 71 68 79 92 98 98 99 99 100 99 100 93 83 80 75 73 62 34 19 11 8 7 8 9 8 7 8 8 8 9 12 13 12 14 17 21 21 22 19 22
63 66 69 67 72 86 99 99 99 99 99 100 99 100 89 82 81 51 19 12 8 7 8 9 10 10 10 9 9 10 11 12 12 12 12 11 12 12 15 17 16 20 22
65 65 68 66 77 95 99 99 99 100 100 100 100 98 87 55 16 10 7 7 9 10 10 11 11 10 9 9 10 13 14 19 17 15 14 13 13 13 13 14 17 18 22
68 69 66 67 80 99 99 99 99 99 99 99 98 85 40 18 13 7 6 10 12 12 12 13 12 11 9 8 11 14 16 20 15 15 16 15 14 14 14 17 21 28 37
71 67 66 71 84 99 100 99 100 100 100 100 94 61 20 14 10 8 8 9 11 12 13 13 12 11 9 11 13 14 15 15 16 16 16 18 18 17 17 23 32 39 42
70 67 71 78 82 96 99 99 99 100 100 98 76 29 16 14 12 10 10 10 11 12 14 14 10 10 11 13 15 17 15 16 15 17 17 16 16 17 21 27 33 37 42
68 69 73 81 96 100 99 99 100 100 98 84 40 17 16 15 14 13 12 12 12 13 15 16 13 12 13 14 15 16 16 17 16 17 17 18 17 18 21 27 32 38 39
78 80 83 80 83 95 100 100 100 94 86 54 23 19 19 17 16 16 14 13 12 13 15 15 15 18 18 16 16 16 16 17 17 18 18 18 19 21 22 24 26 29 32
93 80 74 82 83 92 100 100 97 90 64 31 23 20 20 19 18 18 17 14 11 11 14 16 19 22 20 20 18 17 17 17 18 18 18 19 21 22 23 24 25 27 28
96 89 90 99 91 90 93 94 89 81 47 26 23 22 22 20 20 18 17 17 14 12 13 18 19 24 22 19 18 18 18 18 18 18 19 20 22 23 25 25 27 29 30
100 100 100 100 100 97 94 81 81 71 38 25 24 24 24 23 22 20 20 20 19 18 16 17 20 23 22 21 20 18 19 19 20 21 22 23 24 27 29 31 34 37 42
100 100 100 100 100 100 90 94 78 70 47 32 31 33 29 27 26 25 26 26 24 22 21 20 18 21 22 24 23 22 22 23 25 29 34 38 43 46 50 54 61 68 76
100 100 100 100 100 100 100 100 91 65 66 91 91 94 89 59 38 31 30 35 32 26 24 24 21 19 20 25 27 28 28 31 41 52 61 69 73 75 75 77 79 78 78
99 100 100 100 100 100 100 100 100 99 88 75 61 53 55 65 66 92 93 91 94 45 68 91 52 20 19 23 28 32 35 42 57 63 67 72 76 78 80 81 79 76 74
100 100 100 100 100 100 100 100 100 100 100 100 100 100 100 99 98 97 86 58 83 66 62 89 67 34 49 22 28 34 40 47 60 61 64 68 74 80 84 85 83 81 83
100 100 100 100 100 100 100 100 100 100 100 100 100 100 100 99 99 99 99 99 98 96 95 98 53 88 34 22 30 54 39 46 55 57 61 66 72 79 88 92 94 94 92
97 100 100 100 100 100 100 100 100 100 100 100 100 99 99 100 99 99 99 98 98 98 98 96 87 95 49 66 94 36 40 74 56 53 61 64 71 83 95 100 100 100 97
91 94 100 100 100 100 100 100 100 100 100 100 99 98 98 98 98 98 98 98 98 98 97 96 96 93 90 88 39 86 68 40 42 51 57 62 73 86 99 100 100 99 98
98 96 94 92 91 91 91 93 94 93 92 95 96 96 97 97 97 98 97 97 97 97 97 96 96 96 96 94 82 34 34 39 48 55 73 70 78 90 98 100 100 100 98

GFSGL_850_rhum_066.txt.gz
RH
54 52 53 54 41 38 40 42 43 44 48 50 52 55 58 59 58 59 56 60 62 75 99 98 98 98 97 99 100 92 90 96 98 100 100 100 99 97 94 94 87 82 78
58 54 52 47 44 43 45 47 48 54 53 57 58 62 65 64 66 67 67 70 70 70 85 97 99 100 99 96 93 94 93 94 96 98 100 97 93 94 90 88 82 78 81
63 61 54 50 47 51 54 54 56 58 59 59 66 70 72 72 71 73 76 76 78 78 79 77 82 86 82 76 72 71 79 81 87 89 91 91 87 87 86 85 79 79 80
61 57 55 55 56 57 58 57 59 57 60 67 70 73 76 78 77 77 79 80 82 85 84 80 76 76 75 75 77 79 80 81 81 80 83 95 94 81 80 78 79 78 76
63 61 59 59 60 60 60 61 58 60 66 72 78 84 83 83 82 82 83 83 83 85 86 86 83 79 76 75 76 75 76 75 77 79 79 92 72 52 50 50 57 55 40
62 62 61 60 61 61 63 60 62 72 81 88 91 90 88 89 85 82 82 86 85 86 86 88 85 80 66 57 51 39 39 34 34 44 43 34 48 43 21 18 18 14 14
60 59 58 60 61 62 62 59 67 80 98 99 99 99 100 97 88 81 80 86 85 86 80 76 56 27 12 8 7 6 6 6 7 8 16 20 26 23 21 18 16 16 14
64 63 62 64 65 68 62 66 80 94 98 99 99 99 98 100 88 82 81 85 85 78 52 23 11 8 8 9 8 8 8 9 11 11 13 15 16 16 15 15 16 14 15
64 64 64 67 68 69 64 75 90 99 99 100 100 100 99 98 90 85 83 62 31 16 8 8 10 10 12 10 8 10 9 10 11 11 12 13 12 12 12 11 11 12 11
66 67 67 66 68 63 67 81 96 98 98 99 99 99 100 94 89 60 20 11 9 9 11 11 12 12 10 10 9 9 12 11 13 15 16 14 12 12 11 10 11 12 14
75 74 70 69 68 64 75 89 100 99 99 99 98 99 99 84 38 12 8 8 10 11 12 13 14 13 11 10 9 9 11 13 14 15 14 12 13 13 12 13 15 20 27
77 75 74 70 63 66 80 91 99 99 100 100 100 100 86 38 17 11 7 7 9 12 13 14 14 13 11 9 10 11 12 13 15 15 14 15 15 14 14 16 22 29 34
78 77 74 68 65 72 81 92 100 99 98 100 100 97 78 26 16 11 11 9 9 11 12 14 13 11 10 11 14 12 11 13 14 14 15 16 15 16 17 17 22 28 34
77 75 70 67 68 75 87 99 99 100 100 99 100 93 59 21 16 14 13 12 11 11 13 15 16 14 12 14 15 14 13 13 13 14 15 16 18 16 16 17 19 23 26
72 72 71 71 75 78 81 89 100 100 100 100 97 82 39 17 17 17 16 15 14 13 13 14 16 16 16 19 19 16 14 14 14 15 16 16 17 18 17 18 19 21 22
87 86 86 88 90 89 91 91 99 99 100 100 97 69 32 21 21 18 18 17 16 14 12 12 14 15 18 20 20 18 16 15 15 15 16 17 18 18 18 20 21 22 24
93 92 97 98 91 87 92 100 97 98 99 93 79 41 25 22 20 20 20 19 17 17 15 13 13 15 18 21 20 19 17 17 17 16 17 18 19 19 20 22 24 26 27
89 93 99 99 97 100 100 100 99 92 91 85 68 33 24 23 24 24 23 21 20 19 18 18 19 18 18 21 22 22 22 20 19 19 20 22 24 26 28 31 34 37 42
98 92 98 100 100 100 100 100 98 91 87 86 63 38 29 28 30 30 28 26 22 21 22 22 21 22 21 20 20 23 26 25 24 24 26 33 44 54 61 66 68 70 73
92 99 99 100 100 100 99 100 100 89 85 68 66 50 38 41 39 33 32 30 28 27 28 41 43 52 30 25 20 21 26 29 31 32 39 55 64 70 70 74 79 81 82
100 100 100 100 100 100 100 100 99 100 99 99 98 97 99 98 93 84 92 88 80 70 75 90 89 59 95 97 62 73 48 32 43 40 52 65 82 72 70 75 80 84 86
100 100 100 100 100 100 100 100 100 100 100 100 100 100 100 99 98 93 88 91 93 98 99 64 81 81 63 94 68 92 37 82 56 90 81 95 94 71 70 75 81 88 91
100 99 100 100 100 100 100 100 100 100 100 100 100 100 100 100 99 99 99 99 99 100 99 97 96 97 89 96 88 95 65 76 94 90 78 96 81 64 68 73 81 88 96
100 100 100 100 100 100 100 100 100 100 100 100 100 100 99 99 99 99 99 99 98 98 98 98 98 97 97 96 96 89 82 96 76 85 96 82 55 60 68 75 82 94 100
99 99 100 100 100 100 100 100 100 100 100 100 100 99 98 96 94 96 98 98 97 97 97 98 97 97 96 97 95 95 96 94 96 95 63 48 54 61 88 88 89 100 100
100 99 99 98 99 100 100 100 100 99 97 96 94 88 84 88 92 94 96 98 98 98 98 98 97 97 97 96 97 96 96 95 66 38 50 63 72 94 91 85 95 100 98

GFSGL_850_rhum_069.txt.gz
RH
47 47 54 48 51 49 48 53 46 39 37 40 40 46 49 52 54 56 58 57 55 55 57 68 94 99 93 94 99 98 100 99 100 98 99 98 94 100 100 96 90 83 79
58 57 58 57 54 52 50 51 47 44 40 43 49 54 56 56 58 63 67 64 63 62 60 66 92 99 98 98 98 100 100 100 100 100 100 100 100 99 98 94 86 85 78
68 65 63 59 55 52 50 50 49 49 50 53 56 54 58 62 68 73 74 73 76 77 76 76 80 82 84 88 87 82 74 82 88 91 97 99 99 98 91 88 87 84 79
72 69 66 63 61 58 56 55 56 57 57 58 56 60 65 70 76 80 83 81 81 85 88 88 88 88 90 87 84 80 78 79 81 85 89 96 96 93 88 86 83 83 80
72 69 66 63 60 58 58 59 59 60 60 56 61 69 76 83 84 86 88 88 87 89 90 90 90 86 79 78 78 79 79 79 79 79 81 88 80 63 50 59 65 59 49
68 67 65 62 61 60 61 61 62 62 59 64 72 81 84 86 88 87 89 89 88 90 91 94 92 89 85 78 78 76 70 63 60 58 68 50 36 40 39 31 18 16 14
70 69 66 63 62 62 63 62 64 59 63 72 82 100 99 98 100 96 89 96 99 99 98 99 92 80 44 19 10 8 6 6 5 9 15 23 22 24 29 17 13 12 13
68 68 67 65 63 62 61 61 61 63 73 86 96 99 99 99 99 99 89 95 100 100 94 87 57 23 9 10 9 9 9 10 10 11 12 14 14 16 19 14 14 14 14
68 68 65 66 66 65 65 67 62 68 80 96 99 99 99 99 99 94 87 89 89 84 58 25 11 11 12 13 11 10 10 12 14 11 10 10 10 11 10 10 11 11 12
68 70 73 76 73 71 70 68 69 76 90 99 99 99 99 99 100 90 87 64 36 18 10 10 12 12 12 12 10 10 12 14 15 14 14 13 12 12 10 10 11 12 13
76 80 80 78 78 79 75 69 72 84 99 98 99 99 100 99 96 80 28 14 12 11 12 14 15 15 14 12 9 9 11 12 13 13 13 12 13 12 12 12 14 16 21
84 84 83 84 84 82 76 74 80 91 100 99 100 99 99 100 74 28 13 9 10 13 15 15 16 16 14 11 9 10 10 11 12 12 13 14 13 12 12 14 16 20 26
83 86 86 85 84 84 76 80 85 98 99 99 99 99 99 93 45 20 13 9 9 10 12 14 15 14 12 11 12 12 12 13 13 14 15 15 13 12 12 14 16 20 25
85 85 86 85 84 79 78 84 92 100 100 100 98 99 100 91 41 18 15 14 12 11 12 13 15 16 15 14 14 16 15 14 13 14 16 16 16 16 16 15 15 17 19
81 82 80 79 78 76 79 85 95 100 100 100 99 100 99 86 25 20 20 18 16 16 17 17 15 16 17 17 20 19 18 16 14 15 15 16 16 16 16 17 18 19 20
79 80 86 95 91 88 91 93 99 99 100 99 99 100 97 69 34 23 22 20 18 18 16 14 12 13 15 18 20 22 20 17 16 16 16 17 17 17 18 19 20 20 21
96 97 92 93 95 99 99 99 100 100 100 100 100 99 89 58 27 24 24 23 22 20 18 17 15 14 15 18 20 21 20 21 18 17 17 18 18 19 20 22 23 24 26
100 100 98 94 99 100 98 96 100 100 99 98 98 94 74 44 30 26 26 28 24 22 18 17 18 18 20 20 19 19 22 21 22 21 20 20 22 24 27 31 34 41 46
100 99 98 96 99 100 100 100 100 100 100 100 91 89 77 49 32 31 32 31 27 24 22 20 25 23 24 24 24 54 41 20 24 25 25 25 28 36 50 60 70 75 76
100 100 100 100 100 100 100 100 100 100 100 99 88 82 74 43 35 31 31 34 33 30 29 32 30 38 58 64 91 95 56 21 28 49 30 34 40 55 68 91 86 76 80
100 99 100 99 100 100 100 100 100 100 100 100 100 100 95 71 50 44 63 94 97 95 94 96 95 89 91 96 62 84 98 76 79 80 53 86 50 89 96 96 93 75 79
100 99 100 100 99 100 100 99 100 100 100 100 100 100 100 99 98 99 99 99 95 82 78 82 78 85 98 97 96 95 96 95 95 51 86 80 89 96 96 96 84 72 75
99 98 99 99 100 100 100 100 100 99 99 100 100 100 100 99 100 99 99 100 100 100 100 99 99 98 99 96 95 94 93 94 95 64 89 96 96 96 96 95 86 74 77
98 98 99 99 100 100 100 100 100 100 100 100 100 100 100 100 99 99 99 99 98 98 100 99 98 98 100 98 97 97 97 98 96 94 97 94 96 96 95 92 68 70 93
98 97 98 99 99 99 99 100 100 99 99 99 99 99 99 99 99 98 99 98 94 97 98 98 98 98 97 97 98 97 97 96 96 95 95 96 95 76 55 66 71 94 96
98 97 97 98 98 99 99 99 99 99 99 99 99 98 98 96 94 91 92 94 96 98 98 98 98 98 98 96 94 96 97 97 95 97 83 44 41 61 67 78 96 97 98

GFSGL_850_rhum_072.txt.gz
RH
47 46 43 42 47 56 60 56 54 57 51 44 55 55 50 46 48 50 51 53 56 58 58 59 65 75 93 99 92 96 100 89 97 100 99 100 100 100 96 98 99 87 84
56 55 53 54 57 61 62 62 59 53 52 51 55 55 51 50 53 55 59 61 61 65 67 69 71 83 100 99 97 97 99 100 100 98 100 100 99 98 98 100 86 84 82
59 60 64 64 65 64 60 56 53 51 50 53 57 58 56 55 54 56 60 65 70 73 73 77 79 87 96 100 100 99 100 100 100 100 99 100 98 99 98 91 88 86 83
72 72 71 69 67 65 61 57 55 54 55 57 58 58 56 57 59 60 65 74 76 80 86 88 90 89 92 98 99 100 93 82 82 99 100 100 100 99 89 86 85 85 81
73 74 73 71 70 66 61 58 57 58 59 60 61 58 57 59 64 71 78 81 83 87 89 93 96 97 92 90 89 87 86 86 86 89 95 97 99 88 68 68 79 75 72
65 73 76 73 69 65 62 60 61 63 63 63 61 59 63 70 71 76 84 89 91 95 96 98 97 96 92 90 86 83 84 82 79 78 81 80 68 43 37 39 32 28 20
65 68 71 73 71 68 66 64 64 64 65 63 60 65 73 83 98 99 98 96 99 100 99 100 100 98 88 66 38 26 21 20 19 18 22 34 30 33 35 27 21 18 16
70 67 68 68 70 70 67 67 67 66 67 63 67 74 85 97 98 98 99 100 100 99 99 100 99 86 52 16 11 8 10 10 10 9 10 16 18 22 23 20 16 16 16
71 70 69 67 70 72 71 72 72 72 70 69 75 83 97 98 98 95 99 96 100 100 100 96 78 28 11 12 12 12 13 11 12 11 10 10 12 12 13 13 12 12 11
64 71 71 73 72 73 76 77 78 76 72 76 83 97 99 99 99 99 98 92 96 92 83 44 13 11 14 14 12 11 12 13 13 16 16 15 13 13 12 11 11 11 10
72 76 78 78 79 80 81 82 81 79 77 83 99 99 99 99 99 99 91 77 54 30 14 12 14 14 14 13 11 10 13 13 15 16 15 14 14 14 14 13 14 14 14
77 85 85 84 86 86 86 85 83 80 80 94 99 100 99 99 99 99 84 26 16 13 13 15 17 16 15 13 10 10 10 11 13 13 14 14 15 16 17 16 16 18 21
89 90 90 90 92 92 91 89 88 83 84 98 99 99 99 99 99 92 40 15 10 12 14 18 18 18 16 12 11 12 13 14 14 14 15 15 15 16 15 16 16 18 21
86 88 91 95 95 94 94 90 86 83 88 96 99 99 99 100 99 80 29 18 11 12 12 14 15 16 18 18 16 16 16 17 16 15 15 15 15 17 18 17 16 18 18
90 90 89 89 88 87 85 81 80 81 89 100 99 100 100 100 99 87 32 19 17 16 18 18 18 18 18 20 20 22 21 19 16 15 14 15 16 16 17 18 18 19 19
90 91 88 86 84 91 96 95 93 90 99 100 100 99 100 100 100 83 30 24 24 24 23 19 19 19 16 18 20 23 23 21 18 16 15 14 15 16 15 17 19 19 20
96 97 100 96 94 95 90 94 98 100 100 100 99 100 100 100 100 78 31 28 26 25 22 19 19 18 15 16 18 20 22 23 21 20 22 19 17 17 16 18 20 22 23
100 99 99 100 100 100 96 98 100 100 100 100 99 99 99 99 99 84 40 33 28 26 22 20 19 19 19 18 20 20 21 24 22 23 22 22 20 20 21 23 28 32 39
100 100 99 100 100 100 100 100 100 100 100 100 100 99 99 99 94 59 37 32 26 24 24 23 22 22 22 26 27 25 22 27 72 68 24 25 33 25 25 32 46 57 66
100 100 100 100 100 100 100 100 100 100 100 100 99 99 100 99 91 70 39 32 28 27 30 31 42 63 79 72 56 39 38 72 96 76 27 41 52 33 33 54 78 89 96
100 100 100 100 100 100 99 99 100 100 100 100 100 100 100 96 86 60 45 37 34 38 79 96 95 84 87 97 92 88 95 90 86 95 83 54 92 66 73 91 94 96 96
99 100 100 100 99 100 100 99 99 99 100 100 100 100 100 100 99 99 99 99 98 98 99 99 98 93 89 86 73 90 100 97 87 97 97 97 58 84 94 96 96 96 96
99 99 100 100 99 100 100 99 99 99 99 100 100 100 100 99 100 99 100 100 100 100 100 100 100 99 99 98 98 98 98 96 96 96 96 95 82 94 96 96 96 96 96
96 98 99 100 100 100 100 100 99 100 100 100 100 100 100 99 99 100 100 100 100 100 99 99 98 97 98 98 98 97 97 96 96 96 96 95 95 96 96 96 96 96 95
95 96 98 98 100 99 99 99 99 100 99 99 100 99 99 99 99 100 100 99 98 97 96 96 95 98 97 97 97 96 97 97 97 97 97 97 96 96 96 96 89 83 85
92 94 96 98 99 98 98 99 99 99 99 99 99 99 99 99 98 98 98 92 88 92 96 95 97 98 98 96 95 96 97 96 98 100 99 98 97 91 63 51 71 80 90

GFSGL_850_rhum_075.txt.gz
RH
53 51 47 44 42 42 46 62 73 76 60 56 56 54 53 52 44 47 52 53 54 56 55 56 58 64 69 77 94 98 90 94 99 94 99 99 100 100 100 100 100 99 96
46 55 54 52 51 48 51 59 64 67 64 62 59 51 48 48 48 52 55 59 58 58 61 66 69 73 76 88 96 96 93 98 100 100 100 100 100 100 100 100 99 98 87
47 54 59 59 60 62 64 65 64 60 58 55 54 54 53 54 56 57 58 58 61 64 69 77 79 84 86 98 99 98 98 98 98 100 100 100 99 100 99 98 98 86 87
58 60 66 68 71 71 70 68 64 60 58 55 55 55 57 59 58 58 60 64 68 71 79 82 88 91 92 99 100 99 98 98 100 99 98 100 100 98 99 100 88 86 89
67 70 72 75 74 74 73 70 66 62 60 59 60 61 62 61 59 61 63 67 73 80 83 87 89 94 97 96 97 97 97 97 97 96 99 99 99 100 99 90 77 83 82
67 71 75 76 76 75 74 70 67 66 65 65 64 63 63 61 64 71 68 71 82 91 97 100 100 100 100 92 94 92 88 85 96 100 100 100 99 98 85 50 47 55 48
60 71 73 73 72 73 73 71 67 65 66 68 66 66 64 66 72 81 92 100 99 100 98 99 100 98 100 97 83 56 56 66 63 79 84 76 63 52 44 46 39 30 24
54 63 72 72 73 73 71 71 70 68 68 67 68 67 68 73 83 91 98 98 98 99 99 100 97 100 99 80 37 15 11 11 10 10 10 31 40 33 35 32 28 22 20
53 54 66 74 75 75 72 73 74 72 72 71 71 69 72 79 89 98 97 98 98 99 99 98 99 100 73 22 12 13 14 15 15 14 12 14 21 17 18 18 18 17 14
57 59 69 78 78 78 76 77 76 76 76 75 73 72 78 90 98 98 96 99 99 100 100 100 95 63 19 18 21 16 16 15 16 17 18 15 14 13 12 12 12 12 11
59 58 68 78 81 81 84 83 82 83 81 79 76 76 80 97 99 99 97 99 91 91 89 70 31 15 16 14 15 16 18 16 19 20 20 17 16 14 14 14 14 13 12
68 66 68 79 85 85 88 88 89 88 85 84 80 78 82 97 99 99 98 99 75 46 24 16 17 19 19 17 15 15 13 13 16 18 18 16 14 16 16 15 15 15 15
79 76 84 88 90 90 92 93 93 91 90 88 82 78 88 98 99 99 99 98 55 18 15 16 19 22 21 19 14 13 12 12 15 16 14 14 15 15 14 13 12 12 14
86 84 84 90 93 94 96 98 98 97 94 90 84 83 91 99 99 99 99 96 34 16 12 16 16 18 18 18 19 18 16 16 17 16 15 15 15 14 15 15 14 14 15
92 91 89 91 92 94 95 96 96 92 89 84 83 91 99 98 99 100 100 96 35 19 14 15 15 15 16 18 20 20 21 22 20 19 17 16 16 15 15 17 18 17 17
100 97 93 90 89 90 92 94 95 98 95 90 91 96 99 99 99 100 100 99 44 30 30 21 21 22 22 22 19 21 21 23 22 22 19 17 17 18 18 17 18 18 20
100 100 100 100 96 90 90 92 94 96 98 100 99 100 100 100 100 100 99 94 41 34 34 24 23 21 20 19 16 18 20 24 27 22 20 21 22 23 20 18 18 20 21
100 100 100 100 100 100 99 99 100 100 100 99 100 100 100 99 99 100 99 96 43 36 35 26 20 20 20 20 19 18 20 23 23 24 23 25 25 24 22 22 23 24 26
88 99 100 100 100 100 100 100 100 100 99 100 100 100 99 100 99 99 99 97 59 29 27 24 21 22 24 24 23 23 26 27 24 24 36 76 91 54 28 30 28 28 35
95 94 97 100 100 100 100 100 100 100 100 100 99 99 100 100 100 97 97 95 51 30 26 24 24 28 30 29 33 60 84 69 51 45 52 96 80 34 38 45 40 34 53
100 92 93 100 99 100 100 100 100 100 100 100 99 100 100 100 98 94 95 80 45 29 25 27 30 39 79 94 95 90 86 58 48 88 97 97 95 64 62 89 95 89 95
100 98 97 98 100 99 99 100 100 100 100 100 100 100 100 99 100 98 89 75 54 52 58 57 63 94 98 99 98 96 96 95 94 96 96 96 97 97 96 94 89 95 96
97 99 100 99 98 98 99 98 99 99 100 100 100 100 100 99 99 99 99 98 99 100 100 99 98 98 99 99 98 98 98 97 97 97 98 99 99 97 96 95 96 97 96
86 99 99 98 96 97 98 99 99 100 99 100 100 100 99 100 99 99 100 100 99 99 100 100 99 99 99 99 99 99 98 98 97 97 98 97 96 96 95 96 96 97 97
98 100 100 98 97 97 98 98 99 99 99 99 99 99 100 99 99 99 100 99 99 100 99 99 98 98 98 97 97 98 98 97 97 97 97 95 95 97 97 98 100 97 96
99 100 98 98 98 97 96 97 100 100 99 99 99 99 99 99 99 99 99 99 99 99 99 98 94 92 95 98 98 98 97 97 96 98 97 98 97 97 98 98 96 74 65

GFSGL_850_rhum_078.txt.gz
RH
28 38 51 49 47 45 43 41 49 65 64 66 73 79 81 75 58 57 55 46 46 48 53 57 59 60 63 67 76 84 89 97 96 96 92 99 94 100 99 100 100 100 99
36 36 50 56 54 51 50 48 50 64 78 80 74 64 63 59 57 51 50 49 50 52 55 58 63 69 71 74 78 93 97 92 95 100 100 100 100 100 100 100 100 100 100
44 44 47 58 62 61 60 60 62 68 72 69 65 63 60 56 55 51 51 52 54 55 57 60 65 72 79 86 93 98 98 98 96 94 96 98 100 100 100 100 99 98 98
52 53 52 60 63 65 67 69 70 69 66 62 60 59 57 55 55 57 57 58 58 60 63 68 76 83 96 99 100 99 97 99 98 99 99 99 100 100 100 100 98 100 88
54 57 58 65 73 75 73 73 73 72 69 66 63 60 59 60 61 61 58 56 58 60 65 76 87 95 100 100 100 100 98 98 98 98 97 97 99 100 99 98 99 99 90
50 53 66 68 73 76 76 76 76 74 71 68 65 64 64 62 61 58 57 62 66 62 72 99 100 100 99 99 100 99 99 100 100 100 98 96 99 99 97 100 99 69 82
51 54 58 71 74 78 80 78 76 73 71 70 68 68 64 65 62 61 62 68 78 92 98 98 99 99 99 99 100 91 64 76 92 100 99 100 100 100 85 79 55 49 40
59 53 56 67 75 79 81 80 78 75 72 71 70 67 66 65 63 64 66 69 87 98 98 99 99 97 99 99 90 50 21 14 13 15 27 44 45 76 40 44 51 38 27
70 57 58 61 76 80 78 79 79 78 76 74 73 70 69 67 65 64 66 82 94 97 99 99 99 98 99 98 52 18 16 17 17 15 14 16 18 32 29 26 28 24 20
78 67 62 63 70 81 81 82 82 81 81 80 77 76 73 69 69 68 73 89 93 98 99 99 98 100 100 47 18 18 17 17 18 20 17 16 15 13 12 12 12 13 12
86 77 69 70 76 80 84 86 86 86 86 84 82 81 79 75 74 77 85 97 97 97 91 100 100 88 34 17 16 17 17 16 18 18 18 20 18 16 13 13 12 12 10
92 84 81 84 80 84 88 88 88 89 89 89 87 86 83 81 79 84 98 98 98 96 79 66 42 19 20 19 17 17 14 13 14 17 19 19 16 14 13 14 15 14 13
98 90 88 89 94 94 95 93 92 92 92 92 92 90 87 86 85 90 99 99 98 98 52 25 18 18 22 22 18 16 12 14 16 19 19 17 16 15 15 14 13 12 13
92 98 92 94 96 100 99 98 98 95 97 97 97 95 92 91 87 98 100 100 98 98 42 17 17 20 23 25 23 18 17 18 21 22 19 18 16 15 15 14 15 15 16
85 89 99 97 100 100 100 100 99 99 100 100 100 98 90 85 84 98 100 100 100 100 48 23 16 15 19 19 18 21 21 22 22 23 20 18 17 16 16 17 18 20 20
86 88 92 100 100 100 100 100 100 100 100 100 98 92 88 88 99 100 99 99 100 99 56 31 18 15 18 19 20 21 23 24 25 26 23 19 17 16 16 17 20 19 20
91 89 96 100 99 100 100 100 100 100 100 100 98 97 99 100 100 100 100 100 99 99 69 32 26 20 22 26 24 23 20 22 25 27 26 22 20 19 24 25 22 21 25
66 83 93 99 100 99 100 100 100 100 100 99 99 100 100 99 100 100 100 100 99 99 83 36 24 22 22 22 22 22 20 19 21 23 24 24 24 25 27 35 33 23 23
84 79 97 99 100 100 100 100 100 100 100 100 100 100 100 100 100 99 100 100 99 98 96 35 23 23 22 22 22 22 23 22 22 24 23 24 24 44 80 91 53 29 36
95 100 100 100 100 100 100 99 100 100 100 100 100 100 100 100 99 99 100 100 99 98 98 84 29 26 25 25 27 27 26 25 31 45 59 55 54 54 85 84 39 39 58
100 100 95 98 98 100 100 100 99 99 100 100 98 100 100 100 100 100 100 97 95 97 99 88 35 27 28 29 33 32 32 40 69 92 91 78 82 92 96 86 50 51 77
100 100 100 96 96 97 100 100 100 99 99 99 99 99 100 100 99 100 100 98 92 95 90 63 57 63 33 34 37 89 99 98 96 96 96 81 90 98 97 96 96 96 98
97 96 93 91 96 97 98 99 100 100 99 99 99 99 100 99 99 100 99 97 94 90 85 65 61 63 75 97 98 98 98 96 99 100 98 98 96 97 97 95 97 97 96
96 95 89 98 100 97 97 98 98 99 100 100 99 99 99 99 99 99 100 100 100 99 99 99 99 99 99 99 99 98 99 99 99 98 98 98 97 97 96 97 96 97 98
96 96 98 100 98 95 96 96 98 99 100 100 100 100 99 99 99 99 100 100 100 100 99 99 99 100 100 99 99 99 99 99 98 98 97 97 97 97 98 98 97 96 96
96 96 97 95 93 93 96 97 97 98 100 100 100 99 99 99 99 99 99 99 100 100 100 99 99 99 99 98 99 99 99 98 97 97 97 97 97 97 96 96 96 95 95

GFSGL_850_rhum_081.txt.gz
RH
28 26 28 38 48 48 46 45 43 44 58 69 74 73 75 78 81 77 75 63 58 53 48 49 50 52 52 56 62 68 78 95 100 99 99 87 86 99 96 100 100 100 100
36 36 34 34 46 53 52 49 47 46 52 74 84 85 84 89 86 76 63 58 52 50 51 53 54 55 56 61 67 75 81 100 100 100 96 94 99 100 100 100 100 100 100
44 45 47 47 49 53 56 56 54 54 62 81 90 88 79 70 65 63 58 55 54 54 55 54 54 54 59 66 79 88 98 97 97 96 93 92 90 97 100 100 100 100 100
43 49 53 57 62 64 66 68 69 70 72 73 73 72 70 65 62 60 58 57 56 56 54 51 52 58 65 75 96 99 98 99 99 99 98 97 96 96 97 100 100 100 100
47 45 52 61 62 68 74 76 77 75 74 72 70 68 65 63 60 58 57 58 56 53 50 49 51 61 84 99 100 99 99 99 98 100 100 99 99 99 99 100 99 100 98
47 52 51 55 65 67 73 77 78 78 77 76 72 69 64 61 60 60 59 57 54 53 52 49 56 86 97 99 99 99 100 99 97 99 99 99 99 99 100 99 100 99 99
31 44 54 54 58 71 75 78 76 77 78 77 73 69 67 67 65 61 57 54 54 56 56 54 76 95 98 98 98 99 100 92 94 100 99 99 99 99 99 99 98 95 67
38 39 54 58 56 67 81 81 82 82 81 79 75 72 71 68 63 60 57 55 54 57 64 86 99 99 99 99 99 98 67 40 20 20 43 67 86 79 76 75 60 50 49
51 54 64 69 62 62 77 79 81 83 82 78 76 75 74 71 67 63 60 61 61 69 81 96 99 99 99 98 100 88 42 18 15 14 14 15 18 29 39 40 38 32 34
68 70 78 78 73 69 71 83 86 86 84 84 82 80 80 77 74 70 65 63 60 71 87 100 100 99 99 100 92 31 17 17 18 17 17 16 15 17 17 14 19 18 16
82 87 89 85 79 81 78 88 91 90 89 88 86 85 83 82 80 77 71 68 70 83 86 91 100 100 100 91 27 18 20 18 18 18 19 20 21 19 17 15 13 13 12
78 83 95 92 85 87 91 92 96 97 95 93 91 90 88 87 86 82 78 77 87 94 92 86 88 95 76 28 16 17 16 15 17 19 20 21 20 16 15 15 14 14 12
71 77 86 98 95 91 98 100 100 100 99 95 94 92 91 91 92 88 86 87 98 98 99 83 62 41 20 18 18 19 17 14 14 16 17 17 17 16 16 16 14 14 14
63 72 80 88 99 99 98 100 100 100 100 98 97 97 96 99 95 93 90 96 99 98 98 87 36 21 19 21 22 21 18 15 19 22 19 18 17 16 15 15 15 15 15
51 58 72 82 96 100 100 100 100 100 100 100 99 100 100 100 96 99 92 94 100 98 100 98 34 21 20 21 22 24 22 22 20 23 24 22 19 18 18 17 17 18 20
56 56 60 72 83 99 100 99 100 100 100 100 100 100 100 96 90 92 93 98 100 100 100 100 68 24 18 18 20 21 21 23 24 25 25 23 21 19 18 19 21 26 27
79 74 69 65 74 95 100 100 99 100 100 100 100 100 99 100 98 97 99 99 100 100 98 99 97 41 19 17 19 19 21 23 28 27 26 26 24 22 19 19 26 29 26
76 88 85 81 82 96 100 100 100 100 100 99 100 100 100 100 100 100 99 100 100 100 100 99 99 91 30 22 23 26 25 27 22 21 22 25 26 24 24 24 28 39 49
76 85 93 99 100 100 100 99 100 100 100 100 100 100 100 100 100 100 100 99 99 100 99 99 98 98 34 30 30 29 27 26 23 20 20 22 24 27 25 26 59 80 81
87 92 100 100 100 100 95 98 99 100 100 100 100 100 100 100 99 99 99 99 99 99 100 99 98 98 35 32 32 28 26 25 24 23 22 24 27 34 48 42 58 87 79
95 100 99 100 100 98 100 99 97 99 99 99 100 100 100 99 100 100 100 100 99 100 100 99 98 99 67 32 34 31 29 28 28 27 26 41 68 90 83 84 81 96 75
95 99 100 100 96 99 100 98 98 97 99 99 99 99 100 99 100 100 99 100 99 100 100 99 99 98 87 39 30 29 31 34 40 80 78 78 96 98 96 93 96 98 96
99 100 100 100 99 91 98 97 98 97 97 98 100 100 99 99 100 100 99 100 100 100 100 99 96 84 58 66 74 69 90 79 89 99 98 100 99 98 98 95 98 97 97
96 98 97 96 96 96 96 97 96 97 97 97 99 100 100 99 100 99 100 100 100 100 100 99 94 83 65 65 73 83 95 100 99 98 99 99 100 99 97 97 96 97 96
97 98 97 96 96 97 95 93 92 96 97 98 99 99 100 99 100 100 99 100 100 100 99 100 100 100 99 99 99 99 99 99 99 98 98 98 98 98 96 97 98 96 96
99 97 98 98 96 94 95 97 97 97 97 97 99 99 100 100 100 100 100 100 100 99 99 99 99 99 99 99 99 99 98 98 98 98 98 97 97 96 96 96 96 96 97

GFSGL_850_rhum_084.txt.gz
RH
34 37 37 37 44 50 49 48 46 44 47 64 72 74 79 84 82 77 77 86 86 71 61 58 51 47 48 51 53 55 59 67 96 99 99 99 95 84 86 97 100 99 99
39 36 37 39 43 49 54 52 50 47 47 50 70 80 83 82 82 83 87 77 73 64 58 53 50 50 51 53 54 58 64 72 90 99 99 98 94 88 99 100 100 100 100
38 42 45 41 41 43 50 58 58 56 54 57 72 86 88 88 89 92 88 80 66 59 54 51 50 51 52 52 55 64 70 84 100 99 98 92 91 89 92 98 99 100 100
44 43 44 51 53 51 50 52 57 62 64 69 82 94 100 100 96 85 72 65 60 55 52 52 53 52 53 55 62 69 79 97 99 97 97 96 96 96 96 96 98 99 100
34 38 47 45 49 58 62 64 67 69 72 75 77 79 78 77 74 71 66 60 57 55 54 54 52 50 49 53 66 90 100 100 98 100 98 99 98 98 97 99 100 100 100
33 31 33 46 49 51 64 70 75 76 76 76 75 75 74 72 69 66 62 60 60 58 55 52 50 48 53 77 97 100 99 100 99 99 99 99 99 100 99 100 100 100 100
38 37 36 38 53 57 58 75 80 81 81 80 80 80 79 76 71 67 64 64 62 59 56 56 54 54 69 92 98 100 99 99 99 99 99 99 99 99 99 99 100 99 99
46 46 47 48 53 64 65 65 81 85 85 85 86 85 81 77 73 71 68 65 63 60 58 53 58 57 81 96 99 99 100 91 65 46 58 90 99 99 99 98 99 99 89
59 61 61 61 65 71 72 72 80 88 89 87 86 85 82 80 78 75 69 66 63 62 57 61 70 80 92 99 99 98 97 66 34 15 13 15 21 33 54 69 70 69 56
63 61 61 70 79 79 80 78 80 89 90 92 90 87 84 83 81 76 70 68 66 64 63 65 75 86 99 99 99 100 92 44 19 16 16 15 15 20 29 40 39 44 36
60 66 70 73 85 89 83 82 83 88 94 92 91 89 88 85 83 80 75 72 70 68 65 70 78 90 98 100 100 97 37 20 18 17 18 18 19 19 21 18 16 18 16
33 47 64 74 82 94 94 88 91 93 97 99 94 92 90 89 86 84 81 77 77 75 76 83 86 97 100 100 96 42 20 20 18 18 19 20 20 20 19 17 14 14 13
32 27 31 59 77 85 98 100 99 99 100 99 96 93 91 90 89 89 88 86 83 84 89 94 94 90 100 99 65 22 19 18 17 16 18 20 20 19 16 15 15 15 16
32 31 29 30 46 76 93 99 100 100 99 100 100 100 97 96 96 95 94 94 98 96 100 96 98 77 73 68 33 25 25 22 19 17 18 20 18 18 16 15 14 14 14
36 35 35 38 36 43 72 94 99 99 100 100 100 100 100 99 94 96 100 99 96 98 100 99 98 75 38 29 32 56 41 29 22 22 22 21 18 17 16 16 15 15 17
47 48 53 52 59 51 51 67 91 99 99 100 100 100 100 100 100 100 100 100 100 100 100 100 99 98 54 27 23 25 30 31 28 26 25 25 24 21 19 18 17 20 28
49 50 54 75 95 96 79 89 90 87 100 100 100 100 100 100 100 100 100 100 100 100 98 100 100 99 96 36 21 21 22 25 27 28 27 26 25 23 20 18 19 22 31
62 68 71 71 94 100 100 100 100 100 99 98 99 100 100 100 100 100 100 100 100 100 98 98 99 99 99 84 41 20 22 24 28 27 26 26 28 27 24 20 23 25 31
58 67 89 93 99 100 100 100 100 97 100 99 98 99 99 100 100 100 100 99 99 99 98 97 100 100 99 99 70 27 24 27 27 27 23 23 25 28 27 24 25 26 33
58 65 78 99 97 99 100 100 100 100 98 96 99 98 99 99 99 99 99 99 99 100 100 100 99 99 100 100 81 35 36 37 35 31 26 22 22 24 27 29 28 38 46
66 71 80 99 93 99 100 100 100 100 100 98 95 98 99 99 99 99 99 100 99 99 99 100 99 99 100 100 87 35 33 28 27 26 26 25 25 26 30 36 73 80 60
69 83 97 100 96 100 100 100 100 100 100 99 93 96 98 98 99 99 99 99 99 100 100 100 100 100 99 99 69 34 32 29 27 27 30 30 39 44 44 63 95 95 94
78 99 98 95 96 100 100 100 100 100 100 100 95 96 97 98 99 99 99 99 99 99 100 100 100 100 99 99 99 58 31 27 29 43 34 58 97 98 87 94 98 97 94
92 100 100 98 97 97 99 97 96 98 90 91 94 96 97 98 98 99 99 99 99 100 100 100 100 100 99 98 84 62 52 47 49 60 91 97 98 100 98 98 97 97 96
95 98 97 94 95 95 95 96 100 94 88 91 96 97 96 97 98 98 99 99 100 100 100 100 100 100 100 97 83 65 64 88 95 98 98 98 98 98 98 98 98 98 98
97 96 95 96 96 95 95 96 97 95 97 95 98 98 96 97 97 98 100 100 99 100 100 100 100 100 100 99 92 94 99 100 100 100 99 98 98 98 98 98 97 97 96

GFSGL_850_rhum_087.txt.gz
RH
40 42 42 47 55 54 52 53 56 65 69 71 72 72 78 80 86 91 96 97 90 83 80 83 81 59 56 52 50 52 53 58 82 89 92 89 93 86 90 87 90 96 99
41 43 42 43 44 50 55 57 55 53 53 55 74 85 82 85 93 96 96 84 77 73 81 80 66 60 55 53 55 53 52 55 65 94 99 100 98 97 91 88 97 100 100
41 40 40 46 49 48 51 57 62 60 57 55 56 68 85 92 97 92 90 86 81 82 78 69 62 56 53 54 54 53 56 68 76 87 98 99 99 92 89 85 86 87 96
33 34 38 42 43 51 55 52 55 62 65 66 69 75 85 99 100 99 96 94 91 81 76 67 59 54 52 54 56 60 64 79 94 91 97 98 98 95 93 91 90 90 90
37 35 32 31 36 44 47 60 63 64 67 71 74 81 97 100 99 100 100 98 92 80 68 61 56 54 53 55 58 57 66 77 82 95 100 99 95 95 94 94 97 96 99
40 38 35 32 31 32 45 51 64 68 72 76 77 78 81 88 97 98 92 81 73 68 63 59 58 57 54 53 52 60 68 78 91 100 98 99 98 100 99 95 97 100 99
44 49 50 46 42 40 42 54 57 74 79 76 78 80 80 81 81 82 79 75 69 65 64 63 62 56 52 50 51 59 68 95 96 94 98 99 99 99 99 98 98 98 100
47 48 50 50 52 54 57 61 66 66 81 83 80 78 80 82 81 80 77 74 71 69 67 64 60 58 54 50 56 71 90 98 99 99 94 98 99 99 98 99 98 99 99
54 54 58 60 56 55 62 69 71 74 72 85 88 86 83 84 82 80 77 75 73 70 66 63 59 55 54 66 76 92 99 99 92 58 31 23 29 44 52 83 88 89 93
22 27 47 68 84 74 71 76 79 84 88 80 93 93 91 89 84 81 78 76 73 68 66 64 61 61 64 87 96 99 99 99 81 42 20 15 15 17 20 40 53 60 64
19 17 17 24 50 81 84 88 94 90 97 98 92 96 95 94 91 86 82 78 74 71 70 67 65 70 82 99 99 100 100 99 59 23 17 16 18 18 22 25 26 29 29
25 22 21 20 25 43 85 92 99 99 99 99 100 99 98 95 94 90 86 82 80 78 76 74 72 79 92 100 100 100 100 84 28 20 18 18 18 18 18 17 16 14 13
26 33 48 32 24 22 27 73 92 98 100 99 100 100 99 100 97 95 94 90 86 85 83 81 80 87 96 100 100 100 100 38 26 19 18 19 19 20 20 18 15 14 13
35 32 35 33 37 31 32 33 66 86 96 100 100 100 100 100 100 99 99 98 96 92 90 87 89 94 97 98 100 100 75 26 22 19 19 19 20 21 20 16 14 14 13
44 39 43 50 48 42 55 45 35 48 99 100 100 100 100 99 98 100 100 100 100 98 96 100 99 97 97 93 100 98 52 31 26 23 20 18 20 21 18 16 15 14 14
76 75 77 67 56 58 72 74 58 42 44 83 100 100 100 100 100 100 100 100 100 100 99 100 99 100 96 93 76 72 46 35 29 25 22 24 23 21 18 17 16 14 16
71 85 90 86 61 66 83 100 96 47 55 52 89 100 100 100 99 100 100 100 100 100 99 100 99 99 99 97 96 53 34 33 32 29 28 27 27 29 24 20 18 18 20
69 77 67 76 95 88 84 96 100 100 99 95 59 90 100 99 100 99 100 100 100 100 98 99 100 100 99 99 98 81 33 28 27 32 32 28 27 28 26 22 20 20 22
68 87 100 100 100 100 99 100 100 100 100 100 98 82 93 99 99 98 99 100 99 100 100 97 97 99 99 100 100 99 64 31 22 28 30 28 28 28 28 27 24 21 25
72 91 94 100 100 100 99 98 100 100 100 99 97 100 99 97 98 98 99 99 99 99 100 100 98 100 100 100 100 99 99 78 25 26 28 27 26 26 26 28 28 26 25
95 77 74 93 98 100 97 90 98 100 100 98 100 100 89 100 97 98 98 98 99 100 100 99 100 100 100 100 100 99 100 81 31 25 30 29 29 24 24 26 30 32 30
89 74 89 99 94 96 93 91 100 100 100 100 100 100 92 99 98 97 98 98 99 99 99 99 99 99 99 99 99 99 99 82 36 32 34 31 29 28 27 27 31 37 43
91 95 96 100 97 94 93 91 96 100 98 95 96 99 97 91 92 97 98 98 98 98 99 99 99 99 99 99 99 98 98 72 30 30 29 26 27 28 30 52 87 90 58
96 97 99 100 95 95 94 92 92 92 94 96 97 99 98 93 93 96 98 98 98 98 99 99 99 99 99 99 99 98 97 52 38 35 32 31 36 39 68 97 97 96 89
96 96 98 99 96 92 94 94 90 89 92 96 100 98 100 97 96 96 98 98 98 98 99 99 99 99 99 99 99 98 96 67 45 38 38 53 93 96 98 98 98 98 99
95 96 97 96 94 96 94 94 93 96 100 100 100 100 100 99 96 97 98 98 98 99 99 99 99 99 99 99 99 99 98 96 96 96 98 98 99 99 98 98 98 98 97

GFSGL_850_rhum_093.txt.gz
RH
68 69 73 74 78 83 86 89 92 98 100 92 91 88 87 86 82 79 79 89 84 78 86 81 86 77 88 91 90 91 91 70 58 59 66 70 77 84 86 86 81 80 83
56 56 53 53 50 51 55 58 60 62 64 64 67 71 80 84 87 82 86 83 92 96 87 88 90 93 97 100 96 92 75 59 58 58 67 78 87 95 99 95 85 86 87
38 36 36 37 40 41 42 43 44 44 46 51 57 60 61 57 62 92 99 100 100 99 100 99 99 99 100 100 94 91 64 62 59 60 68 76 87 99 99 96 92 94 87
36 36 36 36 34 32 30 32 36 40 45 50 50 53 61 70 72 74 98 98 100 100 100 100 100 100 100 100 93 82 66 62 62 62 64 78 100 100 100 98 99 92 91
36 35 35 34 34 34 33 31 30 32 40 50 56 61 62 63 73 84 98 98 100 100 100 100 99 100 100 100 89 73 67 63 67 70 70 83 98 98 99 99 99 93 90
33 32 31 31 33 33 33 35 35 34 34 37 49 63 68 74 77 80 98 100 98 99 98 99 100 100 100 92 79 73 73 66 60 64 71 82 92 99 99 96 97 94 95
24 22 21 23 25 28 32 35 40 40 39 42 48 55 70 80 81 85 91 100 100 100 100 100 100 99 94 87 80 72 66 63 61 67 64 64 77 81 95 99 99 97 94
20 20 19 17 16 18 22 26 32 42 46 46 48 60 66 71 88 91 92 93 98 100 100 100 100 96 88 79 71 68 66 67 62 58 57 56 63 78 89 97 100 99 98
21 20 20 17 15 14 15 15 18 25 38 53 65 72 82 96 94 96 97 96 95 94 94 91 86 83 79 75 70 66 64 60 57 60 56 64 78 85 87 99 100 100 99
20 19 19 18 17 16 16 14 12 14 18 26 78 96 99 99 100 100 100 100 96 94 91 89 87 82 80 77 71 68 63 58 60 63 71 78 82 70 44 39 67 64 100
25 24 23 23 22 24 27 26 24 22 23 26 26 76 89 97 98 99 100 100 100 99 96 92 88 83 80 79 71 70 63 66 71 80 82 83 62 37 27 27 31 33 36
21 20 22 25 29 34 41 36 37 41 41 36 28 36 85 96 93 100 100 100 100 100 99 94 90 88 83 79 76 73 78 84 85 82 84 77 51 30 19 19 26 32 36
57 45 28 24 28 36 46 56 59 54 50 48 51 48 44 98 100 100 100 100 100 100 100 100 100 99 92 84 78 76 92 92 96 93 85 78 43 23 18 19 21 26 27
39 42 42 41 37 41 52 60 64 61 63 79 74 53 49 50 75 96 99 100 100 99 100 100 100 100 100 94 91 89 96 95 99 98 93 72 31 21 18 20 19 17 19
45 49 51 58 64 62 59 64 66 61 75 94 100 100 100 98 79 95 99 99 99 99 100 100 100 100 100 99 100 100 99 100 98 100 99 72 31 22 21 21 20 20 17
52 55 58 68 72 71 67 56 54 53 58 70 100 100 100 100 100 99 91 99 99 99 99 100 100 99 100 99 100 100 99 99 99 100 100 74 31 24 23 23 22 19 16
63 64 64 72 75 75 75 71 52 44 58 64 100 100 100 100 100 100 100 98 100 99 99 99 98 99 99 100 100 99 100 99 100 99 98 80 37 29 31 26 23 19 17
77 67 78 80 78 82 94 80 83 71 70 56 72 96 100 100 100 100 100 100 99 100 99 99 100 99 99 99 100 99 99 99 99 99 99 89 41 36 35 28 23 20 19
94 86 77 92 92 91 98 99 100 100 86 82 87 86 98 100 100 100 100 100 100 99 100 100 99 99 99 99 99 99 99 99 99 98 98 90 45 45 36 30 26 23 22
86 87 98 96 94 97 98 99 100 98 92 89 90 99 100 100 100 100 99 99 100 100 99 99 99 99 99 99 99 99 99 99 99 98 98 93 63 49 42 36 35 33 26
96 94 96 97 95 97 96 96 96 96 95 92 89 91 95 99 93 93 99 98 100 100 99 99 99 100 99 99 99 99 99 99 99 98 98 97 78 48 50 42 37 35 30
99 98 97 93 93 95 96 92 96 98 99 97 92 90 85 94 89 97 100 100 100 99 100 99 100 100 100 99 99 98 99 99 99 99 98 98 84 50 42 45 37 35 33
99 98 98 98 97 94 93 93 96 96 96 94 90 90 92 91 95 98 100 100 100 100 100 100 99 100 100 98 98 99 99 99 97 97 98 98 97 93 36 39 34 32 33
94 92 92 90 92 98 95 94 96 98 98 98 94 94 94 93 99 100 100 99 99 100 100 97 96 98 98 99 98 98 99 100 100 99 99 98 98 97 34 34 34 33 30
95 95 97 97 96 96 97 96 94 89 93 92 94 94 98 98 99 100 100 100 100 96 91 94 96 97 97 99 99 99 100 100 99 98 98 98 98 64 32 36 40 39 37
96 98 96 96 97 96 96 94 91 91 95 96 99 98 97 98 99 100 100 100 97 92 93 95 97 98 98 98 98 99 99 99 98 98 98 98 94 58 46 70 44 35 35

GFSGL_850_rhum_096.txt.gz
RH
77 77 79 86 92 97 98 97 96 98 99 100 98 99 89 85 87 90 89 90 89 90 95 94 99 100 98 93 92 92 85 81 90 94 72 65 66 69 68 76 81 84 79
49 47 50 56 60 62 64 66 67 69 69 68 70 70 75 90 94 89 87 84 90 90 92 98 94 88 89 91 92 93 89 91 99 99 85 65 64 71 84 89 91 92 83
42 40 39 37 36 35 37 40 45 48 53 57 59 64 65 62 68 84 99 100 99 100 99 99 100 94 86 95 100 99 98 100 98 86 67 65 66 74 80 90 92 84 81
41 41 40 38 36 35 34 34 32 32 35 44 55 60 60 60 66 75 86 100 100 99 99 100 100 100 98 94 100 99 100 99 94 68 63 66 68 74 90 87 98 94 87
33 31 30 32 36 36 36 35 34 34 34 33 33 41 54 63 69 70 74 88 99 99 100 100 99 97 100 100 98 100 100 100 84 67 68 68 70 73 71 84 96 97 81
27 25 23 22 21 20 19 22 29 34 39 41 42 40 38 51 72 79 80 78 88 98 98 99 98 100 100 100 100 100 100 96 81 71 70 67 64 67 71 84 100 92 92
23 21 20 19 17 15 14 14 15 15 16 22 40 48 48 56 64 80 88 92 95 98 98 91 96 99 100 100 100 99 99 91 89 78 74 77 70 72 81 84 92 91 95
21 19 17 17 16 15 14 14 13 13 13 13 15 23 45 54 58 75 98 99 98 98 98 96 96 99 100 100 100 100 94 87 84 82 72 82 81 86 77 80 90 98 99
27 24 22 21 18 17 16 16 15 14 14 13 14 15 17 36 73 98 100 100 100 99 100 100 100 99 100 100 100 100 94 86 81 74 74 77 70 71 72 84 93 100 100
31 30 30 29 28 26 22 19 18 17 17 19 21 24 20 24 66 96 98 100 99 98 100 100 100 99 96 96 94 90 85 77 73 73 72 69 68 78 85 92 93 94 100
29 30 28 32 42 36 36 37 42 37 31 25 24 24 27 26 42 84 88 99 99 99 99 98 100 100 98 95 91 85 80 78 75 73 75 78 84 86 87 84 61 55 60
19 16 15 17 25 30 35 33 32 39 45 43 36 27 27 35 37 67 100 100 100 100 98 100 100 100 100 100 97 91 89 83 79 77 78 78 81 84 75 47 35 32 27
31 30 25 18 17 26 45 52 53 58 58 54 48 43 33 32 33 38 64 99 100 100 99 98 100 100 100 100 100 98 98 88 79 78 78 78 80 77 50 32 25 24 29
45 46 45 44 39 40 50 69 72 67 68 64 63 60 55 46 39 40 61 85 100 100 100 100 99 100 100 100 100 100 100 95 87 82 80 88 93 75 43 26 20 22 30
58 56 53 51 52 51 59 74 80 79 85 74 64 96 100 100 83 96 100 100 100 100 99 99 100 100 100 100 100 100 100 100 99 99 100 100 99 80 40 24 21 24 27
71 67 68 67 63 68 69 76 77 81 78 68 72 94 97 100 100 100 100 100 100 92 99 100 100 99 100 99 100 100 99 100 100 100 100 100 100 91 42 26 23 22 24
78 84 84 82 74 75 83 92 84 70 80 70 76 87 98 100 100 100 100 100 99 100 98 100 99 99 99 99 99 99 100 100 99 100 100 99 99 100 49 30 27 27 26
88 86 87 90 89 85 87 95 96 100 92 66 71 81 94 98 100 100 100 100 99 98 100 100 100 99 99 99 100 99 99 99 99 99 99 99 99 98 70 40 36 32 28
82 85 93 97 95 93 96 94 97 91 99 89 82 79 84 99 100 100 100 98 97 94 97 100 100 99 99 99 99 99 100 99 99 99 98 98 99 98 93 44 36 34 30
81 83 99 100 98 96 95 92 96 97 94 88 88 87 83 90 95 87 90 95 97 95 96 100 100 100 99 99 99 99 100 99 98 99 99 99 98 98 97 64 34 33 30
89 93 99 96 93 98 98 98 99 98 90 92 92 84 96 100 95 86 86 91 95 100 100 98 100 100 100 98 99 98 99 98 99 98 98 98 98 98 96 93 65 37 32
93 94 90 90 86 89 95 93 95 95 96 98 94 90 87 86 86 92 91 96 97 100 100 99 100 100 100 99 98 99 98 99 99 98 98 98 98 99 97 95 77 44 44
95 96 94 94 97 96 92 89 92 95 94 94 97 93 86 90 90 92 92 89 89 100 100 100 98 100 100 100 98 99 98 99 98 100 99 98 98 99 97 94 94 56 48
97 93 96 94 92 100 97 96 100 99 98 96 91 90 91 92 94 94 99 100 100 100 100 100 100 100 100 100 98 99 100 100 99 100 99 98 99 99 98 96 70 53 40
91 93 94 98 98 100 98 94 96 94 95 93 90 94 95 94 93 94 98 100 100 100 100 100 99 98 100 99 98 97 99 99 99 99 99 99 100 99 98 97 89 70 43
89 90 94 94 96 100 100 97 99 98 98 93 92 91 92 92 93 94 97 100 100 100 100 99 94 100 100 97 97 97 98 99 99 98 99 99 100 99 98 97 74 43 37

GFSGL_850_rhum_099.txt.gz
RH
73 75 68 73 82 87 85 93 92 95 96 100 97 92 96 93 98 95 99 93 99 96 97 100 96 95 95 100 96 99 100 100 100 100 100 98 95 88 65 70 70 74 73
50 45 41 43 49 58 46 52 57 58 64 66 72 76 82 89 100 100 95 93 96 96 99 100 99 96 92 91 100 92 88 96 100 97 92 90 86 82 70 72 81 80 82
45 43 42 41 39 38 38 37 37 37 37 45 49 54 56 64 72 84 99 100 100 98 91 91 86 93 91 95 91 96 91 95 94 94 88 94 88 73 71 77 76 80 85
38 36 33 32 30 31 32 33 34 34 35 36 36 39 45 54 60 63 72 79 88 95 100 100 99 99 100 99 99 90 94 98 100 100 100 100 96 76 73 73 77 86 84
28 27 26 24 22 20 19 18 18 18 22 28 34 37 40 44 54 60 66 71 84 93 100 97 99 99 100 100 100 100 100 100 100 100 100 100 92 71 69 70 79 94 89
26 24 22 22 20 18 17 16 16 15 14 14 14 15 29 41 49 62 74 73 74 86 99 99 97 97 99 100 100 99 100 97 98 99 100 99 80 65 69 71 77 84 92
28 25 23 22 20 18 17 16 16 17 17 16 15 14 14 14 30 45 52 64 85 87 89 98 98 97 99 100 100 100 100 100 100 100 98 94 78 70 74 78 73 72 72
26 25 24 22 21 20 20 20 19 18 18 18 18 19 18 15 14 13 28 58 75 97 99 100 99 96 95 100 100 100 100 100 100 100 99 88 81 84 84 96 94 80 88
33 32 29 27 27 27 27 27 24 23 22 21 20 19 19 18 18 16 32 35 57 90 100 100 99 98 100 100 100 100 100 100 100 100 96 100 98 99 84 84 82 86 98
30 28 26 22 21 20 22 23 25 32 32 25 22 26 31 29 24 21 23 96 96 84 90 95 100 100 99 100 100 100 100 100 99 100 95 92 89 83 84 67 70 69 90
19 16 14 14 16 18 21 24 26 29 34 40 50 44 37 38 35 37 40 82 98 99 97 93 89 98 98 99 100 100 100 100 100 100 99 97 98 93 74 74 81 80 92
26 24 22 22 22 23 26 30 36 45 58 55 50 43 41 41 44 45 42 48 82 100 100 99 95 86 99 99 99 99 100 100 100 100 100 100 93 81 82 83 84 93 94
30 36 41 43 43 41 40 37 38 42 64 78 75 66 58 50 45 52 54 58 70 88 100 100 99 99 99 100 98 97 100 100 100 97 89 80 74 80 85 85 92 86 77
51 52 54 57 57 53 51 50 53 59 75 79 78 82 74 87 69 72 83 100 100 95 94 100 100 99 100 100 100 100 99 100 100 99 91 82 86 93 94 92 85 54 52
55 58 59 60 64 69 66 65 67 69 85 86 80 85 93 96 88 100 100 98 98 98 100 98 99 99 99 100 100 100 99 99 100 100 99 93 95 97 95 87 61 45 40
57 61 66 72 73 79 81 74 64 84 93 87 82 93 80 85 98 100 100 99 99 99 100 100 99 100 99 99 100 100 100 100 99 99 100 100 100 100 98 76 49 39 34
67 66 66 69 72 72 74 84 91 77 84 86 78 84 84 83 86 93 100 100 100 100 100 98 99 99 99 99 99 99 100 100 100 100 98 99 99 99 99 93 54 40 41
61 65 73 74 80 89 96 94 95 95 91 82 92 95 83 80 83 95 100 100 95 96 95 92 96 98 99 100 99 99 99 99 99 99 99 99 99 99 98 98 92 44 38
68 70 79 97 98 100 97 96 95 93 90 98 92 89 82 85 82 79 92 90 91 91 90 92 94 95 99 100 98 98 99 99 99 99 98 99 99 99 98 98 98 54 41
71 76 95 100 95 89 84 84 95 98 98 99 86 82 86 88 85 80 79 88 90 89 88 88 91 97 96 97 99 99 98 98 99 100 99 100 99 99 98 98 98 90 48
82 92 96 91 91 93 94 93 90 100 99 100 91 83 96 100 98 93 82 82 90 91 95 95 92 91 93 97 100 98 98 99 98 98 99 99 97 98 98 98 98 97 54
98 99 92 100 100 98 95 100 98 97 97 98 92 90 96 100 94 85 80 84 86 94 98 94 98 93 94 99 100 99 98 99 98 98 99 98 99 98 98 98 97 96 95
100 97 91 100 100 100 96 97 100 99 97 97 99 99 97 92 87 93 91 89 92 94 98 100 100 94 93 97 98 99 99 98 98 98 98 98 98 98 98 97 97 96 83
100 90 89 88 89 100 96 99 97 95 97 100 95 94 94 90 89 88 86 88 93 100 100 100 100 100 100 100 99 100 99 99 98 98 98 98 97 98 98 97 97 97 94
95 88 87 90 93 96 100 100 98 96 96 96 100 97 96 93 91 90 88 90 94 96 100 100 100 100 100 100 100 100 98 98 99 98 98 98 98 98 99 97 97 97 95
94 91 90 91 95 96 97 96 95 95 96 100 97 94 95 94 94 95 95 95 95 100 100 100 100 100 100 100 100 100 97 97 98 98 98 98 97 98 100 100 98 97 96

GFSGL_850_rhum_102.txt.gz
RH
74 67 57 58 63 85 76 60 54 56 59 62 78 95 99 100 97 97 94 90 100 100 100 96 86 70 78 96 99 99 100 100 100 100 99 98 100 100 100 100 90 86 84
64 62 61 54 46 44 63 66 45 40 41 41 47 59 59 72 82 94 98 98 99 94 100 100 98 91 87 100 99 96 100 97 100 100 100 100 100 100 100 95 90 87 88
68 56 47 35 30 29 29 29 31 32 34 38 40 38 40 52 60 68 78 81 92 100 100 99 91 95 96 97 100 100 96 96 100 100 99 100 98 97 96 92 95 91 88
34 28 26 25 23 21 20 19 18 18 17 17 17 21 30 38 40 42 53 63 70 78 87 91 98 100 100 97 97 99 94 100 96 100 100 99 99 99 100 98 97 90 97
28 27 26 24 22 21 20 19 18 17 17 16 16 16 15 15 20 31 40 44 52 61 68 77 86 98 100 100 100 99 100 100 100 100 100 100 100 99 96 91 98 90 96
31 29 27 25 24 23 22 21 20 20 19 19 18 18 17 16 15 14 14 19 38 50 52 64 81 87 96 100 100 100 99 100 100 100 91 97 100 99 100 98 98 100 100
28 26 25 24 23 22 23 22 22 22 22 21 21 20 19 18 18 17 16 15 13 14 31 49 64 85 94 95 91 100 100 100 100 99 100 100 100 88 95 99 99 88 80
25 25 25 25 24 21 18 16 14 14 16 17 18 20 21 19 18 17 17 16 15 16 22 32 61 67 98 99 98 89 93 100 100 100 99 98 98 100 97 97 94 90 95
30 27 23 20 18 18 19 20 22 22 20 20 21 23 24 22 21 22 22 19 20 20 28 27 47 72 84 96 94 96 97 94 100 100 100 100 100 100 100 96 90 99 98
24 23 25 25 24 23 24 23 25 26 28 27 27 31 36 37 32 28 27 30 33 30 28 80 99 96 94 94 98 98 97 98 100 100 100 100 100 99 96 96 84 99 100
27 25 24 25 26 26 29 29 32 33 33 32 33 37 47 53 56 50 42 41 41 44 56 76 94 100 100 98 99 100 98 99 98 100 100 100 100 100 94 100 95 100 85
26 25 24 26 29 36 43 43 43 44 46 47 53 58 59 59 56 53 59 89 88 100 99 99 92 93 98 98 99 100 100 100 99 99 100 100 100 99 98 99 85 96 93
34 38 41 41 40 38 39 44 51 52 55 59 67 83 75 69 60 51 67 98 100 100 100 100 100 76 86 96 96 100 100 100 100 100 99 99 100 100 100 100 98 91 91
39 36 37 40 45 51 54 60 69 69 68 81 89 94 85 78 75 72 74 98 98 100 100 100 100 100 89 96 100 98 100 100 100 100 99 100 100 100 100 100 97 91 97
36 42 46 48 51 55 56 64 69 66 85 99 100 100 100 100 88 97 96 96 98 99 98 99 99 100 100 91 99 100 99 100 100 100 100 98 100 100 100 100 100 100 100
46 49 51 54 58 63 70 64 60 67 70 80 83 95 100 99 98 100 100 92 92 100 96 94 96 95 96 95 96 99 99 99 99 100 100 100 100 100 100 100 100 99 99
53 56 55 60 64 71 70 87 99 66 74 65 69 95 100 98 96 100 100 98 96 97 88 88 91 94 94 96 97 99 99 99 99 99 100 99 100 100 99 100 100 99 99
53 56 62 61 66 80 96 100 93 88 94 100 80 93 98 95 92 90 100 100 94 88 90 91 87 94 95 88 90 95 98 98 98 99 99 99 99 100 99 99 98 98 97
54 60 65 75 84 97 96 86 90 97 100 100 96 84 77 78 80 84 90 96 89 85 87 86 87 91 88 87 94 93 98 98 98 98 99 99 99 98 99 99 98 98 97
59 70 79 86 90 88 98 100 100 100 97 95 94 99 91 86 89 87 94 96 89 80 83 92 94 96 87 91 99 91 97 98 98 98 98 98 98 98 99 99 98 98 97
69 74 81 84 88 100 100 100 96 97 98 97 96 96 100 98 97 98 97 89 79 81 92 94 100 99 93 92 93 94 95 97 98 98 98 98 98 99 99 98 99 98 97
81 88 88 92 94 100 100 98 98 99 96 97 95 96 99 98 93 90 84 79 81 84 94 98 96 96 100 100 94 92 94 97 96 98 98 98 97 98 98 98 98 98 97
96 95 98 92 86 94 100 99 97 96 96 95 95 95 96 96 94 90 86 83 84 85 91 100 100 100 100 98 94 92 94 97 96 98 98 98 97 97 97 97 98 98 97
100 100 95 94 90 100 96 94 100 100 100 97 96 98 97 100 96 91 88 86 88 89 91 98 99 99 100 100 100 98 97 98 98 97 98 97 97 98 98 97 97 97 96
96 95 97 93 95 95 94 94 100 97 97 97 99 100 96 95 92 90 91 94 95 96 95 97 100 98 100 99 100 100 100 97 96 97 97 97 97 97 97 97 97 97 97
86 93 95 93 95 96 96 95 96 97 98 97 97 98 97 96 95 94 95 95 96 96 95 97 100 100 100 100 100 100 100 98 97 96 97 97 97 97 97 97 97 97 97

GFSGL_850_rhum_105.txt.gz
RH
79 76 61 58 52 49 71 78 73 55 58 47 50 48 58 61 70 95 100 100 94 98 97 100 100 96 99 97 95 95 93 93 89 98 85 85 94 98 98 100 100 100 100
78 72 72 56 45 38 39 46 47 54 31 29 36 39 39 40 49 54 58 71 92 99 100 100 98 99 100 95 94 98 95 87 100 95 99 99 90 96 94 100 100 100 100
58 52 54 47 35 32 27 26 28 26 21 20 19 18 18 23 31 38 43 55 64 73 84 88 99 99 100 100 99 100 100 89 90 100 99 99 100 100 100 100 100 100 98
38 37 29 28 26 26 23 22 22 21 20 20 19 18 18 17 16 15 16 22 33 42 55 71 80 91 97 99 100 99 92 99 100 100 100 98 99 99 100 100 100 100 92
34 31 29 28 26 26 25 24 23 23 22 22 21 21 20 20 20 19 18 17 16 14 15 26 42 63 82 98 98 99 100 100 100 91 99 100 100 99 97 95 100 99 100
31 28 26 25 25 24 24 22 19 16 14 13 13 13 14 16 19 19 19 19 19 19 18 16 14 16 35 58 85 99 100 100 100 100 100 98 99 99 100 99 100 100 100
29 29 28 27 22 15 12 10 10 9 9 9 10 10 9 8 9 10 13 16 17 18 18 18 19 19 16 22 42 78 91 95 99 100 100 96 100 96 95 100 98 99 95
28 27 21 13 12 14 15 17 20 22 24 25 24 24 24 20 20 19 17 16 14 14 15 16 17 17 20 28 36 44 61 86 94 90 100 100 99 100 100 98 99 97 100
25 17 17 20 22 24 26 29 30 30 30 30 30 30 34 33 34 35 36 37 30 23 16 14 21 28 30 33 78 94 79 87 92 90 86 99 100 99 100 100 100 100 100
18 23 27 29 30 32 33 34 33 35 33 32 32 35 37 41 43 47 49 54 49 47 38 28 21 30 88 100 100 100 98 90 95 90 95 96 96 99 100 99 100 100 100
33 38 40 41 40 38 34 36 34 34 33 33 34 32 35 40 40 43 46 52 68 84 92 92 78 31 49 100 96 97 98 99 94 94 98 100 100 100 100 100 100 100 100
36 36 32 30 32 34 34 35 38 44 46 47 48 48 51 64 69 72 70 96 97 100 100 100 100 98 94 82 93 82 95 97 100 99 100 99 100 100 99 99 100 100 100
29 28 29 31 34 38 39 39 37 42 47 54 65 68 74 79 69 61 68 76 88 98 96 100 100 100 100 100 93 98 75 98 100 100 99 100 100 100 100 100 100 100 100
30 31 31 33 34 37 41 47 50 53 58 63 87 99 93 94 95 75 73 88 87 87 91 88 91 97 100 100 100 98 98 99 100 100 98 100 100 100 100 100 100 100 100
31 32 35 37 42 43 45 51 52 54 90 100 99 99 99 96 93 89 100 97 95 98 99 92 87 87 84 91 93 93 94 96 98 100 99 99 100 100 100 100 100 100 100
32 35 41 45 47 53 56 48 51 90 100 100 100 100 99 99 99 97 98 100 98 97 97 98 88 82 85 85 86 89 88 98 98 100 99 99 99 100 100 100 100 100 100
39 41 45 53 58 66 71 92 99 60 64 93 100 100 100 99 100 100 100 100 100 100 98 88 86 86 86 88 90 90 92 96 98 99 99 99 99 99 99 100 100 100 99
44 52 59 63 73 80 90 99 95 100 100 88 80 97 100 100 100 100 100 100 95 92 88 81 79 84 88 90 93 88 90 93 96 98 98 98 98 98 99 99 100 99 99
51 54 63 74 86 94 81 92 100 100 98 90 85 82 86 100 99 94 96 97 96 97 97 89 76 85 92 96 93 89 94 99 98 98 97 96 98 98 98 98 99 99 99
53 67 82 90 84 77 79 100 100 94 100 97 95 90 92 89 92 94 88 96 97 95 90 84 82 88 91 100 95 97 94 95 87 97 97 97 98 97 97 98 98 98 99
59 73 94 90 83 85 88 99 100 99 93 96 98 96 100 97 96 92 86 86 88 84 86 88 87 91 89 94 95 100 100 92 98 96 97 100 98 97 97 97 98 99 98
70 92 96 91 87 84 99 97 90 89 91 100 99 99 100 96 93 95 95 90 92 90 90 90 89 88 92 100 100 100 100 99 100 97 98 98 98 97 97 97 97 98 97
78 94 95 91 90 87 88 90 87 90 100 99 95 91 93 100 97 99 98 91 89 86 86 92 95 94 97 100 98 98 100 97 94 96 96 96 96 97 96 97 96 96 97
92 93 92 93 88 96 92 86 91 90 100 97 93 93 96 98 97 95 95 92 92 91 91 92 94 96 96 96 97 97 95 96 96 98 97 98 96 97 97 96 98 97 97
73 79 92 92 92 93 88 88 88 91 93 93 94 95 96 98 98 95 93 94 95 95 93 97 97 96 99 97 98 96 98 96 97 98 98 98 97 97 97 97 96 96 96
65 71 83 90 90 89 90 87 88 92 94 94 94 96 98 97 96 95 96 96 95 95 96 97 96 98 96 98 100 100 100 99 98 96 97 97 96 96 97 96 97 97 96

GFSGL_850_rhum_108.txt.gz
RH
79 69 54 50 40 36 45 59 78 79 57 43 46 48 39 45 49 55 62 72 90 98 100 96 98 90 100 100 99 95 96 100 100 94 88 85 90 84 82 75 84 82 83
84 69 78 78 41 29 27 26 26 27 46 31 26 22 21 27 24 29 39 40 51 64 67 79 92 100 94 98 100 100 100 100 100 100 100 99 95 88 80 92 90 96 95
43 40 45 50 57 52 39 30 27 26 29 28 25 22 20 20 19 18 17 17 20 28 36 45 59 74 86 99 99 98 100 99 92 92 96 100 100 91 88 92 93 100 100
36 38 35 36 35 30 32 26 25 24 22 21 21 19 18 18 19 20 20 20 20 19 18 16 20 32 50 67 80 91 97 100 100 97 88 100 91 95 99 100 100 100 100
33 30 28 27 28 26 23 19 14 10 8 8 7 7 7 7 7 8 10 13 15 17 18 19 20 19 18 22 42 59 78 86 96 100 100 100 100 99 99 98 98 100 100
31 29 29 28 24 16 12 10 10 11 12 13 14 13 12 13 12 11 12 10 8 8 9 10 12 16 18 19 20 22 49 87 94 95 100 100 97 95 91 99 100 100 100
32 31 28 19 14 14 15 18 19 19 20 20 20 21 20 19 18 17 17 16 17 13 12 10 9 10 11 17 18 21 24 35 85 99 100 100 100 99 92 100 99 94 90
32 28 17 14 15 17 20 23 24 25 26 26 26 29 32 33 34 34 34 33 31 24 23 20 18 16 20 69 88 63 60 52 43 66 93 100 100 100 98 100 99 94 98
26 15 15 19 23 27 29 30 30 29 29 29 29 30 36 36 42 54 60 95 94 92 86 73 47 39 53 28 69 99 100 100 97 85 63 89 100 100 100 100 100 100 99
16 19 25 30 30 29 29 29 30 30 28 28 28 31 33 34 38 46 52 88 87 84 84 85 87 91 79 83 88 96 96 94 89 87 92 74 85 99 98 100 100 100 100
20 26 28 28 28 29 31 33 34 36 36 35 32 33 41 63 57 56 57 67 91 88 84 84 87 97 97 99 100 100 100 100 99 88 85 85 86 90 100 100 100 100 100
29 29 31 34 34 32 31 32 36 38 37 39 42 39 45 51 62 76 61 63 76 97 90 87 92 97 99 94 93 97 98 100 100 85 80 92 89 81 94 100 99 100 100
28 30 32 33 34 36 38 37 39 44 60 74 90 90 88 90 92 98 99 98 98 99 97 89 84 95 98 97 97 96 94 100 99 99 89 99 98 81 79 99 99 100 100
31 33 34 35 36 38 41 44 46 73 96 99 100 99 98 98 95 94 96 96 97 97 95 91 90 97 97 98 93 93 95 88 95 94 99 94 100 100 100 100 100 100 100
34 36 36 35 36 39 44 48 55 70 100 100 100 100 100 98 96 94 100 98 97 94 98 88 86 99 95 91 91 91 89 86 93 88 98 95 98 99 99 100 100 100 100
38 40 38 39 47 53 59 55 75 75 68 64 94 100 98 99 99 100 100 98 99 99 94 92 100 97 93 91 91 86 90 92 79 81 94 98 98 99 100 100 100 99 100
38 39 40 45 54 68 86 100 90 47 58 73 92 100 100 100 100 95 97 99 99 100 94 98 94 94 95 90 87 86 88 86 84 98 96 96 96 98 99 98 99 99 99
40 40 44 50 64 92 100 100 100 100 100 77 77 99 100 100 99 98 99 97 97 97 95 93 97 98 96 91 87 87 91 88 91 93 97 95 97 98 100 98 98 99 99
40 43 48 58 90 100 100 98 100 100 100 100 98 99 99 100 100 100 100 100 100 99 98 97 99 95 95 96 95 91 94 93 97 100 99 95 97 97 97 96 99 98 98
38 44 53 77 99 95 100 100 100 100 100 100 100 100 100 97 96 94 98 97 97 98 96 96 99 100 100 100 96 97 96 97 97 100 99 97 97 97 97 97 97 97 98
41 43 62 90 84 100 100 100 100 100 100 100 100 100 100 98 98 97 96 95 96 99 100 100 100 100 100 100 100 99 98 98 100 100 96 96 97 97 98 96 97 98 99
44 52 68 81 100 100 100 100 100 100 100 100 100 100 100 100 100 100 100 100 100 100 100 100 100 100 99 100 100 96 93 95 98 99 100 96 96 97 96 97 96 96 96
52 59 70 81 85 95 100 100 100 100 100 100 100 100 100 100 100 100 100 100 100 99 99 100 100 99 97 100 100 99 94 94 95 94 99 93 97 96 97 100 100 99 97
55 61 60 63 72 91 96 99 100 100 100 100 100 100 100 100 100 100 95 94 94 93 95 95 94 96 97 99 100 100 100 96 96 97 100 98 96 97 96 97 96 95 96
54 55 58 60 70 80 86 96 100 100 100 100 100 94 95 97 94 93 94 95 96 97 95 96 97 97 98 100 100 99 96 92 93 98 98 97 97 97 97 97 96 95 97
53 56 59 63 74 85 88 91 100 98 94 94 92 94 96 95 94 94 94 96 97 96 94 96 97 99 100 100 100 100 95 100 95 93 96 96 96 96 97 97 96 96 96

GFSGL_850_rhum_111.txt.gz
RH
77 72 61 50 34 29 28 31 42 57 74 74 67 50 38 40 57 54 38 45 62 64 67 82 78 84 96 100 98 94 100 100 100 94 89 89 94 94 91 85 84 81 82
71 77 75 75 73 78 70 38 28 26 27 28 30 36 33 29 24 32 59 60 28 23 42 46 35 60 75 75 88 100 99 100 100 100 90 99 100 97 95 93 90 87 79
39 35 36 44 46 46 45 38 32 29 24 22 21 20 22 20 17 18 20 21 22 21 21 20 20 20 22 32 43 73 87 96 100 99 100 100 97 99 100 97 91 88 87
36 33 30 27 25 24 22 20 16 12 8 8 7 6 6 6 7 7 6 6 7 10 14 16 18 20 22 23 19 20 29 41 62 79 94 100 100 100 100 97 100 95 97
34 30 28 26 25 19 11 8 8 8 10 11 12 13 12 13 20 14 12 11 10 10 12 13 11 8 8 12 20 21 21 23 27 46 68 87 98 99 99 100 96 96 99
34 31 29 26 16 11 11 14 16 16 17 17 17 17 16 24 38 19 19 16 16 18 17 13 12 11 17 11 32 55 37 30 35 84 99 100 99 100 100 100 100 100 99
32 31 28 17 14 18 22 27 31 29 24 21 20 20 20 23 24 24 26 26 27 32 36 31 26 34 35 46 54 50 36 62 68 87 97 99 99 99 100 100 100 100 98
35 37 30 22 22 25 25 24 22 21 22 25 26 27 26 27 30 33 37 39 55 61 74 65 62 62 54 85 66 54 44 47 58 48 76 97 99 97 100 100 100 100 100
40 28 18 19 22 20 20 22 26 29 31 34 41 46 49 50 69 64 76 91 90 87 81 78 80 83 81 53 53 52 57 55 44 40 45 77 96 86 86 100 99 100 100
33 18 23 28 25 26 30 33 35 40 42 42 41 55 64 66 85 98 99 97 93 85 80 78 77 83 96 94 91 100 99 89 53 35 34 20 22 22 29 58 98 100 100
16 22 22 20 24 26 29 33 40 44 48 53 60 64 67 74 81 93 97 98 98 94 89 86 81 84 96 96 95 95 94 93 93 95 73 29 31 57 35 60 55 94 100
20 18 19 23 25 29 38 43 50 54 55 62 67 59 68 77 83 89 95 97 97 99 93 90 85 85 84 98 98 98 95 96 90 87 95 96 94 87 90 98 79 65 81
17 19 24 26 30 33 41 40 48 56 66 74 76 80 76 65 64 91 95 94 92 92 86 86 88 84 75 67 74 88 87 80 87 84 80 77 84 97 96 82 97 99 99
21 25 27 29 29 35 43 47 54 57 72 82 92 93 90 85 78 87 92 90 92 91 91 96 94 95 87 92 92 78 73 83 93 94 85 90 83 89 91 88 90 97 99
25 28 31 35 38 44 46 54 66 71 85 94 100 100 98 93 88 98 99 95 96 97 97 95 90 83 86 86 88 81 81 78 85 83 84 83 88 78 94 92 92 100 99
30 33 37 38 44 52 63 62 74 85 88 89 98 100 99 100 100 99 98 96 97 98 92 91 81 84 89 91 81 77 83 90 86 87 86 88 96 100 99 98 95 99 99
34 37 41 41 51 59 71 89 72 75 77 78 99 100 100 100 96 94 97 98 96 96 95 91 97 97 94 90 87 86 86 87 85 87 90 92 95 99 99 98 98 99 99
35 38 39 40 52 72 89 100 100 95 96 96 99 100 100 100 99 98 97 98 93 95 97 94 89 90 94 90 88 90 92 90 90 93 90 94 95 96 96 96 97 98 99
38 39 40 44 59 90 99 100 100 100 98 98 93 90 89 97 99 98 99 94 92 93 95 92 92 93 93 91 93 96 96 92 95 93 95 95 94 98 96 96 96 97 99
38 38 39 46 72 94 99 100 100 100 100 98 97 95 90 92 91 90 91 92 93 91 91 93 91 92 93 96 98 97 94 90 91 92 95 97 94 98 96 97 97 98 97
39 39 45 70 71 85 100 100 100 98 100 99 98 96 100 96 95 94 96 94 93 95 95 94 92 94 95 100 99 96 95 98 95 93 92 92 94 96 96 96 97 96 97
39 41 50 62 71 81 99 100 100 100 100 100 99 96 100 97 96 97 98 99 100 100 100 100 100 100 100 100 100 100 100 98 98 93 96 96 94 96 96 96 97 96 97
40 46 52 58 64 72 98 100 100 100 100 100 98 98 98 100 100 100 97 95 97 95 94 96 98 98 97 99 100 100 100 99 96 99 97 96 97 97 96 96 97 97 97
43 48 50 53 56 67 99 100 100 100 100 100 100 94 98 100 99 98 97 96 96 96 97 97 98 98 97 97 98 99 100 100 100 98 95 94 98 96 96 97 96 97 97
45 50 49 52 57 64 78 95 100 100 100 99 92 94 97 99 99 97 97 97 97 97 96 96 96 96 96 96 96 99 100 100 100 99 96 100 99 96 96 97 97 96 96
45 48 52 57 60 72 84 88 87 92 91 89 92 97 98 100 99 96 97 98 97 97 97 97 96 97 97 98 100 100 100 100 100 100 100 97 96 96 96 96 96 96 95

GFSGL_850_rhum_114.txt.gz
RH
79 79 78 76 72 64 46 33 29 29 31 36 52 70 67 64 59 56 52 68 75 59 38 32 49 47 59 58 78 86 87 96 100 95 96 99 100 100 100 99 92 92 83
41 37 38 43 46 44 36 36 32 31 28 24 22 22 22 24 23 21 22 24 24 27 50 65 51 29 31 56 48 28 69 80 89 98 91 92 98 100 99 100 97 100 93
38 35 31 28 25 24 22 20 15 12 9 8 7 8 7 7 7 8 9 7 6 9 12 20 28 36 29 22 22 29 26 33 36 59 83 87 92 98 100 100 100 100 100
38 34 30 27 25 20 12 8 8 9 10 11 12 13 14 14 18 15 15 12 12 12 15 23 27 38 26 17 16 21 24 24 25 26 32 44 66 80 98 100 100 100 98
40 36 31 28 23 12 10 12 16 16 16 15 14 13 14 16 29 23 14 15 14 14 17 24 25 22 21 28 45 78 72 41 32 31 33 43 62 94 99 99 99 100 98
41 36 32 29 15 12 15 18 18 17 17 16 16 17 17 19 21 26 21 17 17 19 20 24 26 28 40 52 58 50 64 74 91 86 75 93 89 99 99 100 100 99 99
43 34 30 21 10 14 18 16 16 16 18 18 20 21 21 22 24 25 26 25 26 30 40 46 52 60 70 70 70 59 40 35 48 83 92 90 91 86 99 98 98 100 100
42 34 31 15 14 17 13 14 18 20 21 22 22 24 24 27 29 34 40 38 38 42 52 67 76 75 77 76 77 58 48 42 51 50 53 51 50 46 48 86 98 98 98
39 33 20 12 17 14 16 19 20 21 23 24 26 29 34 40 60 84 87 75 72 72 80 82 79 79 82 89 88 78 75 54 50 53 57 54 40 28 31 37 33 64 86
36 30 14 19 16 18 20 21 23 26 29 34 38 49 63 69 75 87 96 98 98 95 94 83 72 84 87 95 91 90 93 82 86 80 47 35 38 42 46 44 66 85 92
34 15 18 16 19 22 22 24 26 30 38 46 54 64 64 67 74 86 95 98 98 94 98 92 80 92 93 92 93 93 90 94 94 81 75 74 53 63 68 99 100 92 100
18 16 16 19 23 21 21 21 28 38 46 51 55 51 54 64 67 61 86 96 97 97 94 94 91 89 95 94 92 89 92 96 92 75 85 82 82 81 87 69 76 99 89
17 17 20 23 22 23 24 25 30 41 53 58 67 66 57 56 56 62 67 96 98 100 96 96 99 94 91 95 82 87 91 93 78 79 87 82 80 78 77 76 62 56 68
17 18 23 22 23 24 24 30 39 50 62 70 74 77 74 62 64 72 85 94 92 91 90 89 84 88 90 78 73 70 78 76 76 78 83 81 82 82 79 87 100 99 98
16 22 24 26 28 28 30 37 47 61 83 95 98 100 100 98 92 100 100 98 96 96 96 94 93 84 82 76 76 86 81 72 72 74 82 87 84 82 80 82 100 100 100
20 26 28 27 27 28 34 36 51 71 94 100 100 100 100 100 100 100 99 97 98 99 94 96 90 92 85 93 94 93 92 90 80 82 86 84 90 91 84 83 96 100 100
25 28 28 29 30 33 39 50 59 60 76 76 80 100 100 99 99 99 98 96 97 98 93 94 96 92 92 92 95 97 95 83 84 89 87 94 94 88 92 88 89 98 97
28 30 30 30 32 36 45 63 78 88 83 74 79 87 99 100 100 100 98 97 89 84 90 90 86 82 86 89 88 89 87 87 88 88 86 91 91 92 92 94 97 98 98
32 33 34 32 35 42 64 79 80 89 92 86 86 83 88 98 100 100 100 93 93 94 96 94 85 83 83 84 85 87 89 90 92 94 92 92 91 92 94 96 97 96 96
34 34 33 33 36 50 69 69 81 93 90 90 93 89 93 94 99 88 83 91 94 92 92 96 96 98 99 97 91 91 92 90 89 94 97 98 95 92 97 97 94 96 96
34 35 35 34 42 56 67 76 88 95 97 97 93 90 100 99 94 85 88 92 95 96 97 98 96 95 96 97 96 95 98 97 97 98 98 98 96 98 98 95 96 96 96
36 36 36 38 45 52 64 81 98 96 96 99 92 87 99 96 89 92 95 96 99 99 98 98 97 96 95 96 98 100 100 100 97 97 98 96 95 96 97 96 96 96 96
37 37 36 38 47 49 55 63 85 100 100 96 92 92 91 90 92 95 96 96 98 98 97 99 99 96 96 98 100 100 100 98 98 98 98 96 100 94 91 96 96 96 96
38 39 38 44 48 52 54 66 79 97 100 92 88 89 90 92 93 94 95 95 96 95 96 97 98 97 98 98 99 99 96 96 99 99 98 97 96 91 93 96 96 96 96
39 37 39 47 49 51 55 65 78 87 89 85 85 91 91 92 95 94 95 96 96 96 95 98 97 97 97 98 97 97 97 97 98 100 97 97 98 94 94 97 98 96 96
38 38 42 46 50 53 60 67 80 84 85 82 87 93 93 95 96 95 96 97 98 98 97 97 96 98 97 97 97 96 96 99 100 99 99 96 95 95 96 97 97 97 96

GFSGL_850_rhum_117.txt.gz
RH
50 45 42 42 40 35 30 28 30 29 28 24 23 23 24 31 43 44 47 55 47 43 52 68 71 66 56 43 40 58 69 60 64 83 90 82 90 94 97 98 99 99 98
39 36 32 28 26 24 21 16 12 9 8 8 8 8 8 8 8 9 11 13 12 10 11 16 16 25 53 70 79 69 30 56 64 65 60 50 52 75 92 98 94 100 100
40 37 33 28 24 20 12 6 7 9 10 11 13 13 12 12 12 12 12 13 12 12 14 14 17 17 15 19 21 38 62 42 28 31 32 30 33 40 68 90 93 98 98
44 43 38 30 24 15 6 7 10 11 11 11 13 14 14 15 21 16 14 13 13 14 16 21 23 27 28 26 33 46 59 50 40 36 32 27 27 31 52 67 81 90 95
46 46 40 31 26 11 9 13 13 9 9 10 11 12 13 14 16 17 21 21 20 20 22 26 28 32 38 48 64 61 56 55 50 52 61 46 40 43 58 80 90 76 83
47 46 40 32 24 10 14 15 13 16 19 20 22 23 25 26 28 29 30 24 23 23 26 37 53 66 72 74 71 64 60 50 45 65 69 66 55 50 45 52 57 78 92
49 47 40 32 16 14 18 15 17 19 21 22 23 24 24 27 28 28 30 34 35 36 41 46 57 69 76 80 80 78 66 54 54 58 58 49 47 40 51 45 40 47 56
51 48 39 30 12 18 14 18 21 22 23 24 25 26 28 31 36 40 52 50 46 46 46 54 66 71 76 82 86 80 69 63 71 73 70 61 60 45 46 54 56 43 42
52 49 35 18 16 16 17 20 20 21 24 27 32 33 36 40 50 61 89 83 78 76 75 72 70 59 60 80 94 91 81 71 72 75 79 72 62 56 50 73 52 74 94
54 44 33 15 16 15 20 20 21 23 25 29 32 38 44 49 58 68 90 93 91 87 80 85 84 78 71 97 97 94 89 82 73 87 80 57 46 46 54 72 84 99 100
52 38 18 16 15 19 18 19 20 21 24 29 36 41 46 51 55 62 66 94 95 99 99 100 95 90 95 94 91 94 96 87 92 97 88 64 49 52 51 61 72 82 84
42 28 15 15 18 21 21 23 24 26 28 36 42 44 52 56 60 60 64 99 98 96 95 95 92 89 100 99 99 97 98 95 98 97 90 66 63 62 63 64 63 60 60
35 16 17 18 23 24 26 26 26 29 33 41 51 52 56 58 59 66 72 82 99 100 95 94 98 99 94 94 77 77 95 89 82 93 80 80 75 75 77 78 70 56 64
20 17 18 21 23 26 27 26 27 33 39 48 61 68 67 71 76 82 91 93 90 88 86 88 93 98 90 77 74 69 72 82 100 97 90 80 77 77 81 84 86 73 80
16 17 18 23 26 26 25 24 26 37 56 77 95 100 100 97 95 99 97 95 94 97 98 93 96 92 84 76 78 74 78 91 98 96 90 82 80 81 83 94 86 85 97
17 17 22 26 28 27 24 22 34 40 48 60 80 99 99 99 99 100 99 100 100 100 96 97 90 90 97 98 99 98 100 100 98 95 88 93 87 83 91 88 91 88 85
16 20 25 29 28 26 26 25 22 31 44 48 67 82 100 100 100 100 100 100 100 100 83 77 82 92 94 90 80 80 81 80 80 82 87 87 88 91 93 87 87 88 95
18 23 27 29 29 28 28 31 38 42 45 51 64 78 93 100 100 100 100 99 82 76 81 83 85 88 85 86 91 93 86 83 84 83 82 86 93 90 90 92 87 90 94
22 26 28 29 30 29 30 38 44 49 52 66 75 74 82 82 86 96 96 86 85 84 85 86 87 87 88 88 85 86 87 87 94 100 99 92 86 87 91 94 93 97 100
24 27 30 30 31 35 37 42 45 50 57 72 78 81 84 95 95 86 86 87 88 88 90 93 92 93 94 94 95 95 94 93 92 90 92 93 93 95 98 99 96 99 97
27 28 32 32 34 40 42 44 50 53 64 74 79 79 98 100 95 88 87 87 92 94 97 98 95 94 95 97 97 96 96 94 92 92 93 94 95 99 99 96 96 98 96
28 30 33 34 37 41 46 44 49 55 68 80 76 74 80 86 87 91 91 92 93 96 99 99 98 98 99 97 97 96 95 94 92 94 96 94 95 96 96 98 96 89 94
30 32 34 35 38 44 47 49 50 53 69 82 78 77 82 87 91 93 94 95 96 97 97 97 98 97 97 97 97 99 100 97 97 100 99 99 99 98 96 96 91 88 96
32 34 34 36 40 44 46 50 54 58 76 84 76 78 85 90 93 93 94 96 97 96 96 96 97 97 97 98 99 98 99 99 99 99 99 98 98 96 97 99 94 95 96
33 36 36 37 40 44 48 52 56 62 77 83 74 80 87 91 93 92 93 95 94 95 95 96 96 96 96 97 96 97 98 98 98 95 96 97 98 97 98 97 95 96 96
35 36 37 40 43 46 49 53 60 69 78 80 75 82 89 92 94 93 95 96 96 96 94 94 96 97 97 98 98 99 99 98 98 95 97 97 96 96 97 97 97 97 97

GFSGL_850_rhum_120.txt.gz
RH
40 39 36 31 27 25 21 16 10 9 8 8 9 9 10 11 12 14 18 20 20 23 24 28 35 45 60 70 71 72 62 52 47 48 52 62 70 72 69 79 84 93 98
42 40 37 33 28 24 17 10 10 12 15 11 9 9 9 10 10 11 11 13 12 10 11 11 11 12 17 18 19 21 36 68 84 83 77 66 37 28 57 47 46 84 94
43 43 41 36 30 25 13 7 10 14 14 14 17 14 12 11 10 11 11 12 12 11 14 17 20 26 27 26 26 24 22 36 44 44 46 47 33 19 16 25 26 37 74
45 45 45 41 33 26 11 9 13 12 12 13 14 15 18 22 24 21 19 21 19 17 16 20 22 26 30 34 33 33 38 37 34 34 33 27 26 22 21 19 13 20 31
47 47 48 45 36 28 10 13 13 13 15 16 17 18 20 22 24 26 29 26 26 25 27 32 38 45 52 58 58 59 53 52 47 41 36 36 35 27 27 23 21 14 9
55 50 49 46 37 26 11 14 11 16 18 20 21 21 22 22 20 22 24 28 30 29 31 39 49 64 71 72 73 72 66 68 55 51 49 50 42 41 41 38 34 25 28
60 54 50 47 37 20 14 13 17 19 20 22 23 25 27 31 35 37 42 51 50 48 46 44 46 59 69 71 80 86 84 76 71 76 74 69 70 60 59 51 47 46 44
63 56 52 49 37 15 16 16 22 23 24 26 29 31 32 36 38 42 63 61 61 57 57 59 60 60 56 62 82 96 95 86 72 75 79 77 81 61 58 72 66 78 55
65 58 53 47 34 15 15 20 22 23 25 27 31 35 36 39 42 51 66 60 58 56 59 66 71 72 68 84 94 100 97 83 73 75 69 82 85 66 53 67 61 72 74
65 58 54 41 23 16 15 20 20 22 22 23 25 32 39 42 45 49 49 49 48 54 61 80 88 87 97 97 96 90 88 73 85 75 73 70 80 73 54 60 71 80 91
63 57 52 38 17 16 19 20 22 23 22 23 24 32 41 47 48 51 54 57 68 84 92 89 84 83 98 98 100 100 100 93 99 100 93 83 79 75 58 56 64 74 81
60 56 43 23 17 17 22 23 25 25 25 25 28 34 46 52 54 54 62 76 99 100 97 92 87 94 96 91 95 95 100 100 97 96 96 80 87 71 62 61 63 72 79
59 52 35 17 17 23 26 29 27 27 29 32 34 40 49 58 58 65 74 84 94 100 95 95 98 89 94 94 87 93 99 91 82 82 83 92 89 77 71 66 67 68 70
58 42 20 17 20 26 30 30 29 32 32 34 40 46 56 64 66 76 85 91 91 91 86 86 88 98 94 85 78 75 78 80 95 98 95 97 96 88 75 67 68 66 79
48 29 18 19 24 28 30 30 30 33 38 42 49 65 64 64 83 99 100 98 95 93 100 97 91 84 70 76 82 85 92 100 100 99 98 97 94 86 84 75 79 85 85
41 18 19 21 26 29 30 30 33 35 42 46 51 63 66 81 99 100 100 99 97 97 96 88 71 69 71 84 88 92 81 79 79 80 79 79 82 85 84 85 88 90 86
26 18 20 23 27 30 30 29 27 30 36 40 46 63 71 97 100 100 100 100 100 92 74 73 76 76 78 81 81 82 85 88 92 91 91 86 87 87 96 97 86 82 88
18 19 20 25 28 30 31 30 28 29 29 31 45 65 72 74 81 100 100 99 74 71 76 82 84 87 88 88 89 92 92 91 90 88 90 95 100 100 97 90 87 88 100
19 20 23 26 28 30 31 32 35 37 37 38 46 64 73 70 73 85 81 80 80 81 86 90 89 90 91 92 93 93 93 90 90 94 96 95 94 96 96 96 96 100 100
20 21 24 27 29 31 33 34 37 39 39 42 55 74 74 80 85 76 76 80 85 88 91 91 90 91 94 94 95 95 95 93 92 92 91 91 93 97 98 96 96 100 100
22 24 26 28 30 33 34 35 40 41 40 44 59 78 91 100 84 80 79 84 90 91 92 94 94 93 93 96 98 98 98 98 96 96 95 95 96 98 98 98 99 98 96
23 26 28 30 33 34 36 40 42 42 44 50 64 75 74 78 79 79 82 86 87 89 95 99 97 96 97 98 98 99 98 98 98 99 98 99 99 98 98 98 97 96 96
24 27 30 32 34 37 38 41 45 46 48 53 70 74 72 78 80 82 86 89 88 91 95 96 95 95 97 98 98 98 98 97 98 100 98 98 99 100 100 97 97 98 98
25 29 32 34 36 38 40 42 44 47 52 60 75 75 74 81 83 85 88 88 89 92 94 94 97 98 97 97 97 97 97 96 97 98 99 97 99 98 98 98 98 98 96
27 30 34 35 36 39 44 44 47 49 55 67 75 74 77 85 87 88 88 89 90 92 92 96 96 95 96 96 97 97 98 98 97 96 97 98 97 96 96 96 96 97 96
30 32 35 37 37 41 43 44 47 51 57 72 76 74 78 88 89 91 89 88 92 94 92 93 93 97 97 97 97 97 96 96 96 96 97 96 96 95 95 94 92 96 98

GFSGL_850_rhum_123.txt.gz
RH
40 41 40 36 33 28 24 16 7 7 10 13 14 12 11 11 11 11 12 15 15 16 17 21 23 26 30 37 48 62 72 72 70 70 68 63 58 58 56 57 58 68 65
41 43 43 42 38 32 26 15 8 11 13 11 12 15 16 15 17 19 15 11 12 13 16 20 23 24 23 21 19 17 18 25 38 45 40 32 34 46 60 64 58 39 41
43 44 45 46 44 38 29 15 9 13 11 11 12 13 15 16 16 15 18 25 24 18 15 16 19 22 24 28 29 30 34 37 43 47 36 23 18 17 13 14 16 16 13
50 46 46 47 47 43 32 15 11 12 12 16 17 18 18 20 22 24 23 22 22 22 23 25 28 30 30 33 34 41 43 42 42 41 38 28 25 21 20 16 9 10 10
59 54 50 49 49 46 35 14 13 12 16 20 22 24 24 24 25 25 27 35 34 33 33 36 43 55 61 68 80 65 65 58 52 48 47 44 36 32 31 30 25 19 14
61 60 55 52 51 48 37 14 14 14 18 19 20 22 24 26 26 26 28 36 36 38 40 43 47 58 63 66 68 72 78 78 71 66 61 65 58 62 62 55 47 36 29
62 62 60 55 52 49 37 15 14 16 18 18 21 23 27 30 34 44 59 52 48 50 53 51 48 51 51 51 57 72 92 93 93 86 75 71 70 74 77 61 50 57 55
62 64 63 58 53 49 35 15 14 17 18 19 21 25 29 34 39 47 56 49 53 53 49 45 47 52 61 65 84 70 83 95 97 90 78 74 69 75 95 76 59 64 55
62 65 65 60 54 49 31 14 14 18 19 21 23 26 31 36 40 45 48 43 45 46 49 54 64 67 68 86 93 89 90 90 86 81 85 88 79 79 86 87 65 60 63
62 65 66 59 56 45 21 14 17 19 20 21 22 27 31 36 44 49 49 48 46 47 49 56 65 70 88 99 98 96 93 86 91 84 82 92 85 80 83 92 74 72 75
65 68 65 59 55 39 16 15 19 20 22 23 22 26 29 39 47 53 53 54 56 66 76 77 74 74 96 100 100 95 90 93 98 92 88 90 86 84 76 81 73 72 78
68 68 63 58 49 26 16 18 21 23 23 24 27 29 34 44 55 58 64 76 96 99 92 92 82 96 100 99 98 96 99 97 91 86 88 83 80 77 80 82 73 68 67
69 66 61 57 40 18 17 21 24 26 25 25 28 29 33 42 54 64 73 82 86 99 98 86 100 100 100 95 82 96 98 82 79 80 77 77 79 88 96 85 72 68 65
66 64 60 50 26 17 19 23 26 27 26 27 28 33 37 39 52 67 90 95 92 96 89 91 94 92 81 75 63 64 78 90 93 96 100 88 89 94 94 84 81 71 66
66 62 58 40 19 18 22 26 28 28 28 28 30 36 39 40 58 92 100 99 100 100 100 94 84 72 63 62 64 68 72 81 79 85 93 91 89 86 82 78 78 78 81
66 61 51 26 19 21 26 29 30 29 30 34 39 39 38 51 72 100 100 100 100 98 98 87 73 73 72 71 71 71 76 76 74 77 79 80 81 80 79 78 83 95 97
64 59 40 19 20 24 28 30 31 34 33 38 38 36 44 58 95 100 100 100 99 100 81 74 74 76 78 82 82 82 82 82 84 88 90 90 89 89 88 88 94 95 90
68 52 28 20 21 27 30 33 33 33 34 36 39 37 47 68 75 98 100 100 86 74 75 76 78 82 83 84 87 90 91 92 93 92 92 91 91 96 98 100 97 94 97
71 44 21 22 22 30 32 33 34 34 35 34 33 36 49 68 68 76 90 83 79 76 78 81 85 86 86 89 91 94 96 95 96 96 96 97 96 99 97 95 95 98 100
51 28 22 24 25 31 32 34 35 36 36 35 33 35 48 68 65 70 76 80 83 82 86 88 88 91 94 97 97 98 97 95 95 95 93 94 95 98 97 97 98 98 96
39 23 24 25 27 32 35 35 37 38 39 38 37 41 62 91 70 76 79 82 85 88 89 92 94 95 98 99 99 98 97 96 97 96 96 96 96 96 96 97 97 97 97
25 20 26 27 30 33 35 37 37 38 40 39 39 42 66 73 72 77 80 82 87 90 92 96 96 96 98 98 97 97 97 98 97 97 96 96 96 96 96 96 97 97 96
22 21 26 27 32 35 38 37 38 41 41 40 41 44 67 70 72 80 81 84 86 86 89 94 94 94 96 98 98 97 97 96 97 97 96 97 97 97 98 98 98 96 95
24 26 26 27 33 35 37 38 39 41 41 40 41 49 71 73 74 82 83 86 88 86 88 92 94 97 97 96 96 98 98 96 96 96 96 96 96 98 100 98 96 96 95
27 24 29 29 31 35 37 38 40 43 42 41 43 54 72 72 75 84 83 86 87 88 87 92 94 97 96 96 96 97 96 96 97 97 96 96 96 97 97 96 96 96 96
31 26 31 32 32 35 37 40 42 44 42 42 47 61 74 72 76 84 83 86 89 87 89 91 92 98 97 96 97 97 97 96 96 96 96 95 94 94 96 97 95 96 95

GFSGL_850_rhum_126.txt.gz
RH
60 42 42 43 42 40 36 29 18 8 10 9 8 9 9 10 12 14 14 14 14 14 14 12 14 17 19 21 25 29 41 61 74 72 74 72 74 72 71 70 70 67 59
52 42 43 44 45 45 42 34 22 10 12 10 11 14 16 15 15 16 17 19 17 15 14 16 14 13 14 15 18 24 25 29 34 29 22 18 16 14 12 11 12 20 45
53 47 45 45 47 48 46 41 28 12 11 11 14 15 16 18 19 20 22 22 21 20 18 17 17 19 22 22 27 31 34 35 37 36 28 25 19 19 15 14 12 12 12
57 55 52 48 48 49 49 45 32 13 10 12 15 17 19 21 24 27 32 33 31 29 27 27 27 28 29 32 40 52 53 53 51 48 42 36 32 28 27 25 16 16 13
61 60 59 55 51 51 51 48 35 14 11 13 15 16 19 22 26 27 33 42 49 48 44 42 41 43 48 54 56 54 59 65 64 65 58 51 45 41 44 45 41 32 20
66 65 62 60 57 54 53 50 36 15 13 16 17 18 19 22 27 34 46 50 54 53 53 54 55 54 49 48 50 60 92 93 89 94 92 80 69 67 63 71 71 57 46
67 70 70 62 62 58 54 51 37 15 13 17 18 19 22 25 29 35 33 42 49 52 50 47 43 48 54 60 61 60 65 79 92 96 100 93 83 74 76 99 86 78 65
66 70 75 64 63 61 56 52 36 15 15 17 17 19 21 26 31 41 46 39 42 45 46 46 46 47 51 61 74 79 76 79 86 92 95 89 87 87 99 100 88 95 77
66 68 70 63 65 63 57 52 33 15 17 18 20 21 20 23 29 39 44 42 43 46 49 52 57 58 58 66 85 80 76 74 81 91 94 93 87 90 97 99 90 91 79
65 66 68 64 66 64 58 52 27 14 18 19 22 21 22 24 30 40 47 44 44 50 61 67 68 73 76 99 100 100 94 87 84 85 94 86 84 95 96 97 97 90 83
67 72 65 65 68 63 58 49 20 16 20 22 23 23 23 25 30 36 47 54 57 66 90 80 80 83 99 100 99 97 96 98 97 99 94 89 81 74 72 80 92 97 91
70 68 65 68 68 61 57 38 17 17 21 24 25 25 27 28 33 39 54 60 94 100 100 96 90 99 99 99 99 98 98 100 93 89 86 77 72 65 66 72 85 100 93
66 65 67 70 66 60 52 27 17 20 22 26 26 25 26 30 32 40 52 65 80 100 100 100 100 100 100 93 72 62 72 66 68 75 78 76 76 78 85 88 94 100 95
67 68 70 67 63 59 44 20 18 22 26 26 27 26 26 29 31 39 58 87 96 95 92 93 94 94 77 66 62 61 62 67 72 91 88 88 92 92 87 85 86 83 78
70 71 67 66 62 54 33 19 20 24 28 26 26 28 28 27 31 41 95 100 100 100 100 93 84 75 64 65 64 65 67 70 70 70 71 70 70 73 73 75 77 77 79
71 69 67 65 63 47 23 21 23 27 29 27 25 29 30 31 32 57 100 100 100 100 100 89 76 72 75 75 75 77 79 81 82 83 84 86 87 87 85 84 83 83 96
70 68 68 63 56 38 20 22 26 30 30 30 28 31 35 35 35 57 100 100 100 100 86 74 76 79 80 82 84 86 87 89 92 92 95 92 92 90 91 88 89 91 90
70 69 66 69 63 28 22 23 28 29 31 31 31 31 34 33 37 60 97 100 90 77 75 77 80 85 89 91 91 92 91 91 92 92 91 91 92 95 94 91 91 92 92
71 71 69 93 49 23 26 28 32 29 33 33 30 31 37 38 46 67 90 85 75 74 79 81 88 91 91 91 92 94 96 93 93 92 91 93 93 98 96 94 93 95 99
69 68 92 66 31 22 27 32 30 31 34 35 31 33 37 40 48 68 69 74 74 78 81 85 88 90 91 94 96 96 95 94 93 94 93 94 95 98 98 98 98 98 96
86 77 64 45 20 21 25 30 34 36 34 35 32 36 38 43 49 68 66 73 76 81 84 89 88 88 91 96 97 99 98 97 96 96 96 96 97 98 97 97 97 97 97
68 66 54 32 21 23 23 28 34 37 36 33 33 35 38 41 54 69 67 75 80 86 89 91 90 90 94 98 99 99 98 96 95 96 96 97 96 96 97 97 95 96 97
66 54 46 28 28 30 30 29 32 36 36 34 37 38 39 42 62 70 68 75 79 84 89 92 91 90 94 96 98 97 97 96 96 97 96 97 96 96 97 97 96 97 96
63 52 48 45 28 28 31 32 35 34 34 36 38 40 41 45 63 70 69 76 80 85 90 91 91 92 94 96 97 97 97 97 97 96 97 96 97 96 98 97 96 95 96
82 81 81 38 26 28 33 34 35 32 36 38 39 39 42 48 67 72 70 78 82 84 88 88 91 93 94 96 97 97 96 96 97 97 96 96 96 96 97 97 96 95 96
91 91 74 54 29 30 32 36 31 32 37 39 40 40 43 52 69 73 72 80 82 84 87 90 92 93 94 97 96 97 97 98 97 96 96 97 95 96 96 96 96 97 97